Darstellungsparameter: Aktuell verwendete Einstellungen:
Skalierung der Graphiken ... ?
xyx+y,   Skalierungsfaktor:      Skalierung: Modus: x, Faktor: 1
Darstellungszeitraum ... ?
Vom - - bis: - -   Zeitraum: 24.06.2016 - 24.07.2016
Min/Max/Avg-Anzeige ... ?
Zeige MMA aktuell
Zeige MMA Monat
Zeige MMA alles
Zeige --A aktuell
Zeige --A Monat
Zeige --A alles
Keine MMA-Anzeige
MMA:
Keine MMA-Graphiken
MMA-Basis: 24.06.2016 - 24.07.2016
Quicknavigation für Darstellung... ?
Tage:      1T, 2T, 3T, 5T -1T -2T -3T -5T +1T +2T +3T +5T
Wochen: 1W, 2W, 3W -1W -2W -3W +1W +2W +3W
Monate: 1M, 3M, 6M -1M -3M -6M +1M +3M +6M
Jahre:    1J, 3J, 5J, 10J -1J -3J -5J -10J +1J +3J +5J +10J
Nutze für die Darstellung ... ?
Originaldaten oder Mittelwerte auf ...
Stundenbasis Tagesbasis Wochenbasis
Monatsbasis Jahresbasis      Datenbasis: Original-Daten
Darstellen als:
Statistik (Auto) Statistik J:M      Darstellung:
Zur Graphik,    zurück zur Übersicht aller Sensoren.
 
Tabellarische Datenbersicht: ?
 
Sensor: Nr:Datum:Temp:Feuchte:Taupunkt:
Aussen-T/F 1 24-06-2016 00:00:00 22.6 C 88 % 20.51 C
2 24-06-2016 00:05:00 22.6 C 88 % 20.51 C
3 24-06-2016 00:10:00 22.6 C 89 % 20.69 C
4 24-06-2016 00:15:00 22.6 C 89 % 20.69 C
5 24-06-2016 00:20:00 22.5 C 89 % 20.59 C
6 24-06-2016 00:25:00 22.4 C 89 % 20.5 C
7 24-06-2016 00:30:00 22.3 C 89 % 20.4 C
8 24-06-2016 00:35:00 22.2 C 89 % 20.3 C
9 24-06-2016 00:40:00 22.2 C 90 % 20.48 C
10 24-06-2016 00:45:00 22.2 C 90 % 20.48 C
11 24-06-2016 00:50:00 22.4 C 89 % 20.5 C
12 24-06-2016 00:55:00 22.9 C 88 % 20.81 C
13 24-06-2016 01:00:00 23.2 C 86 % 20.73 C
14 24-06-2016 01:05:00 23.2 C 84 % 20.34 C
15 24-06-2016 01:10:00 23.2 C 85 % 20.54 C
16 24-06-2016 01:15:00 23.2 C 85 % 20.54 C
17 24-06-2016 01:20:00 23.1 C 85 % 20.44 C
18 24-06-2016 01:25:00 22.9 C 85 % 20.24 C
19 24-06-2016 01:30:00 22.8 C 86 % 20.33 C
20 24-06-2016 01:35:00 22.7 C 85 % 20.05 C
21 24-06-2016 01:40:00 22.6 C 85 % 19.95 C
22 24-06-2016 01:45:00 22.7 C 85 % 20.05 C
23 24-06-2016 01:50:00 22.6 C 84 % 19.76 C
24 24-06-2016 01:55:00 22.5 C 85 % 19.85 C
25 24-06-2016 02:00:00 22.4 C 86 % 19.94 C
Sensor: Nr:Datum:Temp:Feuchte:Taupunkt:
Aussen-T/F 26 24-06-2016 02:05:00 22.3 C 85 % 19.65 C
27 24-06-2016 02:10:00 22.2 C 86 % 19.75 C
28 24-06-2016 02:15:00 22.1 C 86 % 19.65 C
29 24-06-2016 02:20:00 21.9 C 87 % 19.64 C
30 24-06-2016 02:25:00 21.8 C 87 % 19.54 C
31 24-06-2016 02:30:00 21.6 C 88 % 19.53 C
32 24-06-2016 02:35:00 21.5 C 88 % 19.43 C
33 24-06-2016 02:40:00 21.4 C 88 % 19.33 C
34 24-06-2016 02:45:00 21.3 C 89 % 19.41 C
35 24-06-2016 02:50:00 21.3 C 89 % 19.41 C
36 24-06-2016 02:55:00 21.2 C 89 % 19.31 C
37 24-06-2016 03:00:00 21.2 C 89 % 19.31 C
38 24-06-2016 03:05:00 21.1 C 89 % 19.22 C
39 24-06-2016 03:10:00 21 C 89 % 19.12 C
40 24-06-2016 03:15:00 20.9 C 89 % 19.02 C
41 24-06-2016 03:20:00 20.8 C 90 % 19.1 C
42 24-06-2016 03:25:00 20.8 C 90 % 19.1 C
43 24-06-2016 03:30:00 20.7 C 90 % 19 C
44 24-06-2016 03:35:00 20.7 C 90 % 19 C
45 24-06-2016 03:40:00 20.6 C 90 % 18.9 C
46 24-06-2016 03:45:00 20.4 C 91 % 18.88 C
47 24-06-2016 03:50:00 20.3 C 91 % 18.78 C
48 24-06-2016 03:55:00 20.2 C 91 % 18.68 C
49 24-06-2016 04:00:00 20.1 C 91 % 18.58 C
50 24-06-2016 04:05:00 20.1 C 92 % 18.76 C
Sensor: Nr:Datum:Temp:Feuchte:Taupunkt:
Aussen-T/F 51 24-06-2016 04:10:00 19.9 C 92 % 18.56 C
52 24-06-2016 04:15:00 19.9 C 92 % 18.56 C
53 24-06-2016 04:20:00 19.8 C 92 % 18.46 C
54 24-06-2016 04:25:00 19.8 C 92 % 18.46 C
55 24-06-2016 04:30:00 19.7 C 93 % 18.54 C
56 24-06-2016 04:35:00 19.7 C 93 % 18.54 C
57 24-06-2016 04:40:00 19.6 C 93 % 18.44 C
58 24-06-2016 04:45:00 19.5 C 93 % 18.34 C
59 24-06-2016 04:50:00 19.6 C 93 % 18.44 C
60 24-06-2016 04:55:00 19.5 C 93 % 18.34 C
61 24-06-2016 05:00:00 19.5 C 93 % 18.34 C
62 24-06-2016 05:05:00 19.5 C 93 % 18.34 C
63 24-06-2016 05:10:00 19.4 C 93 % 18.24 C
64 24-06-2016 05:15:00 19.4 C 93 % 18.24 C
65 24-06-2016 05:20:00 19.4 C 93 % 18.24 C
66 24-06-2016 05:25:00 19.3 C 94 % 18.31 C
67 24-06-2016 05:30:00 19.3 C 94 % 18.31 C
68 24-06-2016 05:35:00 19.3 C 94 % 18.31 C
69 24-06-2016 05:40:00 19.2 C 94 % 18.21 C
70 24-06-2016 05:45:00 19.3 C 94 % 18.31 C
71 24-06-2016 05:50:00 19.3 C 94 % 18.31 C
72 24-06-2016 05:55:00 19.3 C 94 % 18.31 C
73 24-06-2016 06:00:00 19.3 C 94 % 18.31 C
74 24-06-2016 06:05:00 19.2 C 94 % 18.21 C
75 24-06-2016 06:10:00 19.2 C 94 % 18.21 C
Sensor: Nr:Datum:Temp:Feuchte:Taupunkt:
Aussen-T/F 76 24-06-2016 06:15:00 19.2 C 94 % 18.21 C
77 24-06-2016 06:20:00 19.2 C 94 % 18.21 C
78 24-06-2016 06:25:00 19.1 C 94 % 18.11 C
79 24-06-2016 06:30:00 19.1 C 94 % 18.11 C
80 24-06-2016 06:35:00 19.1 C 94 % 18.11 C
81 24-06-2016 06:40:00 19.2 C 95 % 18.38 C
82 24-06-2016 06:45:00 19.2 C 94 % 18.21 C
83 24-06-2016 06:50:00 19.2 C 94 % 18.21 C
84 24-06-2016 06:55:00 19.1 C 94 % 18.11 C
85 24-06-2016 07:00:00 19.2 C 94 % 18.21 C
86 24-06-2016 07:05:00 19.2 C 95 % 18.38 C
87 24-06-2016 07:10:00 19.3 C 95 % 18.48 C
88 24-06-2016 07:15:00 19.3 C 95 % 18.48 C
89 24-06-2016 07:20:00 19.3 C 95 % 18.48 C
90 24-06-2016 07:25:00 19.4 C 95 % 18.58 C
91 24-06-2016 07:30:00 19.4 C 95 % 18.58 C
92 24-06-2016 07:35:00 19.5 C 95 % 18.68 C
93 24-06-2016 07:40:00 19.6 C 95 % 18.78 C
94 24-06-2016 07:45:00 19.7 C 95 % 18.88 C
95 24-06-2016 07:50:00 19.7 C 95 % 18.88 C
96 24-06-2016 07:55:00 19.8 C 95 % 18.98 C
97 24-06-2016 08:00:00 19.9 C 95 % 19.07 C
98 24-06-2016 08:05:00 20 C 95 % 19.17 C
99 24-06-2016 08:10:00 20.2 C 95 % 19.37 C
100 24-06-2016 08:15:00 20.2 C 95 % 19.37 C
Sensor: Nr:Datum:Temp:Feuchte:Taupunkt:
Aussen-T/F 101 24-06-2016 08:20:00 20.3 C 95 % 19.47 C
102 24-06-2016 08:25:00 20.4 C 95 % 19.57 C
103 24-06-2016 08:30:00 20.4 C 95 % 19.57 C
104 24-06-2016 08:35:00 20.6 C 95 % 19.77 C
105 24-06-2016 08:40:00 20.7 C 95 % 19.87 C
106 24-06-2016 08:45:00 20.7 C 94 % 19.7 C
107 24-06-2016 08:50:00 20.8 C 95 % 19.97 C
108 24-06-2016 08:55:00 20.9 C 95 % 20.07 C
109 24-06-2016 09:00:00 21 C 94 % 20 C
110 24-06-2016 09:05:00 21.1 C 94 % 20.1 C
111 24-06-2016 09:10:00 21.3 C 94 % 20.29 C
112 24-06-2016 09:15:00 21.4 C 94 % 20.39 C
113 24-06-2016 09:20:00 21.6 C 94 % 20.59 C
114 24-06-2016 09:25:00 21.8 C 94 % 20.79 C
115 24-06-2016 09:30:00 22.1 C 93 % 20.91 C
116 24-06-2016 09:35:00 22.3 C 93 % 21.11 C
117 24-06-2016 09:40:00 22.4 C 93 % 21.21 C
118 24-06-2016 09:45:00 22.5 C 92 % 21.13 C
119 24-06-2016 09:50:00 22.7 C 92 % 21.33 C
120 24-06-2016 09:55:00 22.8 C 92 % 21.43 C
121 24-06-2016 10:00:00 23 C 92 % 21.63 C
122 24-06-2016 10:05:00 23.3 C 91 % 21.75 C
123 24-06-2016 10:10:00 23.7 C 90 % 21.96 C
124 24-06-2016 10:15:00 24.2 C 87 % 21.9 C
125 24-06-2016 10:20:00 25 C 83 % 21.91 C
Sensor: Nr:Datum:Temp:Feuchte:Taupunkt:
Aussen-T/F 126 24-06-2016 10:25:00 25.7 C 82 % 22.39 C
127 24-06-2016 10:30:00 26.2 C 80 % 22.47 C
128 24-06-2016 10:35:00 26.6 C 78 % 22.44 C
129 24-06-2016 10:40:00 26.8 C 79 % 22.85 C
130 24-06-2016 10:45:00 26.7 C 77 % 22.33 C
131 24-06-2016 10:50:00 26.6 C 76 % 22.02 C
132 24-06-2016 10:55:00 26.7 C 79 % 22.75 C
133 24-06-2016 11:00:00 26.7 C 80 % 22.96 C
134 24-06-2016 11:05:00 26.7 C 79 % 22.75 C
135 24-06-2016 11:10:00 26.6 C 78 % 22.44 C
136 24-06-2016 11:15:00 26.6 C 79 % 22.65 C
137 24-06-2016 11:20:00 26.7 C 82 % 23.37 C
138 24-06-2016 11:25:00 26.6 C 83 % 23.47 C
139 24-06-2016 11:30:00 26.6 C 82 % 23.27 C
140 24-06-2016 11:35:00 26.6 C 83 % 23.47 C
141 24-06-2016 11:40:00 26.7 C 84 % 23.77 C
142 24-06-2016 11:45:00 26.7 C 79 % 22.75 C
143 24-06-2016 11:50:00 26.9 C 82 % 23.56 C
144 24-06-2016 11:55:00 26.8 C 80 % 23.06 C
145 24-06-2016 12:00:00 26.8 C 78 % 22.64 C
146 24-06-2016 12:05:00 26.8 C 76 % 22.21 C
147 24-06-2016 12:10:00 26.7 C 77 % 22.33 C
148 24-06-2016 12:15:00 26.6 C 78 % 22.44 C
149 24-06-2016 12:20:00 26.3 C 77 % 21.94 C
150 24-06-2016 12:25:00 25.9 C 76 % 21.34 C
Sensor: Nr:Datum:Temp:Feuchte:Taupunkt:
Aussen-T/F 151 24-06-2016 12:30:00 25.7 C 78 % 21.57 C
152 24-06-2016 12:35:00 25.4 C 79 % 21.49 C
153 24-06-2016 12:40:00 25.1 C 79 % 21.2 C
154 24-06-2016 12:45:00 24.8 C 82 % 21.52 C
155 24-06-2016 12:50:00 24.5 C 84 % 21.62 C
156 24-06-2016 12:55:00 24.1 C 86 % 21.61 C
157 24-06-2016 13:00:00 23.8 C 87 % 21.5 C
158 24-06-2016 13:05:00 23.6 C 89 % 21.68 C
159 24-06-2016 13:10:00 23.4 C 90 % 21.66 C
160 24-06-2016 13:15:00 23.3 C 90 % 21.57 C
161 24-06-2016 13:20:00 23.2 C 91 % 21.65 C
162 24-06-2016 13:25:00 23.1 C 92 % 21.73 C
163 24-06-2016 13:30:00 22.9 C 92 % 21.53 C
164 24-06-2016 13:35:00 22.9 C 92 % 21.53 C
165 24-06-2016 13:40:00 22.8 C 93 % 21.61 C
166 24-06-2016 13:45:00 22.7 C 93 % 21.51 C
167 24-06-2016 13:50:00 22.6 C 93 % 21.41 C
168 24-06-2016 13:55:00 22.6 C 93 % 21.41 C
169 24-06-2016 14:00:00 22.6 C 94 % 21.58 C
170 24-06-2016 14:05:00 22.7 C 94 % 21.68 C
171 24-06-2016 14:10:00 22.9 C 94 % 21.88 C
172 24-06-2016 14:15:00 23.1 C 95 % 22.25 C
173 24-06-2016 14:20:00 23.2 C 94 % 22.18 C
174 24-06-2016 14:25:00 23.6 C 94 % 22.58 C
175 24-06-2016 14:30:00 23.7 C 92 % 22.32 C
Sensor: Nr:Datum:Temp:Feuchte:Taupunkt:
Aussen-T/F 176 24-06-2016 14:35:00 23.8 C 90 % 22.06 C
177 24-06-2016 14:40:00 23.9 C 89 % 21.97 C
178 24-06-2016 14:45:00 23.9 C 89 % 21.97 C
179 24-06-2016 14:50:00 24 C 88 % 21.89 C
180 24-06-2016 14:55:00 24 C 88 % 21.89 C
181 24-06-2016 15:00:00 24.1 C 86 % 21.61 C
182 24-06-2016 15:05:00 24.1 C 86 % 21.61 C
183 24-06-2016 15:10:00 24.1 C 85 % 21.42 C
184 24-06-2016 15:15:00 24.1 C 85 % 21.42 C
185 24-06-2016 15:20:00 24.2 C 84 % 21.32 C
186 24-06-2016 15:25:00 24.4 C 82 % 21.12 C
187 24-06-2016 15:30:00 24.3 C 77 % 20.01 C
188 24-06-2016 15:35:00 24.2 C 79 % 20.32 C
189 24-06-2016 15:40:00 23.8 C 82 % 20.54 C
190 24-06-2016 15:45:00 23.6 C 84 % 20.74 C
191 24-06-2016 15:50:00 23.4 C 85 % 20.73 C
192 24-06-2016 15:55:00 23.2 C 85 % 20.54 C
193 24-06-2016 16:00:00 22.9 C 87 % 20.62 C
194 24-06-2016 16:05:00 22.8 C 88 % 20.71 C
195 24-06-2016 16:10:00 22.6 C 90 % 20.87 C
196 24-06-2016 16:15:00 22.4 C 90 % 20.68 C
197 24-06-2016 16:20:00 22.3 C 91 % 20.76 C
198 24-06-2016 16:25:00 22.6 C 92 % 21.23 C
199 24-06-2016 16:30:00 22.7 C 91 % 21.15 C
200 24-06-2016 16:35:00 22.9 C 90 % 21.17 C
Sensor: Nr:Datum:Temp:Feuchte:Taupunkt:
Aussen-T/F 201 24-06-2016 16:40:00 23.3 C 91 % 21.75 C
202 24-06-2016 16:45:00 23.6 C 90 % 21.86 C
203 24-06-2016 16:50:00 23.4 C 88 % 21.3 C
204 24-06-2016 16:55:00 23.2 C 88 % 21.1 C
205 24-06-2016 17:00:00 23.2 C 90 % 21.47 C
206 24-06-2016 17:05:00 23.1 C 91 % 21.55 C
207 24-06-2016 17:10:00 22.9 C 91 % 21.35 C
208 24-06-2016 17:15:00 22.8 C 92 % 21.43 C
209 24-06-2016 17:20:00 22.7 C 92 % 21.33 C
210 24-06-2016 17:25:00 22.7 C 93 % 21.51 C
211 24-06-2016 17:30:00 22.7 C 93 % 21.51 C
212 24-06-2016 17:35:00 22.7 C 93 % 21.51 C
213 24-06-2016 17:40:00 22.8 C 93 % 21.61 C
214 24-06-2016 17:45:00 22.9 C 94 % 21.88 C
215 24-06-2016 17:50:00 23.1 C 94 % 22.08 C
216 24-06-2016 17:55:00 23.3 C 95 % 22.45 C
217 24-06-2016 18:00:00 23.6 C 95 % 22.75 C
218 24-06-2016 18:05:00 23.3 C 92 % 21.93 C
219 24-06-2016 18:10:00 23.4 C 93 % 22.2 C
220 24-06-2016 18:15:00 23.6 C 93 % 22.4 C
221 24-06-2016 18:20:00 23.6 C 92 % 22.22 C
222 24-06-2016 18:25:00 23.4 C 90 % 21.66 C
223 24-06-2016 18:30:00 23.3 C 90 % 21.57 C
224 24-06-2016 18:35:00 23.3 C 90 % 21.57 C
225 24-06-2016 18:40:00 23.2 C 91 % 21.65 C
Sensor: Nr:Datum:Temp:Feuchte:Taupunkt:
Aussen-T/F 226 24-06-2016 18:45:00 23.2 C 92 % 21.83 C
227 24-06-2016 18:50:00 23.2 C 92 % 21.83 C
228 24-06-2016 18:55:00 23.2 C 93 % 22 C
229 24-06-2016 19:00:00 23.2 C 93 % 22 C
230 24-06-2016 19:05:00 23.1 C 93 % 21.9 C
231 24-06-2016 19:10:00 22.8 C 92 % 21.43 C
232 24-06-2016 19:15:00 22.8 C 93 % 21.61 C
233 24-06-2016 19:20:00 22.6 C 93 % 21.41 C
234 24-06-2016 19:25:00 22.6 C 93 % 21.41 C
235 24-06-2016 19:30:00 22.4 C 93 % 21.21 C
236 24-06-2016 19:35:00 22.4 C 94 % 21.39 C
237 24-06-2016 19:40:00 22.3 C 94 % 21.29 C
238 24-06-2016 19:45:00 22.3 C 94 % 21.29 C
239 24-06-2016 19:50:00 22.2 C 94 % 21.19 C
240 24-06-2016 19:55:00 22.1 C 94 % 21.09 C
241 24-06-2016 20:00:00 22 C 94 % 20.99 C
242 24-06-2016 20:05:00 21.9 C 94 % 20.89 C
243 24-06-2016 20:10:00 21.9 C 94 % 20.89 C
244 24-06-2016 20:15:00 21.9 C 94 % 20.89 C
245 24-06-2016 20:20:00 21.8 C 94 % 20.79 C
246 24-06-2016 20:25:00 21.8 C 94 % 20.79 C
247 24-06-2016 20:30:00 21.7 C 94 % 20.69 C
248 24-06-2016 20:35:00 21.7 C 94 % 20.69 C
249 24-06-2016 20:40:00 21.6 C 94 % 20.59 C
250 24-06-2016 20:45:00 21.5 C 94 % 20.49 C
Sensor: Nr:Datum:Temp:Feuchte:Taupunkt:
Aussen-T/F 251 24-06-2016 20:50:00 21.5 C 95 % 20.66 C
252 24-06-2016 20:55:00 21.6 C 95 % 20.76 C
253 24-06-2016 21:00:00 21.4 C 95 % 20.57 C
254 24-06-2016 21:05:00 21.3 C 95 % 20.47 C
255 24-06-2016 21:10:00 21.3 C 95 % 20.47 C
256 24-06-2016 21:15:00 21.2 C 95 % 20.37 C
257 24-06-2016 21:20:00 21.1 C 95 % 20.27 C
258 24-06-2016 21:25:00 21.1 C 95 % 20.27 C
259 24-06-2016 21:30:00 21 C 95 % 20.17 C
260 24-06-2016 21:35:00 20.9 C 95 % 20.07 C
261 24-06-2016 21:40:00 20.9 C 95 % 20.07 C
262 24-06-2016 21:45:00 20.8 C 95 % 19.97 C
263 24-06-2016 21:50:00 20.7 C 95 % 19.87 C
264 24-06-2016 21:55:00 20.7 C 95 % 19.87 C
265 24-06-2016 22:00:00 20.6 C 95 % 19.77 C
266 24-06-2016 22:05:00 20.5 C 95 % 19.67 C
267 24-06-2016 22:10:00 20.4 C 95 % 19.57 C
268 24-06-2016 22:15:00 20.3 C 95 % 19.47 C
269 24-06-2016 22:20:00 20.3 C 95 % 19.47 C
270 24-06-2016 22:25:00 20.2 C 95 % 19.37 C
271 24-06-2016 22:30:00 20.2 C 95 % 19.37 C
272 24-06-2016 22:35:00 20.2 C 96 % 19.54 C
273 24-06-2016 22:40:00 20.2 C 96 % 19.54 C
274 24-06-2016 22:45:00 20.2 C 96 % 19.54 C
275 24-06-2016 22:50:00 20.2 C 96 % 19.54 C
Sensor: Nr:Datum:Temp:Feuchte:Taupunkt:
Aussen-T/F 276 24-06-2016 22:55:00 20.2 C 96 % 19.54 C
277 24-06-2016 23:00:00 20.1 C 96 % 19.44 C
278 24-06-2016 23:05:00 20.1 C 96 % 19.44 C
279 24-06-2016 23:10:00 20 C 95 % 19.17 C
280 24-06-2016 23:15:00 19.9 C 96 % 19.24 C
281 24-06-2016 23:20:00 19.9 C 96 % 19.24 C
282 24-06-2016 23:25:00 19.9 C 96 % 19.24 C
283 24-06-2016 23:30:00 19.9 C 96 % 19.24 C
284 24-06-2016 23:35:00 19.9 C 96 % 19.24 C
285 24-06-2016 23:40:00 19.8 C 96 % 19.14 C
286 24-06-2016 23:45:00 19.8 C 96 % 19.14 C
287 24-06-2016 23:50:00 19.8 C 96 % 19.14 C
288 24-06-2016 23:55:00 19.8 C 96 % 19.14 C
289 25-06-2016 00:00:00 19.8 C 96 % 19.14 C
290 25-06-2016 00:05:00 19.8 C 96 % 19.14 C
291 25-06-2016 00:10:00 19.8 C 96 % 19.14 C
292 25-06-2016 00:15:00 19.7 C 96 % 19.04 C
293 25-06-2016 00:20:00 19.7 C 96 % 19.04 C
294 25-06-2016 00:25:00 19.6 C 96 % 18.94 C
295 25-06-2016 00:30:00 19.4 C 96 % 18.75 C
296 25-06-2016 00:35:00 19.3 C 96 % 18.65 C
297 25-06-2016 00:40:00 19.3 C 96 % 18.65 C
298 25-06-2016 00:45:00 19.3 C 96 % 18.65 C
299 25-06-2016 00:50:00 19.3 C 96 % 18.65 C
300 25-06-2016 00:55:00 19.3 C 96 % 18.65 C
Sensor: Nr:Datum:Temp:Feuchte:Taupunkt:
Aussen-T/F 301 25-06-2016 01:00:00 19.3 C 96 % 18.65 C
302 25-06-2016 01:05:00 19.3 C 96 % 18.65 C
303 25-06-2016 01:10:00 19.3 C 96 % 18.65 C
304 25-06-2016 01:15:00 19.2 C 96 % 18.55 C
305 25-06-2016 01:20:00 19.2 C 96 % 18.55 C
306 25-06-2016 01:25:00 19.2 C 96 % 18.55 C
307 25-06-2016 01:30:00 19.2 C 96 % 18.55 C
308 25-06-2016 01:35:00 19.1 C 96 % 18.45 C
309 25-06-2016 01:40:00 19.1 C 96 % 18.45 C
310 25-06-2016 01:45:00 19.1 C 96 % 18.45 C
311 25-06-2016 01:50:00 19.1 C 96 % 18.45 C
312 25-06-2016 01:55:00 19 C 96 % 18.35 C
313 25-06-2016 02:00:00 19 C 96 % 18.35 C
314 25-06-2016 02:05:00 19.1 C 96 % 18.45 C
315 25-06-2016 02:10:00 19.1 C 96 % 18.45 C
316 25-06-2016 02:15:00 19.1 C 96 % 18.45 C
317 25-06-2016 02:20:00 19.1 C 96 % 18.45 C
318 25-06-2016 02:25:00 19.1 C 96 % 18.45 C
319 25-06-2016 02:30:00 19.2 C 96 % 18.55 C
320 25-06-2016 02:35:00 19.2 C 96 % 18.55 C
321 25-06-2016 02:40:00 19.2 C 96 % 18.55 C
322 25-06-2016 02:45:00 19.2 C 96 % 18.55 C
323 25-06-2016 02:50:00 19.2 C 96 % 18.55 C
324 25-06-2016 02:55:00 19.2 C 96 % 18.55 C
325 25-06-2016 03:00:00 19.2 C 96 % 18.55 C
Sensor: Nr:Datum:Temp:Feuchte:Taupunkt:
Aussen-T/F 326 25-06-2016 03:05:00 19.2 C 96 % 18.55 C
327 25-06-2016 03:10:00 19.2 C 96 % 18.55 C
328 25-06-2016 03:15:00 19.2 C 96 % 18.55 C
329 25-06-2016 03:20:00 19.2 C 96 % 18.55 C
330 25-06-2016 03:25:00 19.2 C 96 % 18.55 C
331 25-06-2016 03:30:00 19.2 C 96 % 18.55 C
332 25-06-2016 03:35:00 19.2 C 96 % 18.55 C
333 25-06-2016 03:40:00 19.2 C 96 % 18.55 C
334 25-06-2016 03:45:00 19.2 C 96 % 18.55 C
335 25-06-2016 03:50:00 19.2 C 96 % 18.55 C
336 25-06-2016 03:55:00 19.2 C 96 % 18.55 C
337 25-06-2016 04:00:00 19.1 C 96 % 18.45 C
338 25-06-2016 04:05:00 19.1 C 96 % 18.45 C
339 25-06-2016 04:10:00 19.1 C 96 % 18.45 C
340 25-06-2016 04:15:00 19.1 C 96 % 18.45 C
341 25-06-2016 04:20:00 19.1 C 96 % 18.45 C
342 25-06-2016 04:25:00 19.1 C 96 % 18.45 C
343 25-06-2016 04:30:00 19.1 C 96 % 18.45 C
344 25-06-2016 04:35:00 19.1 C 96 % 18.45 C
345 25-06-2016 04:40:00 19 C 96 % 18.35 C
346 25-06-2016 04:45:00 19 C 96 % 18.35 C
347 25-06-2016 04:50:00 19 C 96 % 18.35 C
348 25-06-2016 04:55:00 19 C 96 % 18.35 C
349 25-06-2016 05:00:00 19 C 96 % 18.35 C
350 25-06-2016 05:05:00 19 C 96 % 18.35 C
Sensor: Nr:Datum:Temp:Feuchte:Taupunkt:
Aussen-T/F 351 25-06-2016 05:10:00 18.9 C 96 % 18.25 C
352 25-06-2016 05:15:00 18.9 C 96 % 18.25 C
353 25-06-2016 05:20:00 18.9 C 96 % 18.25 C
354 25-06-2016 05:25:00 18.9 C 96 % 18.25 C
355 25-06-2016 05:30:00 18.9 C 96 % 18.25 C
356 25-06-2016 05:35:00 18.9 C 96 % 18.25 C
357 25-06-2016 05:40:00 18.9 C 96 % 18.25 C
358 25-06-2016 05:45:00 18.9 C 96 % 18.25 C
359 25-06-2016 05:50:00 18.9 C 96 % 18.25 C
360 25-06-2016 05:55:00 18.9 C 96 % 18.25 C
361 25-06-2016 06:00:00 18.8 C 96 % 18.15 C
362 25-06-2016 06:05:00 18.8 C 96 % 18.15 C
363 25-06-2016 06:10:00 18.8 C 96 % 18.15 C
364 25-06-2016 06:15:00 18.7 C 96 % 18.05 C
365 25-06-2016 06:20:00 18.7 C 96 % 18.05 C
366 25-06-2016 06:25:00 18.7 C 96 % 18.05 C
367 25-06-2016 06:30:00 18.6 C 96 % 17.95 C
368 25-06-2016 06:35:00 18.6 C 96 % 17.95 C
369 25-06-2016 06:40:00 18.5 C 96 % 17.85 C
370 25-06-2016 06:45:00 18.5 C 96 % 17.85 C
371 25-06-2016 06:50:00 18.4 C 96 % 17.75 C
372 25-06-2016 06:55:00 18.4 C 96 % 17.75 C
373 25-06-2016 07:00:00 18.4 C 96 % 17.75 C
374 25-06-2016 07:05:00 18.4 C 96 % 17.75 C
375 25-06-2016 07:10:00 18.4 C 96 % 17.75 C
Sensor: Nr:Datum:Temp:Feuchte:Taupunkt:
Aussen-T/F 376 25-06-2016 07:15:00 18.4 C 96 % 17.75 C
377 25-06-2016 07:20:00 18.4 C 96 % 17.75 C
378 25-06-2016 07:25:00 18.4 C 97 % 17.91 C
379 25-06-2016 07:30:00 18.4 C 97 % 17.91 C
380 25-06-2016 07:35:00 18.4 C 97 % 17.91 C
381 25-06-2016 07:40:00 18.4 C 97 % 17.91 C
382 25-06-2016 07:45:00 18.3 C 96 % 17.65 C
383 25-06-2016 07:50:00 18.3 C 97 % 17.82 C
384 25-06-2016 07:55:00 18.3 C 97 % 17.82 C
385 25-06-2016 08:00:00 18.3 C 97 % 17.82 C
386 25-06-2016 08:05:00 18.3 C 97 % 17.82 C
387 25-06-2016 08:10:00 18.4 C 97 % 17.91 C
388 25-06-2016 08:15:00 18.4 C 97 % 17.91 C
389 25-06-2016 08:20:00 18.4 C 97 % 17.91 C
390 25-06-2016 08:25:00 18.4 C 97 % 17.91 C
391 25-06-2016 08:30:00 18.5 C 97 % 18.01 C
392 25-06-2016 08:35:00 18.6 C 97 % 18.11 C
393 25-06-2016 08:40:00 18.6 C 97 % 18.11 C
394 25-06-2016 08:45:00 18.3 C 97 % 17.82 C
395 25-06-2016 08:50:00 18.1 C 96 % 17.45 C
396 25-06-2016 08:55:00 17.9 C 96 % 17.25 C
397 25-06-2016 09:00:00 17.8 C 96 % 17.15 C
398 25-06-2016 09:05:00 17.7 C 96 % 17.05 C
399 25-06-2016 09:10:00 17.6 C 96 % 16.95 C
400 25-06-2016 09:15:00 17.6 C 96 % 16.95 C
Sensor: Nr:Datum:Temp:Feuchte:Taupunkt:
Aussen-T/F 401 25-06-2016 09:20:00 17.6 C 96 % 16.95 C
402 25-06-2016 09:25:00 17.6 C 96 % 16.95 C
403 25-06-2016 09:30:00 17.6 C 97 % 17.12 C
404 25-06-2016 09:35:00 17.7 C 97 % 17.22 C
405 25-06-2016 09:40:00 17.7 C 97 % 17.22 C
406 25-06-2016 09:45:00 17.7 C 97 % 17.22 C
407 25-06-2016 09:50:00 17.7 C 97 % 17.22 C
408 25-06-2016 09:55:00 17.7 C 96 % 17.05 C
409 25-06-2016 10:00:00 17.7 C 97 % 17.22 C
410 25-06-2016 10:05:00 17.7 C 96 % 17.05 C
411 25-06-2016 10:10:00 17.7 C 97 % 17.22 C
412 25-06-2016 10:15:00 17.8 C 97 % 17.32 C
413 25-06-2016 10:20:00 17.8 C 97 % 17.32 C
414 25-06-2016 10:25:00 17.8 C 96 % 17.15 C
415 25-06-2016 10:30:00 17.7 C 96 % 17.05 C
416 25-06-2016 10:35:00 17.6 C 96 % 16.95 C
417 25-06-2016 10:40:00 17.5 C 96 % 16.85 C
418 25-06-2016 10:45:00 17.4 C 96 % 16.76 C
419 25-06-2016 10:50:00 17.3 C 96 % 16.66 C
420 25-06-2016 10:55:00 17.2 C 96 % 16.56 C
421 25-06-2016 11:00:00 17.2 C 96 % 16.56 C
422 25-06-2016 11:05:00 17.1 C 96 % 16.46 C
423 25-06-2016 11:10:00 17.1 C 96 % 16.46 C
424 25-06-2016 11:15:00 17.1 C 96 % 16.46 C
425 25-06-2016 11:20:00 17 C 96 % 16.36 C
Sensor: Nr:Datum:Temp:Feuchte:Taupunkt:
Aussen-T/F 426 25-06-2016 11:25:00 17 C 96 % 16.36 C
427 25-06-2016 11:30:00 17.1 C 96 % 16.46 C
428 25-06-2016 11:35:00 17 C 96 % 16.36 C
429 25-06-2016 11:40:00 16.9 C 96 % 16.26 C
430 25-06-2016 11:45:00 16.9 C 96 % 16.26 C
431 25-06-2016 11:50:00 16.9 C 96 % 16.26 C
432 25-06-2016 11:55:00 16.9 C 96 % 16.26 C
433 25-06-2016 12:00:00 16.9 C 96 % 16.26 C
434 25-06-2016 12:05:00 16.9 C 96 % 16.26 C
435 25-06-2016 12:10:00 16.9 C 96 % 16.26 C
436 25-06-2016 12:15:00 16.8 C 96 % 16.16 C
437 25-06-2016 12:20:00 16.8 C 96 % 16.16 C
438 25-06-2016 12:25:00 16.6 C 96 % 15.96 C
439 25-06-2016 12:30:00 16.6 C 96 % 15.96 C
440 25-06-2016 12:35:00 16.6 C 96 % 15.96 C
441 25-06-2016 12:40:00 16.6 C 96 % 15.96 C
442 25-06-2016 12:45:00 16.5 C 96 % 15.86 C
443 25-06-2016 12:50:00 16.4 C 96 % 15.76 C
444 25-06-2016 12:55:00 16.4 C 96 % 15.76 C
445 25-06-2016 13:00:00 16.4 C 96 % 15.76 C
446 25-06-2016 13:05:00 16.3 C 96 % 15.66 C
447 25-06-2016 13:10:00 16.3 C 96 % 15.66 C
448 25-06-2016 13:15:00 16.3 C 96 % 15.66 C
449 25-06-2016 13:20:00 16.2 C 96 % 15.56 C
450 25-06-2016 13:25:00 16.1 C 95 % 15.3 C
Sensor: Nr:Datum:Temp:Feuchte:Taupunkt:
Aussen-T/F 451 25-06-2016 13:30:00 16.1 C 96 % 15.46 C
452 25-06-2016 13:35:00 16.2 C 96 % 15.56 C
453 25-06-2016 13:40:00 16.2 C 96 % 15.56 C
454 25-06-2016 13:45:00 16.2 C 96 % 15.56 C
455 25-06-2016 13:50:00 16.2 C 96 % 15.56 C
456 25-06-2016 13:55:00 16.1 C 96 % 15.46 C
457 25-06-2016 14:00:00 16.1 C 96 % 15.46 C
458 25-06-2016 14:05:00 16.1 C 96 % 15.46 C
459 25-06-2016 14:10:00 16.1 C 96 % 15.46 C
460 25-06-2016 14:15:00 16.1 C 96 % 15.46 C
461 25-06-2016 14:20:00 16 C 96 % 15.36 C
462 25-06-2016 14:25:00 15.9 C 96 % 15.26 C
463 25-06-2016 14:30:00 15.9 C 96 % 15.26 C
464 25-06-2016 14:35:00 15.9 C 96 % 15.26 C
465 25-06-2016 14:40:00 15.8 C 96 % 15.16 C
466 25-06-2016 14:45:00 15.8 C 96 % 15.16 C
467 25-06-2016 14:50:00 15.8 C 96 % 15.16 C
468 25-06-2016 14:55:00 15.8 C 96 % 15.16 C
469 25-06-2016 15:00:00 15.8 C 96 % 15.16 C
470 25-06-2016 15:05:00 15.8 C 96 % 15.16 C
471 25-06-2016 15:10:00 15.8 C 96 % 15.16 C
472 25-06-2016 15:15:00 15.8 C 96 % 15.16 C
473 25-06-2016 15:20:00 15.8 C 96 % 15.16 C
474 25-06-2016 15:25:00 15.8 C 96 % 15.16 C
475 25-06-2016 15:30:00 15.9 C 96 % 15.26 C
Sensor: Nr:Datum:Temp:Feuchte:Taupunkt:
Aussen-T/F 476 25-06-2016 15:35:00 15.8 C 96 % 15.16 C
477 25-06-2016 15:40:00 15.7 C 95 % 14.9 C
478 25-06-2016 15:45:00 15.8 C 96 % 15.16 C
479 25-06-2016 15:50:00 15.8 C 96 % 15.16 C
480 25-06-2016 15:55:00 15.7 C 95 % 14.9 C
481 25-06-2016 16:00:00 15.6 C 95 % 14.8 C
482 25-06-2016 16:05:00 15.7 C 96 % 15.06 C
483 25-06-2016 16:10:00 15.6 C 95 % 14.8 C
484 25-06-2016 16:15:00 15.6 C 96 % 14.96 C
485 25-06-2016 16:20:00 15.6 C 96 % 14.96 C
486 25-06-2016 16:25:00 15.5 C 95 % 14.7 C
487 25-06-2016 16:30:00 15.4 C 95 % 14.6 C
488 25-06-2016 16:35:00 15.4 C 96 % 14.77 C
489 25-06-2016 16:40:00 15.4 C 96 % 14.77 C
490 25-06-2016 16:45:00 15.4 C 96 % 14.77 C
491 25-06-2016 16:50:00 15.3 C 95 % 14.5 C
492 25-06-2016 16:55:00 15.3 C 95 % 14.5 C
493 25-06-2016 17:00:00 15.3 C 95 % 14.5 C
494 25-06-2016 17:05:00 15.2 C 95 % 14.4 C
495 25-06-2016 17:10:00 15.2 C 95 % 14.4 C
496 25-06-2016 17:15:00 15.3 C 96 % 14.67 C
497 25-06-2016 17:20:00 15.3 C 96 % 14.67 C
498 25-06-2016 17:25:00 15.4 C 96 % 14.77 C
499 25-06-2016 17:30:00 15.5 C 96 % 14.86 C
500 25-06-2016 17:35:00 15.6 C 96 % 14.96 C
Sensor: Nr:Datum:Temp:Feuchte:Taupunkt:
Aussen-T/F 501 25-06-2016 17:40:00 15.7 C 96 % 15.06 C
502 25-06-2016 17:45:00 15.7 C 96 % 15.06 C
503 25-06-2016 17:50:00 15.7 C 96 % 15.06 C
504 25-06-2016 17:55:00 15.6 C 95 % 14.8 C
505 25-06-2016 18:00:00 15.6 C 95 % 14.8 C
506 25-06-2016 18:05:00 15.7 C 95 % 14.9 C
507 25-06-2016 18:10:00 15.7 C 95 % 14.9 C
508 25-06-2016 18:15:00 15.8 C 95 % 15 C
509 25-06-2016 18:20:00 15.8 C 95 % 15 C
510 25-06-2016 18:25:00 15.8 C 95 % 15 C
511 25-06-2016 18:30:00 15.7 C 95 % 14.9 C
512 25-06-2016 18:35:00 15.6 C 95 % 14.8 C
513 25-06-2016 18:40:00 15.6 C 95 % 14.8 C
514 25-06-2016 18:45:00 15.6 C 95 % 14.8 C
515 25-06-2016 18:50:00 15.6 C 95 % 14.8 C
516 25-06-2016 18:55:00 15.6 C 95 % 14.8 C
517 25-06-2016 19:00:00 15.6 C 95 % 14.8 C
518 25-06-2016 19:05:00 15.6 C 95 % 14.8 C
519 25-06-2016 19:10:00 15.5 C 95 % 14.7 C
520 25-06-2016 19:15:00 15.4 C 95 % 14.6 C
521 25-06-2016 19:20:00 15.3 C 95 % 14.5 C
522 25-06-2016 19:25:00 15.2 C 95 % 14.4 C
523 25-06-2016 19:30:00 15.1 C 95 % 14.31 C
524 25-06-2016 19:35:00 15.1 C 95 % 14.31 C
525 25-06-2016 19:40:00 15.1 C 95 % 14.31 C
Sensor: Nr:Datum:Temp:Feuchte:Taupunkt:
Aussen-T/F 526 25-06-2016 19:45:00 15 C 95 % 14.21 C
527 25-06-2016 19:50:00 15 C 95 % 14.21 C
528 25-06-2016 19:55:00 14.9 C 95 % 14.11 C
529 25-06-2016 20:00:00 15 C 96 % 14.37 C
530 25-06-2016 20:05:00 15.1 C 96 % 14.47 C
531 25-06-2016 20:10:00 15.2 C 96 % 14.57 C
532 25-06-2016 20:15:00 15.1 C 96 % 14.47 C
533 25-06-2016 20:20:00 15.1 C 96 % 14.47 C
534 25-06-2016 20:25:00 15.2 C 96 % 14.57 C
535 25-06-2016 20:30:00 15.2 C 96 % 14.57 C
536 25-06-2016 20:35:00 15.1 C 96 % 14.47 C
537 25-06-2016 20:40:00 15.1 C 96 % 14.47 C
538 25-06-2016 20:45:00 15 C 96 % 14.37 C
539 25-06-2016 20:50:00 15.1 C 96 % 14.47 C
540 25-06-2016 20:55:00 15.1 C 96 % 14.47 C
541 25-06-2016 21:00:00 15 C 96 % 14.37 C
542 25-06-2016 21:05:00 14.9 C 96 % 14.27 C
543 25-06-2016 21:10:00 14.8 C 96 % 14.17 C
544 25-06-2016 21:15:00 14.6 C 95 % 13.81 C
545 25-06-2016 21:20:00 14.3 C 95 % 13.51 C
546 25-06-2016 21:25:00 14.2 C 95 % 13.41 C
547 25-06-2016 21:30:00 14.1 C 95 % 13.31 C
548 25-06-2016 21:35:00 13.9 C 95 % 13.11 C
549 25-06-2016 21:40:00 13.8 C 95 % 13.01 C
550 25-06-2016 21:45:00 13.8 C 95 % 13.01 C
Sensor: Nr:Datum:Temp:Feuchte:Taupunkt:
Aussen-T/F 551 25-06-2016 21:50:00 13.7 C 96 % 13.07 C
552 25-06-2016 21:55:00 13.6 C 96 % 12.97 C
553 25-06-2016 22:00:00 13.6 C 95 % 12.81 C
554 25-06-2016 22:05:00 13.5 C 96 % 12.87 C
555 25-06-2016 22:10:00 13.4 C 96 % 12.78 C
556 25-06-2016 22:15:00 13.4 C 96 % 12.78 C
557 25-06-2016 22:20:00 13.3 C 96 % 12.68 C
558 25-06-2016 22:25:00 13.2 C 96 % 12.58 C
559 25-06-2016 22:30:00 13.2 C 96 % 12.58 C
560 25-06-2016 22:35:00 13.2 C 96 % 12.58 C
561 25-06-2016 22:40:00 13.2 C 96 % 12.58 C
562 25-06-2016 22:45:00 13.2 C 96 % 12.58 C
563 25-06-2016 22:50:00 13.1 C 96 % 12.48 C
564 25-06-2016 22:55:00 13.1 C 96 % 12.48 C
565 25-06-2016 23:00:00 13 C 96 % 12.38 C
566 25-06-2016 23:05:00 12.9 C 96 % 12.28 C
567 25-06-2016 23:10:00 12.8 C 96 % 12.18 C
568 25-06-2016 23:15:00 12.8 C 96 % 12.18 C
569 25-06-2016 23:20:00 12.8 C 96 % 12.18 C
570 25-06-2016 23:25:00 12.8 C 96 % 12.18 C
571 25-06-2016 23:30:00 12.8 C 96 % 12.18 C
572 25-06-2016 23:35:00 12.7 C 96 % 12.08 C
573 25-06-2016 23:40:00 12.7 C 96 % 12.08 C
574 25-06-2016 23:45:00 12.7 C 96 % 12.08 C
575 25-06-2016 23:50:00 12.6 C 96 % 11.98 C
Sensor: Nr:Datum:Temp:Feuchte:Taupunkt:
Aussen-T/F 576 25-06-2016 23:55:00 12.6 C 96 % 11.98 C
577 26-06-2016 00:00:00 12.6 C 96 % 11.98 C
578 26-06-2016 00:05:00 12.6 C 96 % 11.98 C
579 26-06-2016 00:10:00 12.5 C 96 % 11.88 C
580 26-06-2016 00:15:00 12.5 C 97 % 12.04 C
581 26-06-2016 00:20:00 12.5 C 97 % 12.04 C
582 26-06-2016 00:25:00 12.5 C 97 % 12.04 C
583 26-06-2016 00:30:00 12.5 C 97 % 12.04 C
584 26-06-2016 00:35:00 12.5 C 97 % 12.04 C
585 26-06-2016 00:40:00 12.6 C 97 % 12.14 C
586 26-06-2016 00:45:00 12.7 C 97 % 12.24 C
587 26-06-2016 00:50:00 12.8 C 97 % 12.34 C
588 26-06-2016 00:55:00 12.9 C 97 % 12.44 C
589 26-06-2016 01:00:00 13.1 C 97 % 12.63 C
590 26-06-2016 01:05:00 13.2 C 97 % 12.73 C
591 26-06-2016 01:10:00 13.3 C 97 % 12.83 C
592 26-06-2016 01:15:00 13.4 C 97 % 12.93 C
593 26-06-2016 01:20:00 13.4 C 97 % 12.93 C
594 26-06-2016 01:25:00 13.4 C 97 % 12.93 C
595 26-06-2016 01:30:00 13.5 C 97 % 13.03 C
596 26-06-2016 01:35:00 13.5 C 97 % 13.03 C
597 26-06-2016 01:40:00 13.5 C 97 % 13.03 C
598 26-06-2016 01:45:00 13.4 C 97 % 12.93 C
599 26-06-2016 01:50:00 13.3 C 97 % 12.83 C
600 26-06-2016 01:55:00 13.3 C 97 % 12.83 C
Sensor: Nr:Datum:Temp:Feuchte:Taupunkt:
Aussen-T/F 601 26-06-2016 02:00:00 13.2 C 97 % 12.73 C
602 26-06-2016 02:05:00 13.1 C 97 % 12.63 C
603 26-06-2016 02:10:00 13.1 C 97 % 12.63 C
604 26-06-2016 02:15:00 13.1 C 97 % 12.63 C
605 26-06-2016 02:20:00 13.1 C 97 % 12.63 C
606 26-06-2016 02:25:00 13.1 C 97 % 12.63 C
607 26-06-2016 02:30:00 13.1 C 97 % 12.63 C
608 26-06-2016 02:35:00 13 C 97 % 12.54 C
609 26-06-2016 02:40:00 13 C 97 % 12.54 C
610 26-06-2016 02:45:00 13 C 97 % 12.54 C
611 26-06-2016 02:50:00 12.9 C 97 % 12.44 C
612 26-06-2016 02:55:00 12.9 C 97 % 12.44 C
613 26-06-2016 03:00:00 12.9 C 97 % 12.44 C
614 26-06-2016 03:05:00 12.9 C 97 % 12.44 C
615 26-06-2016 03:10:00 12.9 C 97 % 12.44 C
616 26-06-2016 03:15:00 12.8 C 97 % 12.34 C
617 26-06-2016 03:20:00 12.8 C 97 % 12.34 C
618 26-06-2016 03:25:00 12.8 C 97 % 12.34 C
619 26-06-2016 03:30:00 12.8 C 97 % 12.34 C
620 26-06-2016 03:35:00 12.7 C 97 % 12.24 C
621 26-06-2016 03:40:00 12.7 C 97 % 12.24 C
622 26-06-2016 03:45:00 12.6 C 97 % 12.14 C
623 26-06-2016 03:50:00 12.6 C 97 % 12.14 C
624 26-06-2016 03:55:00 12.5 C 97 % 12.04 C
625 26-06-2016 04:00:00 12.4 C 97 % 11.94 C
Sensor: Nr:Datum:Temp:Feuchte:Taupunkt:
Aussen-T/F 626 26-06-2016 04:05:00 12.4 C 97 % 11.94 C
627 26-06-2016 04:10:00 12.3 C 97 % 11.84 C
628 26-06-2016 04:15:00 12.3 C 97 % 11.84 C
629 26-06-2016 04:20:00 12.2 C 97 % 11.74 C
630 26-06-2016 04:25:00 12.2 C 97 % 11.74 C
631 26-06-2016 04:30:00 12.2 C 97 % 11.74 C
632 26-06-2016 04:35:00 12.1 C 97 % 11.64 C
633 26-06-2016 04:40:00 12.1 C 97 % 11.64 C
634 26-06-2016 04:45:00 12 C 97 % 11.54 C
635 26-06-2016 04:50:00 12 C 97 % 11.54 C
636 26-06-2016 04:55:00 11.9 C 97 % 11.44 C
637 26-06-2016 05:00:00 11.8 C 97 % 11.34 C
638 26-06-2016 05:05:00 11.7 C 97 % 11.24 C
639 26-06-2016 05:10:00 11.7 C 97 % 11.24 C
640 26-06-2016 05:15:00 11.6 C 97 % 11.14 C
641 26-06-2016 05:20:00 11.5 C 97 % 11.04 C
642 26-06-2016 05:25:00 11.3 C 97 % 10.84 C
643 26-06-2016 05:30:00 11.3 C 97 % 10.84 C
644 26-06-2016 05:35:00 11.2 C 97 % 10.74 C
645 26-06-2016 05:40:00 11.2 C 97 % 10.74 C
646 26-06-2016 05:45:00 11.2 C 97 % 10.74 C
647 26-06-2016 05:50:00 11.2 C 97 % 10.74 C
648 26-06-2016 05:55:00 11.2 C 97 % 10.74 C
649 26-06-2016 06:00:00 11.2 C 97 % 10.74 C
650 26-06-2016 06:05:00 11.3 C 97 % 10.84 C
Sensor: Nr:Datum:Temp:Feuchte:Taupunkt:
Aussen-T/F 651 26-06-2016 06:10:00 11.3 C 97 % 10.84 C
652 26-06-2016 06:15:00 11.3 C 97 % 10.84 C
653 26-06-2016 06:20:00 11.3 C 97 % 10.84 C
654 26-06-2016 06:25:00 11.4 C 97 % 10.94 C
655 26-06-2016 06:30:00 11.4 C 97 % 10.94 C
656 26-06-2016 06:35:00 11.5 C 97 % 11.04 C
657 26-06-2016 06:40:00 11.6 C 97 % 11.14 C
658 26-06-2016 06:45:00 11.6 C 97 % 11.14 C
659 26-06-2016 06:50:00 11.7 C 97 % 11.24 C
660 26-06-2016 06:55:00 11.7 C 97 % 11.24 C
661 26-06-2016 07:00:00 11.8 C 97 % 11.34 C
662 26-06-2016 07:05:00 11.8 C 97 % 11.34 C
663 26-06-2016 07:10:00 11.9 C 97 % 11.44 C
664 26-06-2016 07:15:00 12 C 98 % 11.69 C
665 26-06-2016 07:20:00 12.1 C 97 % 11.64 C
666 26-06-2016 07:25:00 12.2 C 97 % 11.74 C
667 26-06-2016 07:30:00 12.2 C 98 % 11.89 C
668 26-06-2016 07:35:00 12.3 C 98 % 11.99 C
669 26-06-2016 07:40:00 12.5 C 98 % 12.19 C
670 26-06-2016 07:45:00 12.8 C 98 % 12.49 C
671 26-06-2016 07:50:00 12.9 C 98 % 12.59 C
672 26-06-2016 07:55:00 13 C 98 % 12.69 C
673 26-06-2016 08:00:00 13 C 98 % 12.69 C
674 26-06-2016 08:05:00 13 C 98 % 12.69 C
675 26-06-2016 08:10:00 13 C 98 % 12.69 C
Sensor: Nr:Datum:Temp:Feuchte:Taupunkt:
Aussen-T/F 676 26-06-2016 08:15:00 13 C 97 % 12.54 C
677 26-06-2016 08:20:00 13.1 C 97 % 12.63 C
678 26-06-2016 08:25:00 13.1 C 97 % 12.63 C
679 26-06-2016 08:30:00 13.1 C 97 % 12.63 C
680 26-06-2016 08:35:00 13 C 97 % 12.54 C
681 26-06-2016 08:40:00 13 C 97 % 12.54 C
682 26-06-2016 08:45:00 13.1 C 97 % 12.63 C
683 26-06-2016 08:50:00 13.1 C 97 % 12.63 C
684 26-06-2016 08:55:00 13.2 C 97 % 12.73 C
685 26-06-2016 09:00:00 13.2 C 97 % 12.73 C
686 26-06-2016 09:05:00 13.3 C 97 % 12.83 C
687 26-06-2016 09:10:00 13.3 C 97 % 12.83 C
688 26-06-2016 09:15:00 13.5 C 97 % 13.03 C
689 26-06-2016 09:20:00 13.6 C 96 % 12.97 C
690 26-06-2016 09:25:00 13.8 C 96 % 13.17 C
691 26-06-2016 09:30:00 13.9 C 95 % 13.11 C
692 26-06-2016 09:35:00 14.2 C 94 % 13.25 C
693 26-06-2016 09:40:00 14.4 C 94 % 13.45 C
694 26-06-2016 09:45:00 14.6 C 93 % 13.48 C
695 26-06-2016 09:50:00 14.7 C 90 % 13.08 C
696 26-06-2016 09:55:00 14.9 C 90 % 13.28 C
697 26-06-2016 10:00:00 15.2 C 90 % 13.57 C
698 26-06-2016 10:05:00 15.4 C 88 % 13.42 C
699 26-06-2016 10:10:00 15.6 C 88 % 13.62 C
700 26-06-2016 10:15:00 15.8 C 88 % 13.82 C
Sensor: Nr:Datum:Temp:Feuchte:Taupunkt:
Aussen-T/F 701 26-06-2016 10:20:00 16 C 88 % 14.01 C
702 26-06-2016 10:25:00 16.3 C 86 % 13.95 C
703 26-06-2016 10:30:00 16.4 C 84 % 13.69 C
704 26-06-2016 10:35:00 16.4 C 83 % 13.51 C
705 26-06-2016 10:40:00 16.4 C 84 % 13.69 C
706 26-06-2016 10:45:00 16.6 C 81 % 13.33 C
707 26-06-2016 10:50:00 16.7 C 81 % 13.43 C
708 26-06-2016 10:55:00 16.8 C 79 % 13.14 C
709 26-06-2016 11:00:00 16.7 C 80 % 13.23 C
710 26-06-2016 11:05:00 16.8 C 80 % 13.33 C
711 26-06-2016 11:10:00 16.9 C 78 % 13.04 C
712 26-06-2016 11:15:00 17 C 79 % 13.33 C
713 26-06-2016 11:20:00 17 C 80 % 13.53 C
714 26-06-2016 11:25:00 17 C 78 % 13.14 C
715 26-06-2016 11:30:00 17 C 77 % 12.94 C
716 26-06-2016 11:35:00 17.1 C 76 % 12.84 C
717 26-06-2016 11:40:00 17.2 C 75 % 12.73 C
718 26-06-2016 11:45:00 17.3 C 76 % 13.03 C
719 26-06-2016 11:50:00 17.4 C 75 % 12.93 C
720 26-06-2016 11:55:00 17.5 C 73 % 12.61 C
721 26-06-2016 12:00:00 17.4 C 75 % 12.93 C
722 26-06-2016 12:05:00 17.4 C 73 % 12.51 C
723 26-06-2016 12:10:00 17.6 C 75 % 13.12 C
724 26-06-2016 12:15:00 17.7 C 73 % 12.8 C
725 26-06-2016 12:20:00 17.8 C 72 % 12.69 C
Sensor: Nr:Datum:Temp:Feuchte:Taupunkt:
Aussen-T/F 726 26-06-2016 12:25:00 18 C 71 % 12.67 C
727 26-06-2016 12:30:00 18 C 73 % 13.09 C
728 26-06-2016 12:35:00 18.1 C 72 % 12.98 C
729 26-06-2016 12:40:00 18.1 C 74 % 13.4 C
730 26-06-2016 12:45:00 18.1 C 73 % 13.19 C
731 26-06-2016 12:50:00 18.3 C 73 % 13.38 C
732 26-06-2016 12:55:00 18.4 C 72 % 13.26 C
733 26-06-2016 13:00:00 18.6 C 71 % 13.24 C
734 26-06-2016 13:05:00 18.8 C 68 % 12.77 C
735 26-06-2016 13:10:00 19.1 C 69 % 13.28 C
736 26-06-2016 13:15:00 19.1 C 68 % 13.06 C
737 26-06-2016 13:20:00 19.2 C 68 % 13.15 C
738 26-06-2016 13:25:00 19.4 C 65 % 12.66 C
739 26-06-2016 13:30:00 19.6 C 65 % 12.84 C
740 26-06-2016 13:35:00 19.6 C 67 % 13.31 C
741 26-06-2016 13:40:00 19.5 C 65 % 12.75 C
742 26-06-2016 13:45:00 19.6 C 67 % 13.31 C
743 26-06-2016 13:50:00 19.6 C 68 % 13.54 C
744 26-06-2016 13:55:00 19.7 C 67 % 13.4 C
745 26-06-2016 14:00:00 19.7 C 62 % 12.22 C
746 26-06-2016 14:05:00 19.6 C 65 % 12.84 C
747 26-06-2016 14:10:00 19.4 C 68 % 13.34 C
748 26-06-2016 14:15:00 19.4 C 72 % 14.22 C
749 26-06-2016 14:20:00 19.6 C 68 % 13.54 C
750 26-06-2016 14:25:00 19.7 C 67 % 13.4 C
Sensor: Nr:Datum:Temp:Feuchte:Taupunkt:
Aussen-T/F 751 26-06-2016 14:30:00 19.8 C 67 % 13.5 C
752 26-06-2016 14:35:00 19.9 C 70 % 14.27 C
753 26-06-2016 14:40:00 19.8 C 69 % 13.95 C
754 26-06-2016 14:45:00 19.9 C 65 % 13.13 C
755 26-06-2016 14:50:00 19.8 C 68 % 13.73 C
756 26-06-2016 14:55:00 19.8 C 69 % 13.95 C
757 26-06-2016 15:00:00 19.8 C 66 % 13.27 C
758 26-06-2016 15:05:00 19.8 C 66 % 13.27 C
759 26-06-2016 15:10:00 19.9 C 68 % 13.82 C
760 26-06-2016 15:15:00 19.9 C 68 % 13.82 C
761 26-06-2016 15:20:00 19.9 C 66 % 13.36 C
762 26-06-2016 15:25:00 19.8 C 69 % 13.95 C
763 26-06-2016 15:30:00 20.1 C 69 % 14.24 C
764 26-06-2016 15:35:00 20.6 C 66 % 14.03 C
765 26-06-2016 15:40:00 21.1 C 62 % 13.54 C
766 26-06-2016 15:45:00 21.4 C 62 % 13.82 C
767 26-06-2016 15:50:00 21.6 C 64 % 14.5 C
768 26-06-2016 15:55:00 21.9 C 62 % 14.29 C
769 26-06-2016 16:00:00 21.9 C 60 % 13.79 C
770 26-06-2016 16:05:00 21.4 C 59 % 13.06 C
771 26-06-2016 16:10:00 20.9 C 64 % 13.84 C
772 26-06-2016 16:15:00 20.5 C 63 % 13.22 C
773 26-06-2016 16:20:00 20.2 C 65 % 13.41 C
774 26-06-2016 16:25:00 20.1 C 64 % 13.08 C
775 26-06-2016 16:30:00 20.1 C 67 % 13.78 C
Sensor: Nr:Datum:Temp:Feuchte:Taupunkt:
Aussen-T/F 776 26-06-2016 16:35:00 20.2 C 69 % 14.33 C
777 26-06-2016 16:40:00 20.2 C 65 % 13.41 C
778 26-06-2016 16:45:00 20.4 C 68 % 14.3 C
779 26-06-2016 16:50:00 20.9 C 65 % 14.08 C
780 26-06-2016 16:55:00 21.3 C 62 % 13.73 C
781 26-06-2016 17:00:00 21.3 C 62 % 13.73 C
782 26-06-2016 17:05:00 20.9 C 60 % 12.85 C
783 26-06-2016 17:10:00 20.4 C 59 % 12.12 C
784 26-06-2016 17:15:00 19.7 C 63 % 12.46 C
785 26-06-2016 17:20:00 19.3 C 68 % 13.25 C
786 26-06-2016 17:25:00 19.1 C 66 % 12.6 C
787 26-06-2016 17:30:00 18.9 C 71 % 13.53 C
788 26-06-2016 17:35:00 18.7 C 68 % 12.68 C
789 26-06-2016 17:40:00 18.7 C 72 % 13.55 C
790 26-06-2016 17:45:00 18.7 C 72 % 13.55 C
791 26-06-2016 17:50:00 18.8 C 71 % 13.43 C
792 26-06-2016 17:55:00 18.8 C 69 % 13 C
793 26-06-2016 18:00:00 18.9 C 72 % 13.74 C
794 26-06-2016 18:05:00 18.9 C 69 % 13.09 C
795 26-06-2016 18:10:00 18.9 C 71 % 13.53 C
796 26-06-2016 18:15:00 18.8 C 69 % 13 C
797 26-06-2016 18:20:00 18.8 C 73 % 13.86 C
798 26-06-2016 18:25:00 18.7 C 75 % 14.18 C
799 26-06-2016 18:30:00 18.6 C 76 % 14.29 C
800 26-06-2016 18:35:00 18.6 C 77 % 14.49 C
Sensor: Nr:Datum:Temp:Feuchte:Taupunkt:
Aussen-T/F 801 26-06-2016 18:40:00 18.6 C 80 % 15.08 C
802 26-06-2016 18:45:00 18.6 C 78 % 14.69 C
803 26-06-2016 18:50:00 18.6 C 72 % 13.46 C
804 26-06-2016 18:55:00 18.1 C 71 % 12.76 C
805 26-06-2016 19:00:00 17.7 C 72 % 12.59 C
806 26-06-2016 19:05:00 17.4 C 74 % 12.72 C
807 26-06-2016 19:10:00 17.6 C 75 % 13.12 C
808 26-06-2016 19:15:00 17.8 C 75 % 13.31 C
809 26-06-2016 19:20:00 18.2 C 75 % 13.7 C
810 26-06-2016 19:25:00 18.3 C 75 % 13.79 C
811 26-06-2016 19:30:00 18.2 C 75 % 13.7 C
812 26-06-2016 19:35:00 18 C 75 % 13.51 C
813 26-06-2016 19:40:00 17.8 C 75 % 13.31 C
814 26-06-2016 19:45:00 17.7 C 76 % 13.42 C
815 26-06-2016 19:50:00 17.5 C 81 % 14.2 C
816 26-06-2016 19:55:00 17.3 C 83 % 14.39 C
817 26-06-2016 20:00:00 17.1 C 83 % 14.19 C
818 26-06-2016 20:05:00 16.8 C 84 % 14.08 C
819 26-06-2016 20:10:00 16.6 C 86 % 14.25 C
820 26-06-2016 20:15:00 16.4 C 86 % 14.05 C
821 26-06-2016 20:20:00 16.2 C 87 % 14.03 C
822 26-06-2016 20:25:00 16.1 C 88 % 14.11 C
823 26-06-2016 20:30:00 15.9 C 88 % 13.92 C
824 26-06-2016 20:35:00 15.7 C 88 % 13.72 C
825 26-06-2016 20:40:00 15.6 C 89 % 13.79 C
Sensor: Nr:Datum:Temp:Feuchte:Taupunkt:
Aussen-T/F 826 26-06-2016 20:45:00 15.4 C 89 % 13.6 C
827 26-06-2016 20:50:00 15.3 C 89 % 13.5 C
828 26-06-2016 20:55:00 15.2 C 90 % 13.57 C
829 26-06-2016 21:00:00 15.1 C 90 % 13.47 C
830 26-06-2016 21:05:00 15.1 C 91 % 13.64 C
831 26-06-2016 21:10:00 15 C 90 % 13.37 C
832 26-06-2016 21:15:00 15 C 91 % 13.54 C
833 26-06-2016 21:20:00 14.9 C 90 % 13.28 C
834 26-06-2016 21:25:00 14.8 C 90 % 13.18 C
835 26-06-2016 21:30:00 14.8 C 91 % 13.35 C
836 26-06-2016 21:35:00 14.7 C 91 % 13.25 C
837 26-06-2016 21:40:00 14.6 C 91 % 13.15 C
838 26-06-2016 21:45:00 14.5 C 91 % 13.05 C
839 26-06-2016 21:50:00 14.3 C 91 % 12.85 C
840 26-06-2016 21:55:00 14.2 C 91 % 12.75 C
841 26-06-2016 22:00:00 14 C 91 % 12.56 C
842 26-06-2016 22:05:00 13.8 C 91 % 12.36 C
843 26-06-2016 22:10:00 13.7 C 91 % 12.26 C
844 26-06-2016 22:15:00 13.5 C 92 % 12.23 C
845 26-06-2016 22:20:00 13.4 C 92 % 12.13 C
846 26-06-2016 22:25:00 13.3 C 92 % 12.03 C
847 26-06-2016 22:30:00 13.2 C 93 % 12.09 C
848 26-06-2016 22:35:00 13.1 C 93 % 11.99 C
849 26-06-2016 22:40:00 13 C 93 % 11.9 C
850 26-06-2016 22:45:00 12.9 C 94 % 11.96 C
Sensor: Nr:Datum:Temp:Feuchte:Taupunkt:
Aussen-T/F 851 26-06-2016 22:50:00 12.9 C 93 % 11.8 C
852 26-06-2016 22:55:00 12.8 C 94 % 11.86 C
853 26-06-2016 23:00:00 12.8 C 94 % 11.86 C
854 26-06-2016 23:05:00 12.8 C 94 % 11.86 C
855 26-06-2016 23:10:00 12.7 C 94 % 11.76 C
856 26-06-2016 23:15:00 12.7 C 94 % 11.76 C
857 26-06-2016 23:20:00 12.6 C 94 % 11.66 C
858 26-06-2016 23:25:00 12.6 C 94 % 11.66 C
859 26-06-2016 23:30:00 12.6 C 94 % 11.66 C
860 26-06-2016 23:35:00 12.6 C 95 % 11.82 C
861 26-06-2016 23:40:00 12.5 C 95 % 11.72 C
862 26-06-2016 23:45:00 12.5 C 95 % 11.72 C
863 26-06-2016 23:50:00 12.5 C 95 % 11.72 C
864 26-06-2016 23:55:00 12.5 C 95 % 11.72 C
865 27-06-2016 00:00:00 12.5 C 95 % 11.72 C
866 27-06-2016 00:05:00 12.4 C 95 % 11.62 C
867 27-06-2016 00:10:00 12.4 C 95 % 11.62 C
868 27-06-2016 00:15:00 12.4 C 95 % 11.62 C
869 27-06-2016 00:20:00 12.4 C 95 % 11.62 C
870 27-06-2016 00:25:00 12.4 C 95 % 11.62 C
871 27-06-2016 00:30:00 12.4 C 95 % 11.62 C
872 27-06-2016 00:35:00 12.3 C 95 % 11.52 C
873 27-06-2016 00:40:00 12.3 C 95 % 11.52 C
874 27-06-2016 00:45:00 12.2 C 95 % 11.42 C
875 27-06-2016 00:50:00 12.2 C 95 % 11.42 C
Sensor: Nr:Datum:Temp:Feuchte:Taupunkt:
Aussen-T/F 876 27-06-2016 00:55:00 12.2 C 95 % 11.42 C
877 27-06-2016 01:00:00 12.2 C 95 % 11.42 C
878 27-06-2016 01:05:00 12.2 C 95 % 11.42 C
879 27-06-2016 01:10:00 12.2 C 95 % 11.42 C
880 27-06-2016 01:15:00 12.2 C 95 % 11.42 C
881 27-06-2016 01:20:00 12.2 C 95 % 11.42 C
882 27-06-2016 01:25:00 12.2 C 95 % 11.42 C
883 27-06-2016 01:30:00 12.2 C 95 % 11.42 C
884 27-06-2016 01:35:00 12.2 C 96 % 11.58 C
885 27-06-2016 01:40:00 12.1 C 95 % 11.32 C
886 27-06-2016 01:45:00 12.1 C 95 % 11.32 C
887 27-06-2016 01:50:00 12 C 95 % 11.22 C
888 27-06-2016 01:55:00 12 C 95 % 11.22 C
889 27-06-2016 02:00:00 11.9 C 95 % 11.13 C
890 27-06-2016 02:05:00 11.9 C 95 % 11.13 C
891 27-06-2016 02:10:00 11.9 C 95 % 11.13 C
892 27-06-2016 02:15:00 11.9 C 96 % 11.28 C
893 27-06-2016 02:20:00 11.9 C 96 % 11.28 C
894 27-06-2016 02:25:00 11.9 C 96 % 11.28 C
895 27-06-2016 02:30:00 11.8 C 96 % 11.18 C
896 27-06-2016 02:35:00 11.8 C 95 % 11.03 C
897 27-06-2016 02:40:00 11.8 C 95 % 11.03 C
898 27-06-2016 02:45:00 11.9 C 96 % 11.28 C
899 27-06-2016 02:50:00 11.9 C 96 % 11.28 C
900 27-06-2016 02:55:00 11.9 C 96 % 11.28 C
Sensor: Nr:Datum:Temp:Feuchte:Taupunkt:
Aussen-T/F 901 27-06-2016 03:00:00 11.9 C 96 % 11.28 C
902 27-06-2016 03:05:00 12 C 96 % 11.38 C
903 27-06-2016 03:10:00 12.1 C 96 % 11.48 C
904 27-06-2016 03:15:00 12.1 C 96 % 11.48 C
905 27-06-2016 03:20:00 12.2 C 96 % 11.58 C
906 27-06-2016 03:25:00 12.3 C 96 % 11.68 C
907 27-06-2016 03:30:00 12.4 C 96 % 11.78 C
908 27-06-2016 03:35:00 12.4 C 96 % 11.78 C
909 27-06-2016 03:40:00 12.5 C 96 % 11.88 C
910 27-06-2016 03:45:00 12.5 C 96 % 11.88 C
911 27-06-2016 03:50:00 12.4 C 96 % 11.78 C
912 27-06-2016 03:55:00 12.3 C 96 % 11.68 C
913 27-06-2016 04:00:00 12.3 C 96 % 11.68 C
914 27-06-2016 04:05:00 12.3 C 96 % 11.68 C
915 27-06-2016 04:10:00 12.2 C 95 % 11.42 C
916 27-06-2016 04:15:00 12.2 C 96 % 11.58 C
917 27-06-2016 04:20:00 12.2 C 95 % 11.42 C
918 27-06-2016 04:25:00 12.1 C 95 % 11.32 C
919 27-06-2016 04:30:00 12.1 C 95 % 11.32 C
920 27-06-2016 04:35:00 12.1 C 96 % 11.48 C
921 27-06-2016 04:40:00 12.1 C 96 % 11.48 C
922 27-06-2016 04:45:00 12.2 C 96 % 11.58 C
923 27-06-2016 04:50:00 12.2 C 96 % 11.58 C
924 27-06-2016 04:55:00 12.2 C 96 % 11.58 C
925 27-06-2016 05:00:00 12.2 C 96 % 11.58 C
Sensor: Nr:Datum:Temp:Feuchte:Taupunkt:
Aussen-T/F 926 27-06-2016 05:05:00 12.2 C 96 % 11.58 C
927 27-06-2016 05:10:00 12.2 C 95 % 11.42 C
928 27-06-2016 05:15:00 12.1 C 95 % 11.32 C
929 27-06-2016 05:20:00 12.1 C 95 % 11.32 C
930 27-06-2016 05:25:00 12 C 95 % 11.22 C
931 27-06-2016 05:30:00 11.9 C 95 % 11.13 C
932 27-06-2016 05:35:00 11.9 C 95 % 11.13 C
933 27-06-2016 05:40:00 11.9 C 95 % 11.13 C
934 27-06-2016 05:45:00 11.8 C 95 % 11.03 C
935 27-06-2016 05:50:00 11.8 C 95 % 11.03 C
936 27-06-2016 05:55:00 11.8 C 95 % 11.03 C
937 27-06-2016 06:00:00 11.8 C 95 % 11.03 C
938 27-06-2016 06:05:00 11.7 C 95 % 10.93 C
939 27-06-2016 06:10:00 11.7 C 95 % 10.93 C
940 27-06-2016 06:15:00 11.7 C 95 % 10.93 C
941 27-06-2016 06:20:00 11.6 C 95 % 10.83 C
942 27-06-2016 06:25:00 11.5 C 95 % 10.73 C
943 27-06-2016 06:30:00 11.4 C 95 % 10.63 C
944 27-06-2016 06:35:00 11.4 C 95 % 10.63 C
945 27-06-2016 06:40:00 11.4 C 95 % 10.63 C
946 27-06-2016 06:45:00 11.4 C 95 % 10.63 C
947 27-06-2016 06:50:00 11.4 C 95 % 10.63 C
948 27-06-2016 06:55:00 11.4 C 95 % 10.63 C
949 27-06-2016 07:00:00 11.4 C 95 % 10.63 C
950 27-06-2016 07:05:00 11.4 C 95 % 10.63 C
Sensor: Nr:Datum:Temp:Feuchte:Taupunkt:
Aussen-T/F 951 27-06-2016 07:10:00 11.4 C 96 % 10.79 C
952 27-06-2016 07:15:00 11.4 C 96 % 10.79 C
953 27-06-2016 07:20:00 11.5 C 96 % 10.88 C
954 27-06-2016 07:25:00 11.5 C 96 % 10.88 C
955 27-06-2016 07:30:00 11.6 C 96 % 10.98 C
956 27-06-2016 07:35:00 11.7 C 96 % 11.08 C
957 27-06-2016 07:40:00 11.8 C 96 % 11.18 C
958 27-06-2016 07:45:00 12 C 96 % 11.38 C
959 27-06-2016 07:50:00 12.2 C 96 % 11.58 C
960 27-06-2016 07:55:00 12.3 C 96 % 11.68 C
961 27-06-2016 08:00:00 12.6 C 96 % 11.98 C
962 27-06-2016 08:05:00 12.7 C 96 % 12.08 C
963 27-06-2016 08:10:00 12.8 C 96 % 12.18 C
964 27-06-2016 08:15:00 13.1 C 96 % 12.48 C
965 27-06-2016 08:20:00 13.2 C 95 % 12.42 C
966 27-06-2016 08:25:00 13.4 C 95 % 12.62 C
967 27-06-2016 08:30:00 13.7 C 94 % 12.75 C
968 27-06-2016 08:35:00 13.8 C 92 % 12.52 C
969 27-06-2016 08:40:00 14.1 C 91 % 12.65 C
970 27-06-2016 08:45:00 14.3 C 91 % 12.85 C
971 27-06-2016 08:50:00 14.6 C 90 % 12.98 C
972 27-06-2016 08:55:00 14.7 C 88 % 12.73 C
973 27-06-2016 09:00:00 14.9 C 86 % 12.58 C
974 27-06-2016 09:05:00 15 C 85 % 12.5 C
975 27-06-2016 09:10:00 15.2 C 85 % 12.7 C
Sensor: Nr:Datum:Temp:Feuchte:Taupunkt:
Aussen-T/F 976 27-06-2016 09:15:00 15.4 C 85 % 12.89 C
977 27-06-2016 09:20:00 15.6 C 83 % 12.72 C
978 27-06-2016 09:25:00 15.8 C 82 % 12.74 C
979 27-06-2016 09:30:00 15.9 C 82 % 12.83 C
980 27-06-2016 09:35:00 16.1 C 82 % 13.03 C
981 27-06-2016 09:40:00 16.2 C 81 % 12.94 C
982 27-06-2016 09:45:00 16.2 C 81 % 12.94 C
983 27-06-2016 09:50:00 16.3 C 81 % 13.04 C
984 27-06-2016 09:55:00 16.3 C 80 % 12.85 C
985 27-06-2016 10:00:00 16.3 C 80 % 12.85 C
986 27-06-2016 10:05:00 16.3 C 80 % 12.85 C
987 27-06-2016 10:10:00 16.4 C 82 % 13.32 C
988 27-06-2016 10:15:00 16.6 C 80 % 13.14 C
989 27-06-2016 10:20:00 16.7 C 80 % 13.23 C
990 27-06-2016 10:25:00 16.8 C 79 % 13.14 C
991 27-06-2016 10:30:00 16.9 C 80 % 13.43 C
992 27-06-2016 10:35:00 17 C 80 % 13.53 C
993 27-06-2016 10:40:00 17.2 C 79 % 13.53 C
994 27-06-2016 10:45:00 17.3 C 79 % 13.63 C
995 27-06-2016 10:50:00 17.3 C 80 % 13.82 C
996 27-06-2016 10:55:00 17.4 C 80 % 13.92 C
997 27-06-2016 11:00:00 17.6 C 79 % 13.92 C
998 27-06-2016 11:05:00 17.7 C 78 % 13.82 C
999 27-06-2016 11:10:00 17.6 C 77 % 13.52 C
1000 27-06-2016 11:15:00 17.6 C 79 % 13.92 C
Sensor: Nr:Datum:Temp:Feuchte:Taupunkt:
Aussen-T/F 1001 27-06-2016 11:20:00 17.5 C 79 % 13.82 C
1002 27-06-2016 11:25:00 17.4 C 79 % 13.72 C
1003 27-06-2016 11:30:00 17.3 C 79 % 13.63 C
1004 27-06-2016 11:35:00 17.2 C 80 % 13.72 C
1005 27-06-2016 11:40:00 17 C 81 % 13.72 C
1006 27-06-2016 11:45:00 16.8 C 81 % 13.52 C
1007 27-06-2016 11:50:00 16.8 C 82 % 13.71 C
1008 27-06-2016 11:55:00 16.7 C 82 % 13.61 C
1009 27-06-2016 12:00:00 16.7 C 83 % 13.8 C
1010 27-06-2016 12:05:00 16.9 C 83 % 14 C
1011 27-06-2016 12:10:00 17.1 C 81 % 13.82 C
1012 27-06-2016 12:15:00 17.4 C 81 % 14.11 C
1013 27-06-2016 12:20:00 17.8 C 80 % 14.31 C
1014 27-06-2016 12:25:00 18 C 79 % 14.31 C
1015 27-06-2016 12:30:00 18.1 C 80 % 14.6 C
1016 27-06-2016 12:35:00 18.1 C 78 % 14.21 C
1017 27-06-2016 12:40:00 18 C 78 % 14.11 C
1018 27-06-2016 12:45:00 17.9 C 79 % 14.21 C
1019 27-06-2016 12:50:00 17.9 C 79 % 14.21 C
1020 27-06-2016 12:55:00 17.8 C 81 % 14.5 C
1021 27-06-2016 13:00:00 17.7 C 82 % 14.59 C
1022 27-06-2016 13:05:00 17.7 C 81 % 14.4 C
1023 27-06-2016 13:10:00 17.8 C 80 % 14.31 C
1024 27-06-2016 13:15:00 17.9 C 78 % 14.01 C
1025 27-06-2016 13:20:00 17.9 C 79 % 14.21 C
Sensor: Nr:Datum:Temp:Feuchte:Taupunkt:
Aussen-T/F 1026 27-06-2016 13:25:00 18.2 C 78 % 14.3 C
1027 27-06-2016 13:30:00 18.4 C 78 % 14.5 C
1028 27-06-2016 13:35:00 18.6 C 77 % 14.49 C
1029 27-06-2016 13:40:00 18.7 C 77 % 14.59 C
1030 27-06-2016 13:45:00 18.8 C 77 % 14.68 C
1031 27-06-2016 13:50:00 18.9 C 77 % 14.78 C
1032 27-06-2016 13:55:00 18.9 C 77 % 14.78 C
1033 27-06-2016 14:00:00 19.1 C 77 % 14.97 C
1034 27-06-2016 14:05:00 19.2 C 77 % 15.07 C
1035 27-06-2016 14:10:00 19.3 C 77 % 15.17 C
1036 27-06-2016 14:15:00 19.3 C 76 % 14.97 C
1037 27-06-2016 14:20:00 19.1 C 76 % 14.77 C
1038 27-06-2016 14:25:00 18.7 C 78 % 14.79 C
1039 27-06-2016 14:30:00 18.6 C 78 % 14.69 C
1040 27-06-2016 14:35:00 18.5 C 80 % 14.99 C
1041 27-06-2016 14:40:00 18.5 C 80 % 14.99 C
1042 27-06-2016 14:45:00 18.4 C 80 % 14.89 C
1043 27-06-2016 14:50:00 18.4 C 80 % 14.89 C
1044 27-06-2016 14:55:00 18.3 C 81 % 14.98 C
1045 27-06-2016 15:00:00 18.4 C 81 % 15.08 C
1046 27-06-2016 15:05:00 18.6 C 79 % 14.89 C
1047 27-06-2016 15:10:00 18.6 C 79 % 14.89 C
1048 27-06-2016 15:15:00 18.5 C 79 % 14.79 C
1049 27-06-2016 15:20:00 18.7 C 80 % 15.18 C
1050 27-06-2016 15:25:00 18.9 C 79 % 15.18 C
Sensor: Nr:Datum:Temp:Feuchte:Taupunkt:
Aussen-T/F 1051 27-06-2016 15:30:00 19.1 C 78 % 15.18 C
1052 27-06-2016 15:35:00 19.2 C 79 % 15.47 C
1053 27-06-2016 15:40:00 19.2 C 78 % 15.27 C
1054 27-06-2016 15:45:00 19.2 C 79 % 15.47 C
1055 27-06-2016 15:50:00 19.3 C 78 % 15.37 C
1056 27-06-2016 15:55:00 19.3 C 79 % 15.57 C
1057 27-06-2016 16:00:00 19.3 C 78 % 15.37 C
1058 27-06-2016 16:05:00 19.2 C 78 % 15.27 C
1059 27-06-2016 16:10:00 19.1 C 78 % 15.18 C
1060 27-06-2016 16:15:00 18.9 C 80 % 15.38 C
1061 27-06-2016 16:20:00 18.8 C 79 % 15.08 C
1062 27-06-2016 16:25:00 18.7 C 80 % 15.18 C
1063 27-06-2016 16:30:00 18.7 C 80 % 15.18 C
1064 27-06-2016 16:35:00 18.7 C 81 % 15.37 C
1065 27-06-2016 16:40:00 18.7 C 81 % 15.37 C
1066 27-06-2016 16:45:00 18.8 C 81 % 15.47 C
1067 27-06-2016 16:50:00 19.1 C 80 % 15.57 C
1068 27-06-2016 16:55:00 19.4 C 78 % 15.47 C
1069 27-06-2016 17:00:00 19.4 C 79 % 15.66 C
1070 27-06-2016 17:05:00 19.4 C 78 % 15.47 C
1071 27-06-2016 17:10:00 19.4 C 79 % 15.66 C
1072 27-06-2016 17:15:00 19.7 C 78 % 15.76 C
1073 27-06-2016 17:20:00 19.8 C 78 % 15.85 C
1074 27-06-2016 17:25:00 19.9 C 78 % 15.95 C
1075 27-06-2016 17:30:00 19.9 C 77 % 15.75 C
Sensor: Nr:Datum:Temp:Feuchte:Taupunkt:
Aussen-T/F 1076 27-06-2016 17:35:00 19.8 C 79 % 16.05 C
1077 27-06-2016 17:40:00 19.7 C 78 % 15.76 C
1078 27-06-2016 17:45:00 19.5 C 79 % 15.76 C
1079 27-06-2016 17:50:00 19.3 C 81 % 15.96 C
1080 27-06-2016 17:55:00 19.3 C 81 % 15.96 C
1081 27-06-2016 18:00:00 19.3 C 80 % 15.76 C
1082 27-06-2016 18:05:00 19.7 C 80 % 16.15 C
1083 27-06-2016 18:10:00 20.1 C 79 % 16.34 C
1084 27-06-2016 18:15:00 20.3 C 77 % 16.14 C
1085 27-06-2016 18:20:00 20.4 C 76 % 16.03 C
1086 27-06-2016 18:25:00 20.4 C 76 % 16.03 C
1087 27-06-2016 18:30:00 20.3 C 76 % 15.93 C
1088 27-06-2016 18:35:00 20.4 C 76 % 16.03 C
1089 27-06-2016 18:40:00 20.7 C 76 % 16.32 C
1090 27-06-2016 18:45:00 20.7 C 75 % 16.11 C
1091 27-06-2016 18:50:00 20.7 C 75 % 16.11 C
1092 27-06-2016 18:55:00 20.8 C 77 % 16.62 C
1093 27-06-2016 19:00:00 20.9 C 74 % 16.09 C
1094 27-06-2016 19:05:00 20.7 C 75 % 16.11 C
1095 27-06-2016 19:10:00 20.4 C 77 % 16.23 C
1096 27-06-2016 19:15:00 20.1 C 77 % 15.94 C
1097 27-06-2016 19:20:00 20 C 77 % 15.85 C
1098 27-06-2016 19:25:00 20.1 C 78 % 16.14 C
1099 27-06-2016 19:30:00 19.9 C 78 % 15.95 C
1100 27-06-2016 19:35:00 19.9 C 79 % 16.15 C
Sensor: Nr:Datum:Temp:Feuchte:Taupunkt:
Aussen-T/F 1101 27-06-2016 19:40:00 19.8 C 81 % 16.45 C
1102 27-06-2016 19:45:00 19.8 C 79 % 16.05 C
1103 27-06-2016 19:50:00 19.7 C 79 % 15.96 C
1104 27-06-2016 19:55:00 19.6 C 80 % 16.06 C
1105 27-06-2016 20:00:00 19.6 C 81 % 16.25 C
1106 27-06-2016 20:05:00 19.4 C 81 % 16.06 C
1107 27-06-2016 20:10:00 19.2 C 81 % 15.86 C
1108 27-06-2016 20:15:00 19.1 C 82 % 15.96 C
1109 27-06-2016 20:20:00 18.8 C 82 % 15.66 C
1110 27-06-2016 20:25:00 18.7 C 83 % 15.75 C
1111 27-06-2016 20:30:00 18.6 C 83 % 15.66 C
1112 27-06-2016 20:35:00 18.6 C 84 % 15.84 C
1113 27-06-2016 20:40:00 18.4 C 85 % 15.83 C
1114 27-06-2016 20:45:00 18.4 C 85 % 15.83 C
1115 27-06-2016 20:50:00 18.3 C 85 % 15.74 C
1116 27-06-2016 20:55:00 18.2 C 86 % 15.82 C
1117 27-06-2016 21:00:00 18.2 C 85 % 15.64 C
1118 27-06-2016 21:05:00 18.1 C 85 % 15.54 C
1119 27-06-2016 21:10:00 18 C 86 % 15.62 C
1120 27-06-2016 21:15:00 17.9 C 86 % 15.53 C
1121 27-06-2016 21:20:00 17.8 C 86 % 15.43 C
1122 27-06-2016 21:25:00 17.7 C 86 % 15.33 C
1123 27-06-2016 21:30:00 17.7 C 87 % 15.51 C
1124 27-06-2016 21:35:00 17.6 C 87 % 15.41 C
1125 27-06-2016 21:40:00 17.4 C 88 % 15.39 C
Sensor: Nr:Datum:Temp:Feuchte:Taupunkt:
Aussen-T/F 1126 27-06-2016 21:45:00 17.4 C 88 % 15.39 C
1127 27-06-2016 21:50:00 17.3 C 89 % 15.47 C
1128 27-06-2016 21:55:00 17.3 C 89 % 15.47 C
1129 27-06-2016 22:00:00 17.3 C 89 % 15.47 C
1130 27-06-2016 22:05:00 17.3 C 90 % 15.64 C
1131 27-06-2016 22:10:00 17.2 C 90 % 15.55 C
1132 27-06-2016 22:15:00 17.2 C 90 % 15.55 C
1133 27-06-2016 22:20:00 17.2 C 91 % 15.72 C
1134 27-06-2016 22:25:00 17.2 C 91 % 15.72 C
1135 27-06-2016 22:30:00 17.1 C 91 % 15.62 C
1136 27-06-2016 22:35:00 17.1 C 91 % 15.62 C
1137 27-06-2016 22:40:00 17.1 C 92 % 15.79 C
1138 27-06-2016 22:45:00 17 C 92 % 15.69 C
1139 27-06-2016 22:50:00 17 C 93 % 15.86 C
1140 27-06-2016 22:55:00 16.9 C 93 % 15.76 C
1141 27-06-2016 23:00:00 16.9 C 93 % 15.76 C
1142 27-06-2016 23:05:00 16.8 C 93 % 15.66 C
1143 27-06-2016 23:10:00 16.7 C 93 % 15.56 C
1144 27-06-2016 23:15:00 16.6 C 93 % 15.46 C
1145 27-06-2016 23:20:00 16.4 C 93 % 15.27 C
1146 27-06-2016 23:25:00 16.3 C 94 % 15.33 C
1147 27-06-2016 23:30:00 16.3 C 94 % 15.33 C
1148 27-06-2016 23:35:00 16.2 C 94 % 15.23 C
1149 27-06-2016 23:40:00 16.1 C 94 % 15.13 C
1150 27-06-2016 23:45:00 16 C 94 % 15.03 C
Sensor: Nr:Datum:Temp:Feuchte:Taupunkt:
Aussen-T/F 1151 27-06-2016 23:50:00 15.9 C 94 % 14.94 C
1152 27-06-2016 23:55:00 15.9 C 94 % 14.94 C
1153 28-06-2016 00:00:00 15.9 C 94 % 14.94 C
1154 28-06-2016 00:05:00 15.9 C 94 % 14.94 C
1155 28-06-2016 00:10:00 15.9 C 95 % 15.1 C
1156 28-06-2016 00:15:00 15.9 C 95 % 15.1 C
1157 28-06-2016 00:20:00 15.9 C 95 % 15.1 C
1158 28-06-2016 00:25:00 15.9 C 95 % 15.1 C
1159 28-06-2016 00:30:00 16 C 95 % 15.2 C
1160 28-06-2016 00:35:00 16 C 95 % 15.2 C
1161 28-06-2016 00:40:00 16 C 95 % 15.2 C
1162 28-06-2016 00:45:00 16.1 C 95 % 15.3 C
1163 28-06-2016 00:50:00 16.1 C 95 % 15.3 C
1164 28-06-2016 00:55:00 16 C 95 % 15.2 C
1165 28-06-2016 01:00:00 16 C 95 % 15.2 C
1166 28-06-2016 01:05:00 16 C 95 % 15.2 C
1167 28-06-2016 01:10:00 16 C 95 % 15.2 C
1168 28-06-2016 01:15:00 16 C 95 % 15.2 C
1169 28-06-2016 01:20:00 16 C 95 % 15.2 C
1170 28-06-2016 01:25:00 16 C 95 % 15.2 C
1171 28-06-2016 01:30:00 15.9 C 95 % 15.1 C
1172 28-06-2016 01:35:00 15.8 C 95 % 15 C
1173 28-06-2016 01:40:00 15.8 C 95 % 15 C
1174 28-06-2016 01:45:00 15.7 C 95 % 14.9 C
1175 28-06-2016 01:50:00 15.6 C 95 % 14.8 C
Sensor: Nr:Datum:Temp:Feuchte:Taupunkt:
Aussen-T/F 1176 28-06-2016 01:55:00 15.6 C 95 % 14.8 C
1177 28-06-2016 02:00:00 15.6 C 95 % 14.8 C
1178 28-06-2016 02:05:00 15.6 C 96 % 14.96 C
1179 28-06-2016 02:10:00 15.5 C 96 % 14.86 C
1180 28-06-2016 02:15:00 15.5 C 96 % 14.86 C
1181 28-06-2016 02:20:00 15.4 C 96 % 14.77 C
1182 28-06-2016 02:25:00 15.4 C 96 % 14.77 C
1183 28-06-2016 02:30:00 15.4 C 96 % 14.77 C
1184 28-06-2016 02:35:00 15.4 C 96 % 14.77 C
1185 28-06-2016 02:40:00 15.4 C 96 % 14.77 C
1186 28-06-2016 02:45:00 15.4 C 96 % 14.77 C
1187 28-06-2016 02:50:00 15.3 C 96 % 14.67 C
1188 28-06-2016 02:55:00 15.3 C 96 % 14.67 C
1189 28-06-2016 03:00:00 15.2 C 96 % 14.57 C
1190 28-06-2016 03:05:00 15.1 C 96 % 14.47 C
1191 28-06-2016 03:10:00 15.1 C 96 % 14.47 C
1192 28-06-2016 03:15:00 15 C 96 % 14.37 C
1193 28-06-2016 03:20:00 14.9 C 96 % 14.27 C
1194 28-06-2016 03:25:00 14.9 C 96 % 14.27 C
1195 28-06-2016 03:30:00 14.9 C 96 % 14.27 C
1196 28-06-2016 03:35:00 14.9 C 96 % 14.27 C
1197 28-06-2016 03:40:00 14.8 C 96 % 14.17 C
1198 28-06-2016 03:45:00 14.8 C 96 % 14.17 C
1199 28-06-2016 03:50:00 14.7 C 96 % 14.07 C
1200 28-06-2016 03:55:00 14.6 C 96 % 13.97 C
Sensor: Nr:Datum:Temp:Feuchte:Taupunkt:
Aussen-T/F 1201 28-06-2016 04:00:00 14.5 C 96 % 13.87 C
1202 28-06-2016 04:05:00 14.4 C 96 % 13.77 C
1203 28-06-2016 04:10:00 14.3 C 96 % 13.67 C
1204 28-06-2016 04:15:00 14.2 C 96 % 13.57 C
1205 28-06-2016 04:20:00 14.2 C 96 % 13.57 C
1206 28-06-2016 04:25:00 14.1 C 96 % 13.47 C
1207 28-06-2016 04:30:00 14.1 C 96 % 13.47 C
1208 28-06-2016 04:35:00 14 C 96 % 13.37 C
1209 28-06-2016 04:40:00 14 C 96 % 13.37 C
1210 28-06-2016 04:45:00 14.1 C 96 % 13.47 C
1211 28-06-2016 04:50:00 14.1 C 96 % 13.47 C
1212 28-06-2016 04:55:00 14.2 C 96 % 13.57 C
1213 28-06-2016 05:00:00 14.3 C 96 % 13.67 C
1214 28-06-2016 05:05:00 14.3 C 96 % 13.67 C
1215 28-06-2016 05:10:00 14.4 C 96 % 13.77 C
1216 28-06-2016 05:15:00 14.4 C 96 % 13.77 C
1217 28-06-2016 05:20:00 14.5 C 97 % 14.03 C
1218 28-06-2016 05:25:00 14.6 C 97 % 14.13 C
1219 28-06-2016 05:30:00 14.6 C 97 % 14.13 C
1220 28-06-2016 05:35:00 14.7 C 96 % 14.07 C
1221 28-06-2016 05:40:00 14.7 C 96 % 14.07 C
1222 28-06-2016 05:45:00 14.7 C 96 % 14.07 C
1223 28-06-2016 05:50:00 14.7 C 96 % 14.07 C
1224 28-06-2016 05:55:00 14.8 C 96 % 14.17 C
1225 28-06-2016 06:00:00 14.8 C 97 % 14.33 C
Sensor: Nr:Datum:Temp:Feuchte:Taupunkt:
Aussen-T/F 1226 28-06-2016 06:05:00 14.8 C 97 % 14.33 C
1227 28-06-2016 06:10:00 14.8 C 97 % 14.33 C
1228 28-06-2016 06:15:00 14.8 C 96 % 14.17 C
1229 28-06-2016 06:20:00 14.8 C 96 % 14.17 C
1230 28-06-2016 06:25:00 14.8 C 97 % 14.33 C
1231 28-06-2016 06:30:00 14.8 C 96 % 14.17 C
1232 28-06-2016 06:35:00 14.8 C 96 % 14.17 C
1233 28-06-2016 06:40:00 14.8 C 96 % 14.17 C
1234 28-06-2016 06:45:00 14.8 C 97 % 14.33 C
1235 28-06-2016 06:50:00 14.9 C 97 % 14.43 C
1236 28-06-2016 06:55:00 14.9 C 97 % 14.43 C
1237 28-06-2016 07:00:00 15 C 97 % 14.53 C
1238 28-06-2016 07:05:00 15.1 C 97 % 14.63 C
1239 28-06-2016 07:10:00 15.2 C 97 % 14.73 C
1240 28-06-2016 07:15:00 15.2 C 97 % 14.73 C
1241 28-06-2016 07:20:00 15.2 C 97 % 14.73 C
1242 28-06-2016 07:25:00 15.3 C 97 % 14.83 C
1243 28-06-2016 07:30:00 15.3 C 97 % 14.83 C
1244 28-06-2016 07:35:00 15.4 C 97 % 14.93 C
1245 28-06-2016 07:40:00 15.4 C 97 % 14.93 C
1246 28-06-2016 07:45:00 15.4 C 97 % 14.93 C
1247 28-06-2016 07:50:00 15.4 C 97 % 14.93 C
1248 28-06-2016 07:55:00 15.5 C 97 % 15.03 C
1249 28-06-2016 08:00:00 15.5 C 97 % 15.03 C
1250 28-06-2016 08:05:00 15.6 C 97 % 15.13 C
Sensor: Nr:Datum:Temp:Feuchte:Taupunkt:
Aussen-T/F 1251 28-06-2016 08:10:00 15.5 C 97 % 15.03 C
1252 28-06-2016 08:15:00 15.6 C 97 % 15.13 C
1253 28-06-2016 08:20:00 15.7 C 97 % 15.23 C
1254 28-06-2016 08:25:00 15.7 C 97 % 15.23 C
1255 28-06-2016 08:30:00 15.7 C 97 % 15.23 C
1256 28-06-2016 08:35:00 15.8 C 96 % 15.16 C
1257 28-06-2016 08:40:00 15.8 C 97 % 15.32 C
1258 28-06-2016 08:45:00 15.9 C 96 % 15.26 C
1259 28-06-2016 08:50:00 15.9 C 96 % 15.26 C
1260 28-06-2016 08:55:00 16 C 96 % 15.36 C
1261 28-06-2016 09:00:00 16.1 C 96 % 15.46 C
1262 28-06-2016 09:05:00 16.2 C 96 % 15.56 C
1263 28-06-2016 09:10:00 16.2 C 96 % 15.56 C
1264 28-06-2016 09:15:00 16.3 C 96 % 15.66 C
1265 28-06-2016 09:20:00 16.3 C 96 % 15.66 C
1266 28-06-2016 09:25:00 16.4 C 96 % 15.76 C
1267 28-06-2016 09:30:00 16.4 C 96 % 15.76 C
1268 28-06-2016 09:35:00 16.6 C 96 % 15.96 C
1269 28-06-2016 09:40:00 16.6 C 95 % 15.8 C
1270 28-06-2016 09:45:00 16.8 C 95 % 15.99 C
1271 28-06-2016 09:50:00 16.9 C 94 % 15.93 C
1272 28-06-2016 09:55:00 17 C 94 % 16.03 C
1273 28-06-2016 10:00:00 17.2 C 93 % 16.06 C
1274 28-06-2016 10:05:00 17.3 C 93 % 16.16 C
1275 28-06-2016 10:10:00 17.4 C 93 % 16.26 C
Sensor: Nr:Datum:Temp:Feuchte:Taupunkt:
Aussen-T/F 1276 28-06-2016 10:15:00 17.3 C 91 % 15.82 C
1277 28-06-2016 10:20:00 17.4 C 91 % 15.92 C
1278 28-06-2016 10:25:00 17.5 C 91 % 16.01 C
1279 28-06-2016 10:30:00 17.7 C 91 % 16.21 C
1280 28-06-2016 10:35:00 17.8 C 91 % 16.31 C
1281 28-06-2016 10:40:00 18 C 91 % 16.51 C
1282 28-06-2016 10:45:00 18.2 C 90 % 16.53 C
1283 28-06-2016 10:50:00 18.2 C 88 % 16.18 C
1284 28-06-2016 10:55:00 18.3 C 88 % 16.28 C
1285 28-06-2016 11:00:00 18.6 C 87 % 16.39 C
1286 28-06-2016 11:05:00 18.8 C 88 % 16.77 C
1287 28-06-2016 11:10:00 18.9 C 85 % 16.32 C
1288 28-06-2016 11:15:00 18.9 C 83 % 15.95 C
1289 28-06-2016 11:20:00 18.9 C 83 % 15.95 C
1290 28-06-2016 11:25:00 18.9 C 84 % 16.14 C
1291 28-06-2016 11:30:00 19 C 83 % 16.05 C
1292 28-06-2016 11:35:00 19.1 C 82 % 15.96 C
1293 28-06-2016 11:40:00 19.2 C 82 % 16.05 C
1294 28-06-2016 11:45:00 19.2 C 79 % 15.47 C
1295 28-06-2016 11:50:00 19.4 C 80 % 15.86 C
1296 28-06-2016 11:55:00 19.7 C 81 % 16.35 C
1297 28-06-2016 12:00:00 19.8 C 78 % 15.85 C
1298 28-06-2016 12:05:00 19.9 C 79 % 16.15 C
1299 28-06-2016 12:10:00 20.1 C 77 % 15.94 C
1300 28-06-2016 12:15:00 20.2 C 81 % 16.84 C
Sensor: Nr:Datum:Temp:Feuchte:Taupunkt:
Aussen-T/F 1301 28-06-2016 12:20:00 20.3 C 80 % 16.74 C
1302 28-06-2016 12:25:00 20.4 C 79 % 16.64 C
1303 28-06-2016 12:30:00 20.4 C 74 % 15.61 C
1304 28-06-2016 12:35:00 20.5 C 75 % 15.92 C
1305 28-06-2016 12:40:00 20.6 C 74 % 15.8 C
1306 28-06-2016 12:45:00 20.7 C 72 % 15.47 C
1307 28-06-2016 12:50:00 20.8 C 69 % 14.91 C
1308 28-06-2016 12:55:00 20.9 C 77 % 16.72 C
1309 28-06-2016 13:00:00 21 C 79 % 17.22 C
1310 28-06-2016 13:05:00 20.9 C 76 % 16.51 C
1311 28-06-2016 13:10:00 20.9 C 78 % 16.92 C
1312 28-06-2016 13:15:00 21 C 75 % 16.4 C
1313 28-06-2016 13:20:00 21.1 C 69 % 15.19 C
1314 28-06-2016 13:25:00 21.1 C 68 % 14.97 C
1315 28-06-2016 13:30:00 21.2 C 70 % 15.51 C
1316 28-06-2016 13:35:00 21.2 C 67 % 14.83 C
1317 28-06-2016 13:40:00 21.3 C 71 % 15.83 C
1318 28-06-2016 13:45:00 21.4 C 67 % 15.02 C
1319 28-06-2016 13:50:00 21.5 C 68 % 15.35 C
1320 28-06-2016 13:55:00 21.5 C 67 % 15.12 C
1321 28-06-2016 14:00:00 21.4 C 71 % 15.93 C
1322 28-06-2016 14:05:00 21.3 C 70 % 15.61 C
1323 28-06-2016 14:10:00 21.3 C 70 % 15.61 C
1324 28-06-2016 14:15:00 21.3 C 68 % 15.16 C
1325 28-06-2016 14:20:00 21.3 C 66 % 14.69 C
Sensor: Nr:Datum:Temp:Feuchte:Taupunkt:
Aussen-T/F 1326 28-06-2016 14:25:00 21.3 C 67 % 14.93 C
1327 28-06-2016 14:30:00 21.4 C 69 % 15.48 C
1328 28-06-2016 14:35:00 21.4 C 67 % 15.02 C
1329 28-06-2016 14:40:00 21.5 C 65 % 14.65 C
1330 28-06-2016 14:45:00 21.4 C 65 % 14.55 C
1331 28-06-2016 14:50:00 21.6 C 66 % 14.98 C
1332 28-06-2016 14:55:00 21.8 C 65 % 14.93 C
1333 28-06-2016 15:00:00 21.9 C 63 % 14.54 C
1334 28-06-2016 15:05:00 22.1 C 65 % 15.21 C
1335 28-06-2016 15:10:00 22.2 C 63 % 14.82 C
1336 28-06-2016 15:15:00 22.2 C 65 % 15.31 C
1337 28-06-2016 15:20:00 22.3 C 59 % 13.9 C
1338 28-06-2016 15:25:00 22.3 C 59 % 13.9 C
1339 28-06-2016 15:30:00 22.3 C 62 % 14.67 C
1340 28-06-2016 15:35:00 22.3 C 61 % 14.42 C
1341 28-06-2016 15:40:00 22.4 C 60 % 14.26 C
1342 28-06-2016 15:45:00 22.6 C 60 % 14.44 C
1343 28-06-2016 15:50:00 22.6 C 61 % 14.7 C
1344 28-06-2016 15:55:00 22.7 C 61 % 14.79 C
1345 28-06-2016 16:00:00 22.7 C 60 % 14.54 C
1346 28-06-2016 16:05:00 22.8 C 61 % 14.89 C
1347 28-06-2016 16:10:00 22.9 C 60 % 14.73 C
1348 28-06-2016 16:15:00 22.9 C 60 % 14.73 C
1349 28-06-2016 16:20:00 22.9 C 61 % 14.98 C
1350 28-06-2016 16:25:00 23.4 C 65 % 16.45 C
Sensor: Nr:Datum:Temp:Feuchte:Taupunkt:
Aussen-T/F 1351 28-06-2016 16:30:00 23.9 C 57 % 14.87 C
1352 28-06-2016 16:35:00 24.1 C 54 % 14.21 C
1353 28-06-2016 16:40:00 24 C 55 % 14.41 C
1354 28-06-2016 16:45:00 23.7 C 55 % 14.13 C
1355 28-06-2016 16:50:00 23.3 C 59 % 14.84 C
1356 28-06-2016 16:55:00 23.1 C 61 % 15.17 C
1357 28-06-2016 17:00:00 22.9 C 63 % 15.48 C
1358 28-06-2016 17:05:00 22.7 C 57 % 13.75 C
1359 28-06-2016 17:10:00 22.4 C 64 % 15.26 C
1360 28-06-2016 17:15:00 22.3 C 64 % 15.16 C
1361 28-06-2016 17:20:00 22.4 C 63 % 15.01 C
1362 28-06-2016 17:25:00 22.7 C 66 % 16.02 C
1363 28-06-2016 17:30:00 23.1 C 68 % 16.87 C
1364 28-06-2016 17:35:00 23.3 C 64 % 16.11 C
1365 28-06-2016 17:40:00 23.2 C 66 % 16.5 C
1366 28-06-2016 17:45:00 23.2 C 70 % 17.42 C
1367 28-06-2016 17:50:00 23.3 C 71 % 17.75 C
1368 28-06-2016 17:55:00 23.3 C 68 % 17.06 C
1369 28-06-2016 18:00:00 23.2 C 69 % 17.2 C
1370 28-06-2016 18:05:00 23.1 C 66 % 16.4 C
1371 28-06-2016 18:10:00 23.1 C 73 % 17.99 C
1372 28-06-2016 18:15:00 23 C 67 % 16.54 C
1373 28-06-2016 18:20:00 22.9 C 64 % 15.73 C
1374 28-06-2016 18:25:00 22.8 C 66 % 16.12 C
1375 28-06-2016 18:30:00 23.1 C 60 % 14.91 C
Sensor: Nr:Datum:Temp:Feuchte:Taupunkt:
Aussen-T/F 1376 28-06-2016 18:35:00 23.2 C 60 % 15.01 C
1377 28-06-2016 18:40:00 23.1 C 63 % 15.67 C
1378 28-06-2016 18:45:00 23 C 69 % 17.01 C
1379 28-06-2016 18:50:00 23.1 C 65 % 16.16 C
1380 28-06-2016 18:55:00 23.2 C 62 % 15.52 C
1381 28-06-2016 19:00:00 23.1 C 64 % 15.92 C
1382 28-06-2016 19:05:00 22.8 C 62 % 15.14 C
1383 28-06-2016 19:10:00 22.7 C 73 % 17.61 C
1384 28-06-2016 19:15:00 22.5 C 74 % 17.63 C
1385 28-06-2016 19:20:00 22.3 C 74 % 17.44 C
1386 28-06-2016 19:25:00 21.9 C 75 % 17.27 C
1387 28-06-2016 19:30:00 21.6 C 76 % 17.19 C
1388 28-06-2016 19:35:00 21.3 C 77 % 17.1 C
1389 28-06-2016 19:40:00 21.1 C 78 % 17.11 C
1390 28-06-2016 19:45:00 20.8 C 79 % 17.02 C
1391 28-06-2016 19:50:00 20.7 C 79 % 16.93 C
1392 28-06-2016 19:55:00 20.5 C 80 % 16.93 C
1393 28-06-2016 20:00:00 20.3 C 80 % 16.74 C
1394 28-06-2016 20:05:00 20.1 C 81 % 16.74 C
1395 28-06-2016 20:10:00 19.9 C 82 % 16.74 C
1396 28-06-2016 20:15:00 19.7 C 82 % 16.54 C
1397 28-06-2016 20:20:00 19.6 C 82 % 16.44 C
1398 28-06-2016 20:25:00 19.3 C 83 % 16.34 C
1399 28-06-2016 20:30:00 19.2 C 84 % 16.43 C
1400 28-06-2016 20:35:00 19.1 C 85 % 16.52 C
Sensor: Nr:Datum:Temp:Feuchte:Taupunkt:
Aussen-T/F 1401 28-06-2016 20:40:00 18.9 C 85 % 16.32 C
1402 28-06-2016 20:45:00 18.8 C 85 % 16.23 C
1403 28-06-2016 20:50:00 18.8 C 85 % 16.23 C
1404 28-06-2016 20:55:00 18.7 C 86 % 16.31 C
1405 28-06-2016 21:00:00 18.6 C 86 % 16.21 C
1406 28-06-2016 21:05:00 18.6 C 86 % 16.21 C
1407 28-06-2016 21:10:00 18.4 C 87 % 16.2 C
1408 28-06-2016 21:15:00 18.4 C 87 % 16.2 C
1409 28-06-2016 21:20:00 18.3 C 87 % 16.1 C
1410 28-06-2016 21:25:00 18.2 C 87 % 16 C
1411 28-06-2016 21:30:00 18.1 C 87 % 15.9 C
1412 28-06-2016 21:35:00 18 C 87 % 15.8 C
1413 28-06-2016 21:40:00 17.9 C 88 % 15.88 C
1414 28-06-2016 21:45:00 17.8 C 88 % 15.79 C
1415 28-06-2016 21:50:00 17.7 C 88 % 15.69 C
1416 28-06-2016 21:55:00 17.6 C 88 % 15.59 C
1417 28-06-2016 22:00:00 17.5 C 88 % 15.49 C
1418 28-06-2016 22:05:00 17.4 C 89 % 15.57 C
1419 28-06-2016 22:10:00 17.3 C 89 % 15.47 C
1420 28-06-2016 22:15:00 17.3 C 89 % 15.47 C
1421 28-06-2016 22:20:00 17.3 C 89 % 15.47 C
1422 28-06-2016 22:25:00 17.2 C 89 % 15.37 C
1423 28-06-2016 22:30:00 17.2 C 89 % 15.37 C
1424 28-06-2016 22:35:00 17.2 C 90 % 15.55 C
1425 28-06-2016 22:40:00 17.2 C 90 % 15.55 C
Sensor: Nr:Datum:Temp:Feuchte:Taupunkt:
Aussen-T/F 1426 28-06-2016 22:45:00 17.3 C 90 % 15.64 C
1427 28-06-2016 22:50:00 17.3 C 90 % 15.64 C
1428 28-06-2016 22:55:00 17.3 C 90 % 15.64 C
1429 28-06-2016 23:00:00 17.3 C 90 % 15.64 C
1430 28-06-2016 23:05:00 17.3 C 90 % 15.64 C
1431 28-06-2016 23:10:00 17.3 C 90 % 15.64 C
1432 28-06-2016 23:15:00 17.3 C 91 % 15.82 C
1433 28-06-2016 23:20:00 17.3 C 91 % 15.82 C
1434 28-06-2016 23:25:00 17.3 C 91 % 15.82 C
1435 28-06-2016 23:30:00 17.3 C 91 % 15.82 C
1436 28-06-2016 23:35:00 17.3 C 91 % 15.82 C
1437 28-06-2016 23:40:00 17.3 C 91 % 15.82 C
1438 28-06-2016 23:45:00 17.2 C 91 % 15.72 C
1439 28-06-2016 23:50:00 17.2 C 91 % 15.72 C
1440 28-06-2016 23:55:00 17.2 C 91 % 15.72 C
1441 29-06-2016 00:00:00 17.1 C 92 % 15.79 C
1442 29-06-2016 00:05:00 17.1 C 91 % 15.62 C
1443 29-06-2016 00:10:00 17.1 C 91 % 15.62 C
1444 29-06-2016 00:15:00 17 C 92 % 15.69 C
1445 29-06-2016 00:20:00 17 C 91 % 15.52 C
1446 29-06-2016 00:25:00 16.9 C 91 % 15.42 C
1447 29-06-2016 00:30:00 16.9 C 91 % 15.42 C
1448 29-06-2016 00:35:00 17 C 91 % 15.52 C
1449 29-06-2016 00:40:00 17 C 91 % 15.52 C
1450 29-06-2016 00:45:00 17.1 C 91 % 15.62 C
Sensor: Nr:Datum:Temp:Feuchte:Taupunkt:
Aussen-T/F 1451 29-06-2016 00:50:00 17.1 C 91 % 15.62 C
1452 29-06-2016 00:55:00 17.1 C 91 % 15.62 C
1453 29-06-2016 01:00:00 17.1 C 91 % 15.62 C
1454 29-06-2016 01:05:00 17.1 C 91 % 15.62 C
1455 29-06-2016 01:10:00 17.1 C 91 % 15.62 C
1456 29-06-2016 01:15:00 17 C 91 % 15.52 C
1457 29-06-2016 01:20:00 17 C 91 % 15.52 C
1458 29-06-2016 01:25:00 17 C 90 % 15.35 C
1459 29-06-2016 01:30:00 17 C 90 % 15.35 C
1460 29-06-2016 01:35:00 17.1 C 90 % 15.45 C
1461 29-06-2016 01:40:00 17.1 C 91 % 15.62 C
1462 29-06-2016 01:45:00 17.2 C 91 % 15.72 C
1463 29-06-2016 01:50:00 17.2 C 91 % 15.72 C
1464 29-06-2016 01:55:00 17.1 C 91 % 15.62 C
1465 29-06-2016 02:00:00 17.1 C 91 % 15.62 C
1466 29-06-2016 02:05:00 17.1 C 91 % 15.62 C
1467 29-06-2016 02:10:00 17 C 91 % 15.52 C
1468 29-06-2016 02:15:00 16.9 C 91 % 15.42 C
1469 29-06-2016 02:20:00 16.9 C 91 % 15.42 C
1470 29-06-2016 02:25:00 16.9 C 91 % 15.42 C
1471 29-06-2016 02:30:00 16.8 C 92 % 15.49 C
1472 29-06-2016 02:35:00 16.8 C 92 % 15.49 C
1473 29-06-2016 02:40:00 16.8 C 92 % 15.49 C
1474 29-06-2016 02:45:00 16.7 C 91 % 15.22 C
1475 29-06-2016 02:50:00 16.7 C 92 % 15.39 C
Sensor: Nr:Datum:Temp:Feuchte:Taupunkt:
Aussen-T/F 1476 29-06-2016 02:55:00 16.7 C 92 % 15.39 C
1477 29-06-2016 03:00:00 16.7 C 92 % 15.39 C
1478 29-06-2016 03:05:00 16.7 C 92 % 15.39 C
1479 29-06-2016 03:10:00 16.7 C 92 % 15.39 C
1480 29-06-2016 03:15:00 16.7 C 92 % 15.39 C
1481 29-06-2016 03:20:00 16.6 C 92 % 15.3 C
1482 29-06-2016 03:25:00 16.6 C 92 % 15.3 C
1483 29-06-2016 03:30:00 16.7 C 92 % 15.39 C
1484 29-06-2016 03:35:00 16.7 C 92 % 15.39 C
1485 29-06-2016 03:40:00 16.7 C 92 % 15.39 C
1486 29-06-2016 03:45:00 16.8 C 92 % 15.49 C
1487 29-06-2016 03:50:00 16.8 C 91 % 15.32 C
1488 29-06-2016 03:55:00 16.8 C 91 % 15.32 C
1489 29-06-2016 04:00:00 16.9 C 91 % 15.42 C
1490 29-06-2016 04:05:00 16.9 C 91 % 15.42 C
1491 29-06-2016 04:10:00 16.9 C 91 % 15.42 C
1492 29-06-2016 04:15:00 16.9 C 90 % 15.25 C
1493 29-06-2016 04:20:00 16.8 C 90 % 15.15 C
1494 29-06-2016 04:25:00 16.8 C 91 % 15.32 C
1495 29-06-2016 04:30:00 16.8 C 91 % 15.32 C
1496 29-06-2016 04:35:00 16.8 C 91 % 15.32 C
1497 29-06-2016 04:40:00 16.8 C 91 % 15.32 C
1498 29-06-2016 04:45:00 16.8 C 91 % 15.32 C
1499 29-06-2016 04:50:00 16.8 C 91 % 15.32 C
1500 29-06-2016 04:55:00 16.9 C 91 % 15.42 C
Sensor: Nr:Datum:Temp:Feuchte:Taupunkt:
Aussen-T/F 1501 29-06-2016 05:00:00 16.9 C 91 % 15.42 C
1502 29-06-2016 05:05:00 17 C 90 % 15.35 C
1503 29-06-2016 05:10:00 17.1 C 90 % 15.45 C
1504 29-06-2016 05:15:00 17.1 C 90 % 15.45 C
1505 29-06-2016 05:20:00 17.1 C 90 % 15.45 C
1506 29-06-2016 05:25:00 17.1 C 90 % 15.45 C
1507 29-06-2016 05:30:00 17.1 C 89 % 15.27 C
1508 29-06-2016 05:35:00 17.2 C 89 % 15.37 C
1509 29-06-2016 05:40:00 17.1 C 88 % 15.1 C
1510 29-06-2016 05:45:00 17.1 C 88 % 15.1 C
1511 29-06-2016 05:50:00 17.1 C 88 % 15.1 C
1512 29-06-2016 05:55:00 17.1 C 88 % 15.1 C
1513 29-06-2016 06:00:00 17.2 C 88 % 15.2 C
1514 29-06-2016 06:05:00 17.2 C 88 % 15.2 C
1515 29-06-2016 06:10:00 17.4 C 87 % 15.21 C
1516 29-06-2016 06:15:00 17.4 C 86 % 15.03 C
1517 29-06-2016 06:20:00 17.5 C 86 % 15.13 C
1518 29-06-2016 06:25:00 17.5 C 85 % 14.95 C
1519 29-06-2016 06:30:00 17.5 C 84 % 14.77 C
1520 29-06-2016 06:35:00 17.6 C 84 % 14.87 C
1521 29-06-2016 06:40:00 17.6 C 85 % 15.05 C
1522 29-06-2016 06:45:00 17.7 C 85 % 15.15 C
1523 29-06-2016 06:50:00 17.7 C 84 % 14.96 C
1524 29-06-2016 06:55:00 17.7 C 84 % 14.96 C
1525 29-06-2016 07:00:00 17.7 C 83 % 14.78 C
Sensor: Nr:Datum:Temp:Feuchte:Taupunkt:
Aussen-T/F 1526 29-06-2016 07:05:00 17.7 C 84 % 14.96 C
1527 29-06-2016 07:10:00 17.7 C 84 % 14.96 C
1528 29-06-2016 07:15:00 17.8 C 84 % 15.06 C
1529 29-06-2016 07:20:00 17.8 C 84 % 15.06 C
1530 29-06-2016 07:25:00 17.8 C 84 % 15.06 C
1531 29-06-2016 07:30:00 17.8 C 84 % 15.06 C
1532 29-06-2016 07:35:00 17.9 C 83 % 14.97 C
1533 29-06-2016 07:40:00 17.9 C 83 % 14.97 C
1534 29-06-2016 07:45:00 18.1 C 84 % 15.35 C
1535 29-06-2016 07:50:00 18.1 C 83 % 15.17 C
1536 29-06-2016 07:55:00 17.9 C 83 % 14.97 C
1537 29-06-2016 08:00:00 17.9 C 83 % 14.97 C
1538 29-06-2016 08:05:00 17.9 C 83 % 14.97 C
1539 29-06-2016 08:10:00 17.9 C 83 % 14.97 C
1540 29-06-2016 08:15:00 18.1 C 84 % 15.35 C
1541 29-06-2016 08:20:00 18.1 C 84 % 15.35 C
1542 29-06-2016 08:25:00 18.2 C 83 % 15.27 C
1543 29-06-2016 08:30:00 18.4 C 80 % 14.89 C
1544 29-06-2016 08:35:00 18.6 C 81 % 15.28 C
1545 29-06-2016 08:40:00 18.6 C 80 % 15.08 C
1546 29-06-2016 08:45:00 18.7 C 78 % 14.79 C
1547 29-06-2016 08:50:00 18.8 C 79 % 15.08 C
1548 29-06-2016 08:55:00 18.7 C 75 % 14.18 C
1549 29-06-2016 09:00:00 18.6 C 75 % 14.08 C
1550 29-06-2016 09:05:00 18.6 C 75 % 14.08 C
Sensor: Nr:Datum:Temp:Feuchte:Taupunkt:
Aussen-T/F 1551 29-06-2016 09:10:00 18.8 C 74 % 14.07 C
1552 29-06-2016 09:15:00 18.8 C 73 % 13.86 C
1553 29-06-2016 09:20:00 18.8 C 72 % 13.65 C
1554 29-06-2016 09:25:00 19 C 74 % 14.26 C
1555 29-06-2016 09:30:00 19.2 C 74 % 14.46 C
1556 29-06-2016 09:35:00 19.4 C 74 % 14.65 C
1557 29-06-2016 09:40:00 19.6 C 72 % 14.42 C
1558 29-06-2016 09:45:00 19.5 C 69 % 13.66 C
1559 29-06-2016 09:50:00 19.4 C 68 % 13.34 C
1560 29-06-2016 09:55:00 19.3 C 68 % 13.25 C
1561 29-06-2016 10:00:00 19.2 C 70 % 13.6 C
1562 29-06-2016 10:05:00 19.2 C 69 % 13.38 C
1563 29-06-2016 10:10:00 19.2 C 70 % 13.6 C
1564 29-06-2016 10:15:00 19.2 C 65 % 12.47 C
1565 29-06-2016 10:20:00 19.3 C 67 % 13.02 C
1566 29-06-2016 10:25:00 19.6 C 65 % 12.84 C
1567 29-06-2016 10:30:00 19.8 C 67 % 13.5 C
1568 29-06-2016 10:35:00 19.9 C 67 % 13.59 C
1569 29-06-2016 10:40:00 19.8 C 69 % 13.95 C
1570 29-06-2016 10:45:00 19.8 C 69 % 13.95 C
1571 29-06-2016 10:50:00 19.9 C 72 % 14.7 C
1572 29-06-2016 10:55:00 20 C 68 % 13.92 C
1573 29-06-2016 11:00:00 20.1 C 68 % 14.01 C
1574 29-06-2016 11:05:00 20.1 C 67 % 13.78 C
1575 29-06-2016 11:10:00 20.1 C 65 % 13.32 C
Sensor: Nr:Datum:Temp:Feuchte:Taupunkt:
Aussen-T/F 1576 29-06-2016 11:15:00 20.1 C 65 % 13.32 C
1577 29-06-2016 11:20:00 20.1 C 63 % 12.84 C
1578 29-06-2016 11:25:00 20.2 C 64 % 13.18 C
1579 29-06-2016 11:30:00 20.3 C 61 % 12.54 C
1580 29-06-2016 11:35:00 20.2 C 56 % 11.15 C
1581 29-06-2016 11:40:00 20.2 C 54 % 10.6 C
1582 29-06-2016 11:45:00 20.2 C 60 % 12.19 C
1583 29-06-2016 11:50:00 20.2 C 63 % 12.94 C
1584 29-06-2016 11:55:00 20.2 C 60 % 12.19 C
1585 29-06-2016 12:00:00 20.1 C 62 % 12.6 C
1586 29-06-2016 12:05:00 20.1 C 65 % 13.32 C
1587 29-06-2016 12:10:00 20.1 C 59 % 11.84 C
1588 29-06-2016 12:15:00 20.1 C 60 % 12.1 C
1589 29-06-2016 12:20:00 20.1 C 58 % 11.58 C
1590 29-06-2016 12:25:00 20.1 C 58 % 11.58 C
1591 29-06-2016 12:30:00 20.2 C 59 % 11.94 C
1592 29-06-2016 12:35:00 20.2 C 60 % 12.19 C
1593 29-06-2016 12:40:00 20.4 C 61 % 12.63 C
1594 29-06-2016 12:45:00 20.5 C 60 % 12.47 C
1595 29-06-2016 12:50:00 20.7 C 65 % 13.89 C
1596 29-06-2016 12:55:00 20.7 C 58 % 12.15 C
1597 29-06-2016 13:00:00 20.7 C 59 % 12.41 C
1598 29-06-2016 13:05:00 20.6 C 58 % 12.05 C
1599 29-06-2016 13:10:00 20.6 C 58 % 12.05 C
1600 29-06-2016 13:15:00 20.6 C 58 % 12.05 C
Sensor: Nr:Datum:Temp:Feuchte:Taupunkt:
Aussen-T/F 1601 29-06-2016 13:20:00 20.7 C 56 % 11.61 C
1602 29-06-2016 13:25:00 20.7 C 56 % 11.61 C
1603 29-06-2016 13:30:00 20.6 C 54 % 10.97 C
1604 29-06-2016 13:35:00 20.6 C 51 % 10.12 C
1605 29-06-2016 13:40:00 20.7 C 56 % 11.61 C
1606 29-06-2016 13:45:00 20.8 C 54 % 11.16 C
1607 29-06-2016 13:50:00 20.9 C 49 % 9.79 C
1608 29-06-2016 13:55:00 21.2 C 53 % 11.25 C
1609 29-06-2016 14:00:00 21.3 C 53 % 11.34 C
1610 29-06-2016 14:05:00 21.4 C 59 % 13.06 C
1611 29-06-2016 14:10:00 21.4 C 55 % 11.99 C
1612 29-06-2016 14:15:00 21.4 C 61 % 13.57 C
1613 29-06-2016 14:20:00 21.3 C 58 % 12.71 C
1614 29-06-2016 14:25:00 21.3 C 57 % 12.44 C
1615 29-06-2016 14:30:00 21.3 C 57 % 12.44 C
1616 29-06-2016 14:35:00 21.3 C 59 % 12.97 C
1617 29-06-2016 14:40:00 21.6 C 58 % 12.99 C
1618 29-06-2016 14:45:00 21.8 C 54 % 12.08 C
1619 29-06-2016 14:50:00 22.1 C 55 % 12.64 C
1620 29-06-2016 14:55:00 22.3 C 51 % 11.68 C
1621 29-06-2016 15:00:00 22.4 C 50 % 11.47 C
1622 29-06-2016 15:05:00 22.7 C 52 % 12.34 C
1623 29-06-2016 15:10:00 22.8 C 53 % 12.73 C
1624 29-06-2016 15:15:00 22.9 C 54 % 13.1 C
1625 29-06-2016 15:20:00 22.9 C 50 % 11.93 C
Sensor: Nr:Datum:Temp:Feuchte:Taupunkt:
Aussen-T/F 1626 29-06-2016 15:25:00 22.9 C 54 % 13.1 C
1627 29-06-2016 15:30:00 23.1 C 51 % 12.42 C
1628 29-06-2016 15:35:00 23.3 C 55 % 13.76 C
1629 29-06-2016 15:40:00 23.4 C 48 % 11.77 C
1630 29-06-2016 15:45:00 23.4 C 49 % 12.08 C
1631 29-06-2016 15:50:00 23.3 C 49 % 11.99 C
1632 29-06-2016 15:55:00 22.9 C 54 % 13.1 C
1633 29-06-2016 16:00:00 22.7 C 50 % 11.75 C
1634 29-06-2016 16:05:00 22.5 C 52 % 12.16 C
1635 29-06-2016 16:10:00 22.4 C 52 % 12.07 C
1636 29-06-2016 16:15:00 22.3 C 56 % 13.1 C
1637 29-06-2016 16:20:00 22.3 C 52 % 11.97 C
1638 29-06-2016 16:25:00 22.3 C 52 % 11.97 C
1639 29-06-2016 16:30:00 22.6 C 51 % 11.96 C
1640 29-06-2016 16:35:00 22.9 C 53 % 12.82 C
1641 29-06-2016 16:40:00 23.2 C 44 % 10.28 C
1642 29-06-2016 16:45:00 23.3 C 45 % 10.71 C
1643 29-06-2016 16:50:00 23.2 C 55 % 13.66 C
1644 29-06-2016 16:55:00 23.2 C 51 % 12.51 C
1645 29-06-2016 17:00:00 23.2 C 52 % 12.8 C
1646 29-06-2016 17:05:00 23.2 C 55 % 13.66 C
1647 29-06-2016 17:10:00 23.1 C 53 % 13 C
1648 29-06-2016 17:15:00 22.8 C 48 % 11.22 C
1649 29-06-2016 17:20:00 22.8 C 56 % 13.57 C
1650 29-06-2016 17:25:00 22.9 C 53 % 12.82 C
Sensor: Nr:Datum:Temp:Feuchte:Taupunkt:
Aussen-T/F 1651 29-06-2016 17:30:00 23.2 C 54 % 13.38 C
1652 29-06-2016 17:35:00 23.6 C 49 % 12.27 C
1653 29-06-2016 17:40:00 24.1 C 48 % 12.41 C
1654 29-06-2016 17:45:00 24.1 C 57 % 15.05 C
1655 29-06-2016 17:50:00 24.3 C 49 % 12.91 C
1656 29-06-2016 17:55:00 24.3 C 48 % 12.59 C
1657 29-06-2016 18:00:00 24.1 C 48 % 12.41 C
1658 29-06-2016 18:05:00 24.1 C 57 % 15.05 C
1659 29-06-2016 18:10:00 23.8 C 53 % 13.65 C
1660 29-06-2016 18:15:00 23.6 C 61 % 15.64 C
1661 29-06-2016 18:20:00 23.4 C 62 % 15.71 C
1662 29-06-2016 18:25:00 23.2 C 61 % 15.26 C
1663 29-06-2016 18:30:00 23 C 60 % 14.82 C
1664 29-06-2016 18:35:00 22.8 C 66 % 16.12 C
1665 29-06-2016 18:40:00 22.5 C 67 % 16.07 C
1666 29-06-2016 18:45:00 22.2 C 67 % 15.78 C
1667 29-06-2016 18:50:00 21.9 C 68 % 15.73 C
1668 29-06-2016 18:55:00 21.6 C 69 % 15.67 C
1669 29-06-2016 19:00:00 21.3 C 70 % 15.61 C
1670 29-06-2016 19:05:00 21.1 C 71 % 15.64 C
1671 29-06-2016 19:10:00 20.8 C 71 % 15.35 C
1672 29-06-2016 19:15:00 20.6 C 72 % 15.38 C
1673 29-06-2016 19:20:00 20.3 C 72 % 15.09 C
1674 29-06-2016 19:25:00 20.1 C 72 % 14.9 C
1675 29-06-2016 19:30:00 19.9 C 74 % 15.13 C
Sensor: Nr:Datum:Temp:Feuchte:Taupunkt:
Aussen-T/F 1676 29-06-2016 19:35:00 19.8 C 74 % 15.03 C
1677 29-06-2016 19:40:00 19.6 C 75 % 15.05 C
1678 29-06-2016 19:45:00 19.4 C 76 % 15.06 C
1679 29-06-2016 19:50:00 19.3 C 76 % 14.97 C
1680 29-06-2016 19:55:00 19.1 C 76 % 14.77 C
1681 29-06-2016 20:00:00 19 C 76 % 14.68 C
1682 29-06-2016 20:05:00 18.9 C 78 % 14.98 C
1683 29-06-2016 20:10:00 18.8 C 77 % 14.68 C
1684 29-06-2016 20:15:00 18.7 C 78 % 14.79 C
1685 29-06-2016 20:20:00 18.7 C 78 % 14.79 C
1686 29-06-2016 20:25:00 18.6 C 79 % 14.89 C
1687 29-06-2016 20:30:00 18.4 C 79 % 14.69 C
1688 29-06-2016 20:35:00 18.3 C 79 % 14.6 C
1689 29-06-2016 20:40:00 18.2 C 80 % 14.69 C
1690 29-06-2016 20:45:00 18.1 C 79 % 14.4 C
1691 29-06-2016 20:50:00 18 C 80 % 14.5 C
1692 29-06-2016 20:55:00 17.9 C 80 % 14.4 C
1693 29-06-2016 21:00:00 17.8 C 81 % 14.5 C
1694 29-06-2016 21:05:00 17.7 C 81 % 14.4 C
1695 29-06-2016 21:10:00 17.6 C 81 % 14.3 C
1696 29-06-2016 21:15:00 17.6 C 81 % 14.3 C
1697 29-06-2016 21:20:00 17.4 C 81 % 14.11 C
1698 29-06-2016 21:25:00 17.3 C 82 % 14.2 C
1699 29-06-2016 21:30:00 17.2 C 81 % 13.91 C
1700 29-06-2016 21:35:00 17.1 C 80 % 13.62 C
Sensor: Nr:Datum:Temp:Feuchte:Taupunkt:
Aussen-T/F 1701 29-06-2016 21:40:00 17 C 80 % 13.53 C
1702 29-06-2016 21:45:00 16.9 C 81 % 13.62 C
1703 29-06-2016 21:50:00 16.9 C 82 % 13.81 C
1704 29-06-2016 21:55:00 16.9 C 83 % 14 C
1705 29-06-2016 22:00:00 16.8 C 82 % 13.71 C
1706 29-06-2016 22:05:00 16.8 C 83 % 13.9 C
1707 29-06-2016 22:10:00 16.8 C 83 % 13.9 C
1708 29-06-2016 22:15:00 16.7 C 83 % 13.8 C
1709 29-06-2016 22:20:00 16.6 C 84 % 13.89 C
1710 29-06-2016 22:25:00 16.6 C 85 % 14.07 C
1711 29-06-2016 22:30:00 16.4 C 84 % 13.69 C
1712 29-06-2016 22:35:00 16.4 C 85 % 13.87 C
1713 29-06-2016 22:40:00 16.3 C 85 % 13.77 C
1714 29-06-2016 22:45:00 16.2 C 85 % 13.68 C
1715 29-06-2016 22:50:00 16.1 C 85 % 13.58 C
1716 29-06-2016 22:55:00 16.1 C 85 % 13.58 C
1717 29-06-2016 23:00:00 16 C 85 % 13.48 C
1718 29-06-2016 23:05:00 15.9 C 85 % 13.38 C
1719 29-06-2016 23:10:00 15.9 C 86 % 13.56 C
1720 29-06-2016 23:15:00 15.9 C 86 % 13.56 C
1721 29-06-2016 23:20:00 15.8 C 85 % 13.28 C
1722 29-06-2016 23:25:00 15.8 C 86 % 13.46 C
1723 29-06-2016 23:30:00 15.8 C 86 % 13.46 C
1724 29-06-2016 23:35:00 15.8 C 86 % 13.46 C
1725 29-06-2016 23:40:00 15.8 C 87 % 13.64 C
Sensor: Nr:Datum:Temp:Feuchte:Taupunkt:
Aussen-T/F 1726 29-06-2016 23:45:00 15.8 C 87 % 13.64 C
1727 29-06-2016 23:50:00 15.8 C 86 % 13.46 C
1728 29-06-2016 23:55:00 15.8 C 87 % 13.64 C
1729 30-06-2016 00:00:00 15.8 C 87 % 13.64 C
1730 30-06-2016 00:05:00 15.8 C 87 % 13.64 C
1731 30-06-2016 00:10:00 15.8 C 87 % 13.64 C
1732 30-06-2016 00:15:00 15.7 C 87 % 13.54 C
1733 30-06-2016 00:20:00 15.7 C 87 % 13.54 C
1734 30-06-2016 00:25:00 15.7 C 87 % 13.54 C
1735 30-06-2016 00:30:00 15.7 C 87 % 13.54 C
1736 30-06-2016 00:35:00 15.6 C 87 % 13.45 C
1737 30-06-2016 00:40:00 15.6 C 87 % 13.45 C
1738 30-06-2016 00:45:00 15.6 C 88 % 13.62 C
1739 30-06-2016 00:50:00 15.6 C 88 % 13.62 C
1740 30-06-2016 00:55:00 15.6 C 88 % 13.62 C
1741 30-06-2016 01:00:00 15.6 C 88 % 13.62 C
1742 30-06-2016 01:05:00 15.5 C 88 % 13.52 C
1743 30-06-2016 01:10:00 15.5 C 88 % 13.52 C
1744 30-06-2016 01:15:00 15.5 C 88 % 13.52 C
1745 30-06-2016 01:20:00 15.6 C 88 % 13.62 C
1746 30-06-2016 01:25:00 15.6 C 89 % 13.79 C
1747 30-06-2016 01:30:00 15.6 C 88 % 13.62 C
1748 30-06-2016 01:35:00 15.6 C 88 % 13.62 C
1749 30-06-2016 01:40:00 15.6 C 89 % 13.79 C
1750 30-06-2016 01:45:00 15.6 C 89 % 13.79 C
Sensor: Nr:Datum:Temp:Feuchte:Taupunkt:
Aussen-T/F 1751 30-06-2016 01:50:00 15.6 C 88 % 13.62 C
1752 30-06-2016 01:55:00 15.6 C 88 % 13.62 C
1753 30-06-2016 02:00:00 15.7 C 89 % 13.89 C
1754 30-06-2016 02:05:00 15.7 C 89 % 13.89 C
1755 30-06-2016 02:10:00 15.7 C 89 % 13.89 C
1756 30-06-2016 02:15:00 15.7 C 89 % 13.89 C
1757 30-06-2016 02:20:00 15.7 C 88 % 13.72 C
1758 30-06-2016 02:25:00 15.7 C 88 % 13.72 C
1759 30-06-2016 02:30:00 15.7 C 88 % 13.72 C
1760 30-06-2016 02:35:00 15.8 C 88 % 13.82 C
1761 30-06-2016 02:40:00 15.7 C 88 % 13.72 C
1762 30-06-2016 02:45:00 15.7 C 87 % 13.54 C
1763 30-06-2016 02:50:00 15.8 C 87 % 13.64 C
1764 30-06-2016 02:55:00 15.8 C 87 % 13.64 C
1765 30-06-2016 03:00:00 15.8 C 87 % 13.64 C
1766 30-06-2016 03:05:00 15.8 C 88 % 13.82 C
1767 30-06-2016 03:10:00 15.9 C 88 % 13.92 C
1768 30-06-2016 03:15:00 15.8 C 87 % 13.64 C
1769 30-06-2016 03:20:00 15.9 C 88 % 13.92 C
1770 30-06-2016 03:25:00 15.9 C 88 % 13.92 C
1771 30-06-2016 03:30:00 15.9 C 88 % 13.92 C
1772 30-06-2016 03:35:00 15.9 C 88 % 13.92 C
1773 30-06-2016 03:40:00 15.9 C 88 % 13.92 C
1774 30-06-2016 03:45:00 15.9 C 88 % 13.92 C
1775 30-06-2016 03:50:00 15.9 C 88 % 13.92 C
Sensor: Nr:Datum:Temp:Feuchte:Taupunkt:
Aussen-T/F 1776 30-06-2016 03:55:00 15.9 C 88 % 13.92 C
1777 30-06-2016 04:00:00 15.9 C 87 % 13.74 C
1778 30-06-2016 04:05:00 15.9 C 88 % 13.92 C
1779 30-06-2016 04:10:00 15.9 C 88 % 13.92 C
1780 30-06-2016 04:15:00 15.9 C 88 % 13.92 C
1781 30-06-2016 04:20:00 15.9 C 88 % 13.92 C
1782 30-06-2016 04:25:00 15.9 C 88 % 13.92 C
1783 30-06-2016 04:30:00 15.9 C 88 % 13.92 C
1784 30-06-2016 04:35:00 15.9 C 88 % 13.92 C
1785 30-06-2016 04:40:00 15.9 C 88 % 13.92 C
1786 30-06-2016 04:45:00 15.9 C 88 % 13.92 C
1787 30-06-2016 04:50:00 15.9 C 88 % 13.92 C
1788 30-06-2016 04:55:00 15.9 C 88 % 13.92 C
1789 30-06-2016 05:00:00 15.9 C 89 % 14.09 C
1790 30-06-2016 05:05:00 15.9 C 89 % 14.09 C
1791 30-06-2016 05:10:00 15.9 C 89 % 14.09 C
1792 30-06-2016 05:15:00 15.9 C 89 % 14.09 C
1793 30-06-2016 05:20:00 15.9 C 89 % 14.09 C
1794 30-06-2016 05:25:00 15.9 C 90 % 14.26 C
1795 30-06-2016 05:30:00 15.8 C 90 % 14.16 C
1796 30-06-2016 05:35:00 15.8 C 90 % 14.16 C
1797 30-06-2016 05:40:00 15.8 C 90 % 14.16 C
1798 30-06-2016 05:45:00 15.8 C 90 % 14.16 C
1799 30-06-2016 05:50:00 15.8 C 90 % 14.16 C
1800 30-06-2016 05:55:00 15.8 C 90 % 14.16 C
Sensor: Nr:Datum:Temp:Feuchte:Taupunkt:
Aussen-T/F 1801 30-06-2016 06:00:00 15.8 C 91 % 14.33 C
1802 30-06-2016 06:05:00 15.8 C 91 % 14.33 C
1803 30-06-2016 06:10:00 15.8 C 91 % 14.33 C
1804 30-06-2016 06:15:00 15.9 C 91 % 14.43 C
1805 30-06-2016 06:20:00 15.9 C 91 % 14.43 C
1806 30-06-2016 06:25:00 15.9 C 91 % 14.43 C
1807 30-06-2016 06:30:00 15.9 C 91 % 14.43 C
1808 30-06-2016 06:35:00 15.9 C 91 % 14.43 C
1809 30-06-2016 06:40:00 15.9 C 91 % 14.43 C
1810 30-06-2016 06:45:00 15.9 C 91 % 14.43 C
1811 30-06-2016 06:50:00 15.9 C 92 % 14.6 C
1812 30-06-2016 06:55:00 16 C 92 % 14.7 C
1813 30-06-2016 07:00:00 16 C 92 % 14.7 C
1814 30-06-2016 07:05:00 16.1 C 92 % 14.8 C
1815 30-06-2016 07:10:00 16.1 C 92 % 14.8 C
1816 30-06-2016 07:15:00 16.2 C 93 % 15.07 C
1817 30-06-2016 07:20:00 16.2 C 93 % 15.07 C
1818 30-06-2016 07:25:00 16.3 C 93 % 15.17 C
1819 30-06-2016 07:30:00 16.3 C 93 % 15.17 C
1820 30-06-2016 07:35:00 16.4 C 93 % 15.27 C
1821 30-06-2016 07:40:00 16.5 C 93 % 15.36 C
1822 30-06-2016 07:45:00 16.6 C 93 % 15.46 C
1823 30-06-2016 07:50:00 16.7 C 92 % 15.39 C
1824 30-06-2016 07:55:00 16.7 C 92 % 15.39 C
1825 30-06-2016 08:00:00 16.8 C 92 % 15.49 C
Sensor: Nr:Datum:Temp:Feuchte:Taupunkt:
Aussen-T/F 1826 30-06-2016 08:05:00 16.9 C 92 % 15.59 C
1827 30-06-2016 08:10:00 17 C 92 % 15.69 C
1828 30-06-2016 08:15:00 17.1 C 92 % 15.79 C
1829 30-06-2016 08:20:00 17.2 C 91 % 15.72 C
1830 30-06-2016 08:25:00 17.3 C 91 % 15.82 C
1831 30-06-2016 08:30:00 17.3 C 89 % 15.47 C
1832 30-06-2016 08:35:00 17.4 C 89 % 15.57 C
1833 30-06-2016 08:40:00 17.6 C 88 % 15.59 C
1834 30-06-2016 08:45:00 17.7 C 88 % 15.69 C
1835 30-06-2016 08:50:00 17.7 C 86 % 15.33 C
1836 30-06-2016 08:55:00 17.7 C 86 % 15.33 C
1837 30-06-2016 09:00:00 17.8 C 85 % 15.25 C
1838 30-06-2016 09:05:00 17.9 C 84 % 15.16 C
1839 30-06-2016 09:10:00 18 C 84 % 15.26 C
1840 30-06-2016 09:15:00 18.2 C 83 % 15.27 C
1841 30-06-2016 09:20:00 18.3 C 82 % 15.17 C
1842 30-06-2016 09:25:00 18.4 C 80 % 14.89 C
1843 30-06-2016 09:30:00 18.5 C 81 % 15.18 C
1844 30-06-2016 09:35:00 18.6 C 80 % 15.08 C
1845 30-06-2016 09:40:00 18.7 C 79 % 14.99 C
1846 30-06-2016 09:45:00 18.7 C 78 % 14.79 C
1847 30-06-2016 09:50:00 18.8 C 79 % 15.08 C
1848 30-06-2016 09:55:00 18.9 C 78 % 14.98 C
1849 30-06-2016 10:00:00 19 C 75 % 14.47 C
1850 30-06-2016 10:05:00 19 C 75 % 14.47 C
Sensor: Nr:Datum:Temp:Feuchte:Taupunkt:
Aussen-T/F 1851 30-06-2016 10:10:00 19.1 C 75 % 14.57 C
1852 30-06-2016 10:15:00 19.2 C 76 % 14.87 C
1853 30-06-2016 10:20:00 19.3 C 76 % 14.97 C
1854 30-06-2016 10:25:00 19.4 C 74 % 14.65 C
1855 30-06-2016 10:30:00 19.6 C 75 % 15.05 C
1856 30-06-2016 10:35:00 19.6 C 75 % 15.05 C
1857 30-06-2016 10:40:00 19.6 C 74 % 14.84 C
1858 30-06-2016 10:45:00 19.7 C 75 % 15.15 C
1859 30-06-2016 10:50:00 19.9 C 73 % 14.92 C
1860 30-06-2016 10:55:00 20 C 73 % 15.01 C
1861 30-06-2016 11:00:00 20.1 C 72 % 14.9 C
1862 30-06-2016 11:05:00 20.3 C 74 % 15.51 C
1863 30-06-2016 11:10:00 20.4 C 72 % 15.18 C
1864 30-06-2016 11:15:00 20.4 C 71 % 14.97 C
1865 30-06-2016 11:20:00 20.4 C 70 % 14.75 C
1866 30-06-2016 11:25:00 20.3 C 73 % 15.3 C
1867 30-06-2016 11:30:00 20.4 C 70 % 14.75 C
1868 30-06-2016 11:35:00 20.5 C 70 % 14.84 C
1869 30-06-2016 11:40:00 20.7 C 70 % 15.03 C
1870 30-06-2016 11:45:00 20.7 C 68 % 14.58 C
1871 30-06-2016 11:50:00 20.6 C 70 % 14.94 C
1872 30-06-2016 11:55:00 20.7 C 70 % 15.03 C
1873 30-06-2016 12:00:00 20.7 C 73 % 15.69 C
1874 30-06-2016 12:05:00 20.8 C 73 % 15.78 C
1875 30-06-2016 12:10:00 21.1 C 74 % 16.29 C
Sensor: Nr:Datum:Temp:Feuchte:Taupunkt:
Aussen-T/F 1876 30-06-2016 12:15:00 21.1 C 70 % 15.42 C
1877 30-06-2016 12:20:00 21.1 C 70 % 15.42 C
1878 30-06-2016 12:25:00 21.1 C 71 % 15.64 C
1879 30-06-2016 12:30:00 21.1 C 72 % 15.86 C
1880 30-06-2016 12:35:00 21.1 C 69 % 15.19 C
1881 30-06-2016 12:40:00 21.3 C 72 % 16.05 C
1882 30-06-2016 12:45:00 21.5 C 68 % 15.35 C
1883 30-06-2016 12:50:00 21.6 C 69 % 15.67 C
1884 30-06-2016 12:55:00 21.6 C 68 % 15.44 C
1885 30-06-2016 13:00:00 21.4 C 69 % 15.48 C
1886 30-06-2016 13:05:00 21.3 C 72 % 16.05 C
1887 30-06-2016 13:10:00 21.3 C 69 % 15.38 C
1888 30-06-2016 13:15:00 21.4 C 69 % 15.48 C
1889 30-06-2016 13:20:00 21.5 C 69 % 15.57 C
1890 30-06-2016 13:25:00 21.5 C 69 % 15.57 C
1891 30-06-2016 13:30:00 21.6 C 69 % 15.67 C
1892 30-06-2016 13:35:00 21.6 C 69 % 15.67 C
1893 30-06-2016 13:40:00 21.4 C 68 % 15.25 C
1894 30-06-2016 13:45:00 21.1 C 69 % 15.19 C
1895 30-06-2016 13:50:00 20.8 C 71 % 15.35 C
1896 30-06-2016 13:55:00 20.8 C 72 % 15.57 C
1897 30-06-2016 14:00:00 20.7 C 72 % 15.47 C
1898 30-06-2016 14:05:00 20.7 C 73 % 15.69 C
1899 30-06-2016 14:10:00 20.7 C 77 % 16.52 C
1900 30-06-2016 14:15:00 20.7 C 74 % 15.9 C
Sensor: Nr:Datum:Temp:Feuchte:Taupunkt:
Aussen-T/F 1901 30-06-2016 14:20:00 20.9 C 74 % 16.09 C
1902 30-06-2016 14:25:00 21.2 C 72 % 15.95 C
1903 30-06-2016 14:30:00 21.5 C 73 % 16.46 C
1904 30-06-2016 14:35:00 21.6 C 73 % 16.55 C
1905 30-06-2016 14:40:00 21.6 C 69 % 15.67 C
1906 30-06-2016 14:45:00 21.7 C 70 % 15.99 C
1907 30-06-2016 14:50:00 21.9 C 71 % 16.4 C
1908 30-06-2016 14:55:00 22 C 72 % 16.72 C
1909 30-06-2016 15:00:00 21.9 C 71 % 16.4 C
1910 30-06-2016 15:05:00 22 C 69 % 16.05 C
1911 30-06-2016 15:10:00 22.2 C 69 % 16.24 C
1912 30-06-2016 15:15:00 22.3 C 67 % 15.88 C
1913 30-06-2016 15:20:00 22.3 C 65 % 15.4 C
1914 30-06-2016 15:25:00 22.2 C 71 % 16.69 C
1915 30-06-2016 15:30:00 22 C 69 % 16.05 C
1916 30-06-2016 15:35:00 21.9 C 70 % 16.18 C
1917 30-06-2016 15:40:00 21.8 C 68 % 15.63 C
1918 30-06-2016 15:45:00 21.8 C 71 % 16.31 C
1919 30-06-2016 15:50:00 21.9 C 68 % 15.73 C
1920 30-06-2016 15:55:00 21.8 C 69 % 15.86 C
1921 30-06-2016 16:00:00 21.8 C 74 % 16.96 C
1922 30-06-2016 16:05:00 21.7 C 70 % 15.99 C
1923 30-06-2016 16:10:00 21.6 C 74 % 16.77 C
1924 30-06-2016 16:15:00 21.7 C 72 % 16.43 C
1925 30-06-2016 16:20:00 21.7 C 70 % 15.99 C
Sensor: Nr:Datum:Temp:Feuchte:Taupunkt:
Aussen-T/F 1926 30-06-2016 16:25:00 21.8 C 72 % 16.53 C
1927 30-06-2016 16:30:00 21.7 C 72 % 16.43 C
1928 30-06-2016 16:35:00 21.6 C 73 % 16.55 C
1929 30-06-2016 16:40:00 21.6 C 72 % 16.34 C
1930 30-06-2016 16:45:00 21.6 C 71 % 16.12 C
1931 30-06-2016 16:50:00 21.6 C 70 % 15.89 C
1932 30-06-2016 16:55:00 21.6 C 70 % 15.89 C
1933 30-06-2016 17:00:00 21.6 C 73 % 16.55 C
1934 30-06-2016 17:05:00 21.5 C 72 % 16.24 C
1935 30-06-2016 17:10:00 21.7 C 72 % 16.43 C
1936 30-06-2016 17:15:00 22.1 C 71 % 16.6 C
1937 30-06-2016 17:20:00 22.4 C 69 % 16.43 C
1938 30-06-2016 17:25:00 22.9 C 69 % 16.91 C
1939 30-06-2016 17:30:00 23.4 C 66 % 16.69 C
1940 30-06-2016 17:35:00 23.4 C 67 % 16.92 C
1941 30-06-2016 17:40:00 23.2 C 67 % 16.73 C
1942 30-06-2016 17:45:00 22.8 C 67 % 16.35 C
1943 30-06-2016 17:50:00 22.5 C 68 % 16.3 C
1944 30-06-2016 17:55:00 22.2 C 69 % 16.24 C
1945 30-06-2016 18:00:00 22.1 C 71 % 16.6 C
1946 30-06-2016 18:05:00 22.1 C 72 % 16.82 C
1947 30-06-2016 18:10:00 22.1 C 71 % 16.6 C
1948 30-06-2016 18:15:00 22.1 C 69 % 16.15 C
1949 30-06-2016 18:20:00 22 C 68 % 15.82 C
1950 30-06-2016 18:25:00 21.9 C 68 % 15.73 C
Sensor: Nr:Datum:Temp:Feuchte:Taupunkt:
Aussen-T/F 1951 30-06-2016 18:30:00 21.8 C 68 % 15.63 C
1952 30-06-2016 18:35:00 21.7 C 71 % 16.21 C
1953 30-06-2016 18:40:00 21.8 C 73 % 16.75 C
1954 30-06-2016 18:45:00 21.9 C 72 % 16.62 C
1955 30-06-2016 18:50:00 22.1 C 71 % 16.6 C
1956 30-06-2016 18:55:00 22.1 C 72 % 16.82 C
1957 30-06-2016 19:00:00 22.1 C 69 % 16.15 C
1958 30-06-2016 19:05:00 22 C 75 % 17.36 C
1959 30-06-2016 19:10:00 21.9 C 75 % 17.27 C
1960 30-06-2016 19:15:00 21.8 C 76 % 17.38 C
1961 30-06-2016 19:20:00 21.7 C 77 % 17.49 C
1962 30-06-2016 19:25:00 21.7 C 79 % 17.9 C
1963 30-06-2016 19:30:00 21.6 C 77 % 17.39 C
1964 30-06-2016 19:35:00 21.6 C 78 % 17.6 C
1965 30-06-2016 19:40:00 21.5 C 79 % 17.7 C
1966 30-06-2016 19:45:00 21.3 C 79 % 17.51 C
1967 30-06-2016 19:50:00 21.1 C 78 % 17.11 C
1968 30-06-2016 19:55:00 20.9 C 79 % 17.12 C
1969 30-06-2016 20:00:00 20.7 C 80 % 17.13 C
1970 30-06-2016 20:05:00 20.6 C 80 % 17.03 C
1971 30-06-2016 20:10:00 20.6 C 80 % 17.03 C
1972 30-06-2016 20:15:00 20.4 C 78 % 16.44 C
1973 30-06-2016 20:20:00 20.4 C 80 % 16.83 C
1974 30-06-2016 20:25:00 20.3 C 80 % 16.74 C
1975 30-06-2016 20:30:00 20.3 C 80 % 16.74 C
Sensor: Nr:Datum:Temp:Feuchte:Taupunkt:
Aussen-T/F 1976 30-06-2016 20:35:00 20.4 C 80 % 16.83 C
1977 30-06-2016 20:40:00 20.4 C 81 % 17.03 C
1978 30-06-2016 20:45:00 20.3 C 80 % 16.74 C
1979 30-06-2016 20:50:00 20.3 C 80 % 16.74 C
1980 30-06-2016 20:55:00 20.2 C 80 % 16.64 C
1981 30-06-2016 21:00:00 20 C 82 % 16.83 C
1982 30-06-2016 21:05:00 19.8 C 82 % 16.64 C
1983 30-06-2016 21:10:00 19.6 C 82 % 16.44 C
1984 30-06-2016 21:15:00 19.4 C 82 % 16.25 C
1985 30-06-2016 21:20:00 19.2 C 83 % 16.24 C
1986 30-06-2016 21:25:00 19.1 C 84 % 16.33 C
1987 30-06-2016 21:30:00 18.9 C 84 % 16.14 C
1988 30-06-2016 21:35:00 18.8 C 85 % 16.23 C
1989 30-06-2016 21:40:00 18.8 C 85 % 16.23 C
1990 30-06-2016 21:45:00 18.7 C 85 % 16.13 C
1991 30-06-2016 21:50:00 18.7 C 85 % 16.13 C
1992 30-06-2016 21:55:00 18.6 C 86 % 16.21 C
1993 30-06-2016 22:00:00 18.6 C 86 % 16.21 C
1994 30-06-2016 22:05:00 18.4 C 86 % 16.02 C
1995 30-06-2016 22:10:00 18.3 C 86 % 15.92 C
1996 30-06-2016 22:15:00 18.2 C 86 % 15.82 C
1997 30-06-2016 22:20:00 18.1 C 86 % 15.72 C
1998 30-06-2016 22:25:00 17.9 C 87 % 15.71 C
1999 30-06-2016 22:30:00 17.8 C 87 % 15.61 C
2000 30-06-2016 22:35:00 17.6 C 88 % 15.59 C
Sensor: Nr:Datum:Temp:Feuchte:Taupunkt:
Aussen-T/F 2001 30-06-2016 22:40:00 17.5 C 88 % 15.49 C
2002 30-06-2016 22:45:00 17.3 C 88 % 15.29 C
2003 30-06-2016 22:50:00 17.2 C 89 % 15.37 C
2004 30-06-2016 22:55:00 17.2 C 89 % 15.37 C
2005 30-06-2016 23:00:00 17.1 C 89 % 15.27 C
2006 30-06-2016 23:05:00 16.9 C 89 % 15.08 C
2007 30-06-2016 23:10:00 16.9 C 89 % 15.08 C
2008 30-06-2016 23:15:00 16.9 C 90 % 15.25 C
2009 30-06-2016 23:20:00 16.8 C 90 % 15.15 C
2010 30-06-2016 23:25:00 16.8 C 90 % 15.15 C
2011 30-06-2016 23:30:00 16.8 C 91 % 15.32 C
2012 30-06-2016 23:35:00 16.8 C 91 % 15.32 C
2013 30-06-2016 23:40:00 16.8 C 91 % 15.32 C
2014 30-06-2016 23:45:00 16.8 C 91 % 15.32 C
2015 30-06-2016 23:50:00 16.8 C 91 % 15.32 C
2016 30-06-2016 23:55:00 16.8 C 91 % 15.32 C
2017 01-07-2016 00:00:00 16.8 C 91 % 15.32 C
2018 01-07-2016 00:05:00 16.8 C 91 % 15.32 C
2019 01-07-2016 00:10:00 16.8 C 92 % 15.49 C
2020 01-07-2016 00:15:00 16.9 C 92 % 15.59 C
2021 01-07-2016 00:20:00 16.9 C 92 % 15.59 C
2022 01-07-2016 00:25:00 16.9 C 92 % 15.59 C
2023 01-07-2016 00:30:00 16.9 C 92 % 15.59 C
2024 01-07-2016 00:35:00 16.9 C 92 % 15.59 C
2025 01-07-2016 00:40:00 16.8 C 92 % 15.49 C
Sensor: Nr:Datum:Temp:Feuchte:Taupunkt:
Aussen-T/F 2026 01-07-2016 00:45:00 16.8 C 92 % 15.49 C
2027 01-07-2016 00:50:00 16.7 C 91 % 15.22 C
2028 01-07-2016 00:55:00 16.7 C 92 % 15.39 C
2029 01-07-2016 01:00:00 16.8 C 92 % 15.49 C
2030 01-07-2016 01:05:00 16.8 C 92 % 15.49 C
2031 01-07-2016 01:10:00 16.8 C 92 % 15.49 C
2032 01-07-2016 01:15:00 16.8 C 92 % 15.49 C
2033 01-07-2016 01:20:00 16.9 C 92 % 15.59 C
2034 01-07-2016 01:25:00 16.9 C 92 % 15.59 C
2035 01-07-2016 01:30:00 16.9 C 92 % 15.59 C
2036 01-07-2016 01:35:00 16.9 C 92 % 15.59 C
2037 01-07-2016 01:40:00 16.9 C 92 % 15.59 C
2038 01-07-2016 01:45:00 16.9 C 92 % 15.59 C
2039 01-07-2016 01:50:00 16.9 C 92 % 15.59 C
2040 01-07-2016 01:55:00 16.9 C 92 % 15.59 C
2041 01-07-2016 02:00:00 16.9 C 92 % 15.59 C
2042 01-07-2016 02:05:00 16.9 C 92 % 15.59 C
2043 01-07-2016 02:10:00 16.9 C 92 % 15.59 C
2044 01-07-2016 02:15:00 17 C 92 % 15.69 C
2045 01-07-2016 02:20:00 17 C 92 % 15.69 C
2046 01-07-2016 02:25:00 17 C 92 % 15.69 C
2047 01-07-2016 02:30:00 17.1 C 92 % 15.79 C
2048 01-07-2016 02:35:00 17.1 C 92 % 15.79 C
2049 01-07-2016 02:40:00 17 C 92 % 15.69 C
2050 01-07-2016 02:45:00 17 C 92 % 15.69 C
Sensor: Nr:Datum:Temp:Feuchte:Taupunkt:
Aussen-T/F 2051 01-07-2016 02:50:00 17 C 92 % 15.69 C
2052 01-07-2016 02:55:00 16.9 C 92 % 15.59 C
2053 01-07-2016 03:00:00 16.9 C 92 % 15.59 C
2054 01-07-2016 03:05:00 16.9 C 92 % 15.59 C
2055 01-07-2016 03:10:00 16.8 C 92 % 15.49 C
2056 01-07-2016 03:15:00 16.8 C 92 % 15.49 C
2057 01-07-2016 03:20:00 16.7 C 92 % 15.39 C
2058 01-07-2016 03:25:00 16.6 C 92 % 15.3 C
2059 01-07-2016 03:30:00 16.6 C 92 % 15.3 C
2060 01-07-2016 03:35:00 16.5 C 92 % 15.2 C
2061 01-07-2016 03:40:00 16.5 C 93 % 15.36 C
2062 01-07-2016 03:45:00 16.5 C 93 % 15.36 C
2063 01-07-2016 03:50:00 16.5 C 93 % 15.36 C
2064 01-07-2016 03:55:00 16.6 C 93 % 15.46 C
2065 01-07-2016 04:00:00 16.6 C 93 % 15.46 C
2066 01-07-2016 04:05:00 16.6 C 93 % 15.46 C
2067 01-07-2016 04:10:00 16.6 C 93 % 15.46 C
2068 01-07-2016 04:15:00 16.6 C 93 % 15.46 C
2069 01-07-2016 04:20:00 16.5 C 93 % 15.36 C
2070 01-07-2016 04:25:00 16.5 C 93 % 15.36 C
2071 01-07-2016 04:30:00 16.5 C 93 % 15.36 C
2072 01-07-2016 04:35:00 16.6 C 93 % 15.46 C
2073 01-07-2016 04:40:00 16.6 C 93 % 15.46 C
2074 01-07-2016 04:45:00 16.5 C 93 % 15.36 C
2075 01-07-2016 04:50:00 16.5 C 93 % 15.36 C
Sensor: Nr:Datum:Temp:Feuchte:Taupunkt:
Aussen-T/F 2076 01-07-2016 04:55:00 16.5 C 94 % 15.53 C
2077 01-07-2016 05:00:00 16.6 C 94 % 15.63 C
2078 01-07-2016 05:05:00 16.6 C 94 % 15.63 C
2079 01-07-2016 05:10:00 16.7 C 94 % 15.73 C
2080 01-07-2016 05:15:00 16.7 C 94 % 15.73 C
2081 01-07-2016 05:20:00 16.8 C 94 % 15.83 C
2082 01-07-2016 05:25:00 16.8 C 93 % 15.66 C
2083 01-07-2016 05:30:00 16.8 C 93 % 15.66 C
2084 01-07-2016 05:35:00 16.9 C 93 % 15.76 C
2085 01-07-2016 05:40:00 16.9 C 92 % 15.59 C
2086 01-07-2016 05:45:00 17 C 92 % 15.69 C
2087 01-07-2016 05:50:00 17 C 92 % 15.69 C
2088 01-07-2016 05:55:00 17 C 92 % 15.69 C
2089 01-07-2016 06:00:00 17.1 C 92 % 15.79 C
2090 01-07-2016 06:05:00 17.2 C 92 % 15.89 C
2091 01-07-2016 06:10:00 17.4 C 91 % 15.92 C
2092 01-07-2016 06:15:00 17.6 C 91 % 16.11 C
2093 01-07-2016 06:20:00 17.7 C 90 % 16.04 C
2094 01-07-2016 06:25:00 17.8 C 90 % 16.14 C
2095 01-07-2016 06:30:00 17.8 C 89 % 15.96 C
2096 01-07-2016 06:35:00 17.9 C 88 % 15.88 C
2097 01-07-2016 06:40:00 18.1 C 89 % 16.26 C
2098 01-07-2016 06:45:00 18.1 C 88 % 16.08 C
2099 01-07-2016 06:50:00 18.2 C 88 % 16.18 C
2100 01-07-2016 06:55:00 18.2 C 88 % 16.18 C
Sensor: Nr:Datum:Temp:Feuchte:Taupunkt:
Aussen-T/F 2101 01-07-2016 07:00:00 18.3 C 88 % 16.28 C
2102 01-07-2016 07:05:00 18.3 C 88 % 16.28 C
2103 01-07-2016 07:10:00 18.3 C 88 % 16.28 C
2104 01-07-2016 07:15:00 18.4 C 88 % 16.38 C
2105 01-07-2016 07:20:00 18.4 C 88 % 16.38 C
2106 01-07-2016 07:25:00 18.3 C 87 % 16.1 C
2107 01-07-2016 07:30:00 18.4 C 88 % 16.38 C
2108 01-07-2016 07:35:00 18.5 C 88 % 16.48 C
2109 01-07-2016 07:40:00 18.6 C 87 % 16.39 C
2110 01-07-2016 07:45:00 18.6 C 86 % 16.21 C
2111 01-07-2016 07:50:00 18.7 C 87 % 16.49 C
2112 01-07-2016 07:55:00 18.7 C 86 % 16.31 C
2113 01-07-2016 08:00:00 18.7 C 87 % 16.49 C
2114 01-07-2016 08:05:00 18.8 C 87 % 16.59 C
2115 01-07-2016 08:10:00 18.8 C 87 % 16.59 C
2116 01-07-2016 08:15:00 18.9 C 86 % 16.51 C
2117 01-07-2016 08:20:00 19.1 C 86 % 16.7 C
2118 01-07-2016 08:25:00 19.3 C 86 % 16.9 C
2119 01-07-2016 08:30:00 19.4 C 85 % 16.81 C
2120 01-07-2016 08:35:00 19.6 C 86 % 17.19 C
2121 01-07-2016 08:40:00 19.6 C 84 % 16.82 C
2122 01-07-2016 08:45:00 19.6 C 85 % 17.01 C
2123 01-07-2016 08:50:00 19.6 C 86 % 17.19 C
2124 01-07-2016 08:55:00 19.6 C 87 % 17.38 C
2125 01-07-2016 09:00:00 19.5 C 87 % 17.28 C
Sensor: Nr:Datum:Temp:Feuchte:Taupunkt:
Aussen-T/F 2126 01-07-2016 09:05:00 19.5 C 86 % 17.1 C
2127 01-07-2016 09:10:00 19.6 C 88 % 17.56 C
2128 01-07-2016 09:15:00 19.6 C 85 % 17.01 C
2129 01-07-2016 09:20:00 19.7 C 86 % 17.29 C
2130 01-07-2016 09:25:00 19.7 C 84 % 16.92 C
2131 01-07-2016 09:30:00 19.8 C 84 % 17.02 C
2132 01-07-2016 09:35:00 20.1 C 83 % 17.12 C
2133 01-07-2016 09:40:00 20.2 C 83 % 17.22 C
2134 01-07-2016 09:45:00 20.4 C 83 % 17.42 C
2135 01-07-2016 09:50:00 20.6 C 84 % 17.8 C
2136 01-07-2016 09:55:00 20.7 C 84 % 17.9 C
2137 01-07-2016 10:00:00 20.8 C 80 % 17.22 C
2138 01-07-2016 10:05:00 20.8 C 79 % 17.02 C
2139 01-07-2016 10:10:00 20.9 C 80 % 17.32 C
2140 01-07-2016 10:15:00 20.9 C 79 % 17.12 C
2141 01-07-2016 10:20:00 21.1 C 79 % 17.32 C
2142 01-07-2016 10:25:00 21.2 C 80 % 17.61 C
2143 01-07-2016 10:30:00 21.3 C 79 % 17.51 C
2144 01-07-2016 10:35:00 21.3 C 78 % 17.31 C
2145 01-07-2016 10:40:00 21.2 C 77 % 17.01 C
2146 01-07-2016 10:45:00 21.3 C 78 % 17.31 C
2147 01-07-2016 10:50:00 21.4 C 78 % 17.4 C
2148 01-07-2016 10:55:00 21.6 C 78 % 17.6 C
2149 01-07-2016 11:00:00 21.7 C 76 % 17.28 C
2150 01-07-2016 11:05:00 21.8 C 75 % 17.17 C
Sensor: Nr:Datum:Temp:Feuchte:Taupunkt:
Aussen-T/F 2151 01-07-2016 11:10:00 21.9 C 74 % 17.06 C
2152 01-07-2016 11:15:00 22.1 C 73 % 17.03 C
2153 01-07-2016 11:20:00 22.3 C 72 % 17.01 C
2154 01-07-2016 11:25:00 22.3 C 72 % 17.01 C
2155 01-07-2016 11:30:00 22.4 C 72 % 17.1 C
2156 01-07-2016 11:35:00 22.3 C 73 % 17.23 C
2157 01-07-2016 11:40:00 22.4 C 74 % 17.54 C
2158 01-07-2016 11:45:00 22.2 C 70 % 16.47 C
2159 01-07-2016 11:50:00 22.1 C 74 % 17.25 C
2160 01-07-2016 11:55:00 22.1 C 74 % 17.25 C
2161 01-07-2016 12:00:00 22 C 75 % 17.36 C
2162 01-07-2016 12:05:00 22.1 C 73 % 17.03 C
2163 01-07-2016 12:10:00 22.1 C 72 % 16.82 C
2164 01-07-2016 12:15:00 22.1 C 70 % 16.37 C
2165 01-07-2016 12:20:00 22.1 C 70 % 16.37 C
2166 01-07-2016 12:25:00 22.1 C 71 % 16.6 C
2167 01-07-2016 12:30:00 22.2 C 70 % 16.47 C
2168 01-07-2016 12:35:00 22.2 C 69 % 16.24 C
2169 01-07-2016 12:40:00 22.1 C 69 % 16.15 C
2170 01-07-2016 12:45:00 22.1 C 68 % 15.92 C
2171 01-07-2016 12:50:00 22 C 69 % 16.05 C
2172 01-07-2016 12:55:00 21.8 C 70 % 16.09 C
2173 01-07-2016 13:00:00 21.8 C 71 % 16.31 C
2174 01-07-2016 13:05:00 21.8 C 73 % 16.75 C
2175 01-07-2016 13:10:00 21.8 C 73 % 16.75 C
Sensor: Nr:Datum:Temp:Feuchte:Taupunkt:
Aussen-T/F 2176 01-07-2016 13:15:00 21.9 C 70 % 16.18 C
2177 01-07-2016 13:20:00 22.1 C 69 % 16.15 C
2178 01-07-2016 13:25:00 22.2 C 70 % 16.47 C
2179 01-07-2016 13:30:00 22.2 C 71 % 16.69 C
2180 01-07-2016 13:35:00 22.2 C 72 % 16.91 C
2181 01-07-2016 13:40:00 22.3 C 70 % 16.56 C
2182 01-07-2016 13:45:00 22.4 C 72 % 17.1 C
2183 01-07-2016 13:50:00 22.5 C 70 % 16.76 C
2184 01-07-2016 13:55:00 22.3 C 70 % 16.56 C
2185 01-07-2016 14:00:00 22.2 C 71 % 16.69 C
2186 01-07-2016 14:05:00 22.2 C 73 % 17.13 C
2187 01-07-2016 14:10:00 22.3 C 70 % 16.56 C
2188 01-07-2016 14:15:00 22.4 C 73 % 17.32 C
2189 01-07-2016 14:20:00 22.5 C 69 % 16.53 C
2190 01-07-2016 14:25:00 22.7 C 68 % 16.49 C
2191 01-07-2016 14:30:00 22.7 C 68 % 16.49 C
2192 01-07-2016 14:35:00 22.6 C 67 % 16.16 C
2193 01-07-2016 14:40:00 22.7 C 67 % 16.26 C
2194 01-07-2016 14:45:00 22.8 C 69 % 16.82 C
2195 01-07-2016 14:50:00 22.8 C 68 % 16.59 C
2196 01-07-2016 14:55:00 22.8 C 67 % 16.35 C
2197 01-07-2016 15:00:00 22.8 C 67 % 16.35 C
2198 01-07-2016 15:05:00 22.8 C 65 % 15.88 C
2199 01-07-2016 15:10:00 22.7 C 68 % 16.49 C
2200 01-07-2016 15:15:00 22.7 C 68 % 16.49 C
Sensor: Nr:Datum:Temp:Feuchte:Taupunkt:
Aussen-T/F 2201 01-07-2016 15:20:00 22.6 C 67 % 16.16 C
2202 01-07-2016 15:25:00 22.4 C 68 % 16.2 C
2203 01-07-2016 15:30:00 22.4 C 68 % 16.2 C
2204 01-07-2016 15:35:00 22.4 C 69 % 16.43 C
2205 01-07-2016 15:40:00 22.5 C 68 % 16.3 C
2206 01-07-2016 15:45:00 22.6 C 68 % 16.39 C
2207 01-07-2016 15:50:00 22.7 C 67 % 16.26 C
2208 01-07-2016 15:55:00 22.9 C 67 % 16.45 C
2209 01-07-2016 16:00:00 23.2 C 67 % 16.73 C
2210 01-07-2016 16:05:00 23.9 C 67 % 17.4 C
2211 01-07-2016 16:10:00 24.3 C 65 % 17.3 C
2212 01-07-2016 16:15:00 24.3 C 64 % 17.05 C
2213 01-07-2016 16:20:00 24.1 C 63 % 16.62 C
2214 01-07-2016 16:25:00 23.9 C 64 % 16.68 C
2215 01-07-2016 16:30:00 23.8 C 64 % 16.58 C
2216 01-07-2016 16:35:00 23.9 C 66 % 17.16 C
2217 01-07-2016 16:40:00 23.9 C 64 % 16.68 C
2218 01-07-2016 16:45:00 24 C 65 % 17.01 C
2219 01-07-2016 16:50:00 24.2 C 64 % 16.96 C
2220 01-07-2016 16:55:00 24.1 C 64 % 16.86 C
2221 01-07-2016 17:00:00 23.8 C 65 % 16.83 C
2222 01-07-2016 17:05:00 23.4 C 65 % 16.45 C
2223 01-07-2016 17:10:00 23.1 C 68 % 16.87 C
2224 01-07-2016 17:15:00 22.9 C 67 % 16.45 C
2225 01-07-2016 17:20:00 22.8 C 68 % 16.59 C
Sensor: Nr:Datum:Temp:Feuchte:Taupunkt:
Aussen-T/F 2226 01-07-2016 17:25:00 22.8 C 70 % 17.04 C
2227 01-07-2016 17:30:00 22.7 C 70 % 16.95 C
2228 01-07-2016 17:35:00 22.5 C 69 % 16.53 C
2229 01-07-2016 17:40:00 22.4 C 71 % 16.88 C
2230 01-07-2016 17:45:00 22.3 C 70 % 16.56 C
2231 01-07-2016 17:50:00 22.2 C 69 % 16.24 C
2232 01-07-2016 17:55:00 22.1 C 70 % 16.37 C
2233 01-07-2016 18:00:00 21.8 C 71 % 16.31 C
2234 01-07-2016 18:05:00 21.7 C 72 % 16.43 C
2235 01-07-2016 18:10:00 21.5 C 73 % 16.46 C
2236 01-07-2016 18:15:00 21.4 C 74 % 16.57 C
2237 01-07-2016 18:20:00 21.5 C 73 % 16.46 C
2238 01-07-2016 18:25:00 21.6 C 76 % 17.19 C
2239 01-07-2016 18:30:00 21.5 C 77 % 17.3 C
2240 01-07-2016 18:35:00 21.7 C 74 % 16.86 C
2241 01-07-2016 18:40:00 22.2 C 73 % 17.13 C
2242 01-07-2016 18:45:00 22.4 C 73 % 17.32 C
2243 01-07-2016 18:50:00 22.8 C 70 % 17.04 C
2244 01-07-2016 18:55:00 23.1 C 70 % 17.33 C
2245 01-07-2016 19:00:00 23.1 C 71 % 17.55 C
2246 01-07-2016 19:05:00 23.1 C 73 % 17.99 C
2247 01-07-2016 19:10:00 22.9 C 69 % 16.91 C
2248 01-07-2016 19:15:00 22.7 C 72 % 17.39 C
2249 01-07-2016 19:20:00 22.6 C 73 % 17.51 C
2250 01-07-2016 19:25:00 22.4 C 73 % 17.32 C
Sensor: Nr:Datum:Temp:Feuchte:Taupunkt:
Aussen-T/F 2251 01-07-2016 19:30:00 22.6 C 70 % 16.85 C
2252 01-07-2016 19:35:00 22.9 C 70 % 17.14 C
2253 01-07-2016 19:40:00 22.9 C 70 % 17.14 C
2254 01-07-2016 19:45:00 22.8 C 71 % 17.27 C
2255 01-07-2016 19:50:00 22.6 C 70 % 16.85 C
2256 01-07-2016 19:55:00 22.4 C 70 % 16.66 C
2257 01-07-2016 20:00:00 22.3 C 73 % 17.23 C
2258 01-07-2016 20:05:00 22.3 C 71 % 16.79 C
2259 01-07-2016 20:10:00 22.3 C 72 % 17.01 C
2260 01-07-2016 20:15:00 22.3 C 75 % 17.65 C
2261 01-07-2016 20:20:00 22.1 C 76 % 17.67 C
2262 01-07-2016 20:25:00 21.9 C 73 % 16.84 C
2263 01-07-2016 20:30:00 21.8 C 75 % 17.17 C
2264 01-07-2016 20:35:00 21.7 C 78 % 17.7 C
2265 01-07-2016 20:40:00 21.7 C 76 % 17.28 C
2266 01-07-2016 20:45:00 21.8 C 77 % 17.59 C
2267 01-07-2016 20:50:00 21.6 C 76 % 17.19 C
2268 01-07-2016 20:55:00 21.4 C 78 % 17.4 C
2269 01-07-2016 21:00:00 21.1 C 78 % 17.11 C
2270 01-07-2016 21:05:00 20.7 C 80 % 17.13 C
2271 01-07-2016 21:10:00 20.3 C 80 % 16.74 C
2272 01-07-2016 21:15:00 19.9 C 81 % 16.54 C
2273 01-07-2016 21:20:00 19.6 C 83 % 16.63 C
2274 01-07-2016 21:25:00 19.3 C 83 % 16.34 C
2275 01-07-2016 21:30:00 19.1 C 83 % 16.15 C
Sensor: Nr:Datum:Temp:Feuchte:Taupunkt:
Aussen-T/F 2276 01-07-2016 21:35:00 18.8 C 84 % 16.04 C
2277 01-07-2016 21:40:00 18.7 C 85 % 16.13 C
2278 01-07-2016 21:45:00 18.6 C 85 % 16.03 C
2279 01-07-2016 21:50:00 18.4 C 85 % 15.83 C
2280 01-07-2016 21:55:00 18.4 C 86 % 16.02 C
2281 01-07-2016 22:00:00 18.3 C 87 % 16.1 C
2282 01-07-2016 22:05:00 18.2 C 87 % 16 C
2283 01-07-2016 22:10:00 18.2 C 87 % 16 C
2284 01-07-2016 22:15:00 18.1 C 87 % 15.9 C
2285 01-07-2016 22:20:00 18.1 C 87 % 15.9 C
2286 01-07-2016 22:25:00 18 C 88 % 15.98 C
2287 01-07-2016 22:30:00 17.9 C 88 % 15.88 C
2288 01-07-2016 22:35:00 17.9 C 88 % 15.88 C
2289 01-07-2016 22:40:00 17.9 C 88 % 15.88 C
2290 01-07-2016 22:45:00 17.8 C 88 % 15.79 C
2291 01-07-2016 22:50:00 17.8 C 89 % 15.96 C
2292 01-07-2016 22:55:00 17.7 C 89 % 15.86 C
2293 01-07-2016 23:00:00 17.6 C 89 % 15.77 C
2294 01-07-2016 23:05:00 17.6 C 90 % 15.94 C
2295 01-07-2016 23:10:00 17.6 C 90 % 15.94 C
2296 01-07-2016 23:15:00 17.6 C 90 % 15.94 C
2297 01-07-2016 23:20:00 17.6 C 90 % 15.94 C
2298 01-07-2016 23:25:00 17.6 C 90 % 15.94 C
2299 01-07-2016 23:30:00 17.6 C 91 % 16.11 C
2300 01-07-2016 23:35:00 17.6 C 91 % 16.11 C
Sensor: Nr:Datum:Temp:Feuchte:Taupunkt:
Aussen-T/F 2301 01-07-2016 23:40:00 17.7 C 91 % 16.21 C
2302 01-07-2016 23:45:00 17.7 C 91 % 16.21 C
2303 01-07-2016 23:50:00 17.8 C 91 % 16.31 C
2304 01-07-2016 23:55:00 17.8 C 91 % 16.31 C
2305 02-07-2016 00:00:00 17.9 C 91 % 16.41 C
2306 02-07-2016 00:05:00 17.9 C 91 % 16.41 C
2307 02-07-2016 00:10:00 17.9 C 91 % 16.41 C
2308 02-07-2016 00:15:00 17.9 C 91 % 16.41 C
2309 02-07-2016 00:20:00 17.9 C 91 % 16.41 C
2310 02-07-2016 00:25:00 17.9 C 91 % 16.41 C
2311 02-07-2016 00:30:00 17.8 C 91 % 16.31 C
2312 02-07-2016 00:35:00 17.9 C 91 % 16.41 C
2313 02-07-2016 00:40:00 17.9 C 91 % 16.41 C
2314 02-07-2016 00:45:00 17.9 C 91 % 16.41 C
2315 02-07-2016 00:50:00 17.9 C 91 % 16.41 C
2316 02-07-2016 00:55:00 17.8 C 91 % 16.31 C
2317 02-07-2016 01:00:00 17.8 C 90 % 16.14 C
2318 02-07-2016 01:05:00 17.7 C 91 % 16.21 C
2319 02-07-2016 01:10:00 17.6 C 91 % 16.11 C
2320 02-07-2016 01:15:00 17.6 C 91 % 16.11 C
2321 02-07-2016 01:20:00 17.5 C 91 % 16.01 C
2322 02-07-2016 01:25:00 17.5 C 91 % 16.01 C
2323 02-07-2016 01:30:00 17.5 C 91 % 16.01 C
2324 02-07-2016 01:35:00 17.5 C 92 % 16.19 C
2325 02-07-2016 01:40:00 17.4 C 92 % 16.09 C
Sensor: Nr:Datum:Temp:Feuchte:Taupunkt:
Aussen-T/F 2326 02-07-2016 01:45:00 17.4 C 91 % 15.92 C
2327 02-07-2016 01:50:00 17.3 C 91 % 15.82 C
2328 02-07-2016 01:55:00 17.3 C 92 % 15.99 C
2329 02-07-2016 02:00:00 17.3 C 92 % 15.99 C
2330 02-07-2016 02:05:00 17.4 C 92 % 16.09 C
2331 02-07-2016 02:10:00 17.5 C 92 % 16.19 C
2332 02-07-2016 02:15:00 17.6 C 92 % 16.28 C
2333 02-07-2016 02:20:00 17.7 C 92 % 16.38 C
2334 02-07-2016 02:25:00 17.7 C 92 % 16.38 C
2335 02-07-2016 02:30:00 17.8 C 91 % 16.31 C
2336 02-07-2016 02:35:00 17.9 C 90 % 16.24 C
2337 02-07-2016 02:40:00 18.2 C 89 % 16.36 C
2338 02-07-2016 02:45:00 18.3 C 88 % 16.28 C
2339 02-07-2016 02:50:00 18.4 C 88 % 16.38 C
2340 02-07-2016 02:55:00 18.6 C 87 % 16.39 C
2341 02-07-2016 03:00:00 18.8 C 86 % 16.41 C
2342 02-07-2016 03:05:00 18.8 C 86 % 16.41 C
2343 02-07-2016 03:10:00 18.9 C 85 % 16.32 C
2344 02-07-2016 03:15:00 18.8 C 85 % 16.23 C
2345 02-07-2016 03:20:00 18.8 C 85 % 16.23 C
2346 02-07-2016 03:25:00 18.8 C 85 % 16.23 C
2347 02-07-2016 03:30:00 18.7 C 85 % 16.13 C
2348 02-07-2016 03:35:00 18.6 C 86 % 16.21 C
2349 02-07-2016 03:40:00 18.5 C 86 % 16.11 C
2350 02-07-2016 03:45:00 18.4 C 86 % 16.02 C
Sensor: Nr:Datum:Temp:Feuchte:Taupunkt:
Aussen-T/F 2351 02-07-2016 03:50:00 18.4 C 87 % 16.2 C
2352 02-07-2016 03:55:00 18.4 C 87 % 16.2 C
2353 02-07-2016 04:00:00 18.4 C 87 % 16.2 C
2354 02-07-2016 04:05:00 18.4 C 87 % 16.2 C
2355 02-07-2016 04:10:00 18.3 C 87 % 16.1 C
2356 02-07-2016 04:15:00 18.3 C 87 % 16.1 C
2357 02-07-2016 04:20:00 18.3 C 87 % 16.1 C
2358 02-07-2016 04:25:00 18.3 C 87 % 16.1 C
2359 02-07-2016 04:30:00 18.3 C 87 % 16.1 C
2360 02-07-2016 04:35:00 18.3 C 87 % 16.1 C
2361 02-07-2016 04:40:00 18.4 C 86 % 16.02 C
2362 02-07-2016 04:45:00 18.5 C 86 % 16.11 C
2363 02-07-2016 04:50:00 18.6 C 85 % 16.03 C
2364 02-07-2016 04:55:00 18.6 C 85 % 16.03 C
2365 02-07-2016 05:00:00 18.6 C 84 % 15.84 C
2366 02-07-2016 05:05:00 18.6 C 85 % 16.03 C
2367 02-07-2016 05:10:00 18.6 C 84 % 15.84 C
2368 02-07-2016 05:15:00 18.6 C 83 % 15.66 C
2369 02-07-2016 05:20:00 18.7 C 83 % 15.75 C
2370 02-07-2016 05:25:00 18.7 C 83 % 15.75 C
2371 02-07-2016 05:30:00 18.7 C 82 % 15.57 C
2372 02-07-2016 05:35:00 18.2 C 82 % 15.08 C
2373 02-07-2016 05:40:00 17.7 C 85 % 15.15 C
2374 02-07-2016 05:45:00 17.2 C 86 % 14.84 C
2375 02-07-2016 05:50:00 16.8 C 88 % 14.8 C
Sensor: Nr:Datum:Temp:Feuchte:Taupunkt:
Aussen-T/F 2376 02-07-2016 05:55:00 16.4 C 88 % 14.41 C
2377 02-07-2016 06:00:00 16.2 C 89 % 14.39 C
2378 02-07-2016 06:05:00 16.1 C 89 % 14.29 C
2379 02-07-2016 06:10:00 15.9 C 90 % 14.26 C
2380 02-07-2016 06:15:00 15.8 C 90 % 14.16 C
2381 02-07-2016 06:20:00 15.7 C 90 % 14.06 C
2382 02-07-2016 06:25:00 15.6 C 91 % 14.14 C
2383 02-07-2016 06:30:00 15.5 C 91 % 14.04 C
2384 02-07-2016 06:35:00 15.4 C 91 % 13.94 C
2385 02-07-2016 06:40:00 15.4 C 92 % 14.11 C
2386 02-07-2016 06:45:00 15.4 C 92 % 14.11 C
2387 02-07-2016 06:50:00 15.4 C 92 % 14.11 C
2388 02-07-2016 06:55:00 15.4 C 93 % 14.27 C
2389 02-07-2016 07:00:00 15.3 C 92 % 14.01 C
2390 02-07-2016 07:05:00 15.1 C 91 % 13.64 C
2391 02-07-2016 07:10:00 15 C 91 % 13.54 C
2392 02-07-2016 07:15:00 14.9 C 92 % 13.61 C
2393 02-07-2016 07:20:00 14.8 C 92 % 13.51 C
2394 02-07-2016 07:25:00 14.8 C 91 % 13.35 C
2395 02-07-2016 07:30:00 14.7 C 91 % 13.25 C
2396 02-07-2016 07:35:00 14.6 C 91 % 13.15 C
2397 02-07-2016 07:40:00 14.6 C 91 % 13.15 C
2398 02-07-2016 07:45:00 14.5 C 91 % 13.05 C
2399 02-07-2016 07:50:00 14.4 C 89 % 12.61 C
2400 02-07-2016 07:55:00 14.3 C 86 % 11.99 C
Sensor: Nr:Datum:Temp:Feuchte:Taupunkt:
Aussen-T/F 2401 02-07-2016 08:00:00 14.3 C 85 % 11.81 C
2402 02-07-2016 08:05:00 14.3 C 83 % 11.45 C
2403 02-07-2016 08:10:00 14.4 C 87 % 12.27 C
2404 02-07-2016 08:15:00 14.3 C 88 % 12.34 C
2405 02-07-2016 08:20:00 14.3 C 88 % 12.34 C
2406 02-07-2016 08:25:00 14.2 C 88 % 12.24 C
2407 02-07-2016 08:30:00 14.1 C 89 % 12.32 C
2408 02-07-2016 08:35:00 14.1 C 89 % 12.32 C
2409 02-07-2016 08:40:00 14.1 C 91 % 12.65 C
2410 02-07-2016 08:45:00 14.1 C 91 % 12.65 C
2411 02-07-2016 08:50:00 14.3 C 92 % 13.02 C
2412 02-07-2016 08:55:00 14.4 C 92 % 13.12 C
2413 02-07-2016 09:00:00 14.4 C 91 % 12.95 C
2414 02-07-2016 09:05:00 14.4 C 91 % 12.95 C
2415 02-07-2016 09:10:00 14.3 C 90 % 12.68 C
2416 02-07-2016 09:15:00 14.3 C 90 % 12.68 C
2417 02-07-2016 09:20:00 14.3 C 89 % 12.51 C
2418 02-07-2016 09:25:00 14.3 C 90 % 12.68 C
2419 02-07-2016 09:30:00 14.3 C 89 % 12.51 C
2420 02-07-2016 09:35:00 14.3 C 89 % 12.51 C
2421 02-07-2016 09:40:00 14.3 C 88 % 12.34 C
2422 02-07-2016 09:45:00 14.3 C 89 % 12.51 C
2423 02-07-2016 09:50:00 14.3 C 88 % 12.34 C
2424 02-07-2016 09:55:00 14.3 C 89 % 12.51 C
2425 02-07-2016 10:00:00 14.3 C 88 % 12.34 C
Sensor: Nr:Datum:Temp:Feuchte:Taupunkt:
Aussen-T/F 2426 02-07-2016 10:05:00 14.3 C 88 % 12.34 C
2427 02-07-2016 10:10:00 14.3 C 89 % 12.51 C
2428 02-07-2016 10:15:00 14.4 C 89 % 12.61 C
2429 02-07-2016 10:20:00 14.4 C 89 % 12.61 C
2430 02-07-2016 10:25:00 14.6 C 90 % 12.98 C
2431 02-07-2016 10:30:00 14.7 C 90 % 13.08 C
2432 02-07-2016 10:35:00 14.7 C 87 % 12.56 C
2433 02-07-2016 10:40:00 14.8 C 88 % 12.83 C
2434 02-07-2016 10:45:00 15 C 87 % 12.86 C
2435 02-07-2016 10:50:00 15.1 C 87 % 12.95 C
2436 02-07-2016 10:55:00 15.2 C 83 % 12.33 C
2437 02-07-2016 11:00:00 15.3 C 83 % 12.43 C
2438 02-07-2016 11:05:00 15.4 C 85 % 12.89 C
2439 02-07-2016 11:10:00 15.4 C 85 % 12.89 C
2440 02-07-2016 11:15:00 15.5 C 86 % 13.17 C
2441 02-07-2016 11:20:00 15.6 C 85 % 13.09 C
2442 02-07-2016 11:25:00 15.7 C 85 % 13.19 C
2443 02-07-2016 11:30:00 15.7 C 84 % 13.01 C
2444 02-07-2016 11:35:00 15.6 C 81 % 12.35 C
2445 02-07-2016 11:40:00 15.7 C 83 % 12.82 C
2446 02-07-2016 11:45:00 15.7 C 83 % 12.82 C
2447 02-07-2016 11:50:00 15.8 C 81 % 12.55 C
2448 02-07-2016 11:55:00 15.9 C 82 % 12.83 C
2449 02-07-2016 12:00:00 16.1 C 81 % 12.84 C
2450 02-07-2016 12:05:00 16.2 C 79 % 12.56 C
Sensor: Nr:Datum:Temp:Feuchte:Taupunkt:
Aussen-T/F 2451 02-07-2016 12:10:00 16.2 C 78 % 12.36 C
2452 02-07-2016 12:15:00 16.2 C 81 % 12.94 C
2453 02-07-2016 12:20:00 16.2 C 82 % 13.13 C
2454 02-07-2016 12:25:00 16.3 C 80 % 12.85 C
2455 02-07-2016 12:30:00 16.5 C 81 % 13.23 C
2456 02-07-2016 12:35:00 16.7 C 80 % 13.23 C
2457 02-07-2016 12:40:00 16.9 C 78 % 13.04 C
2458 02-07-2016 12:45:00 16.9 C 78 % 13.04 C
2459 02-07-2016 12:50:00 16.9 C 75 % 12.44 C
2460 02-07-2016 12:55:00 16.9 C 77 % 12.84 C
2461 02-07-2016 13:00:00 17.1 C 75 % 12.64 C
2462 02-07-2016 13:05:00 17.4 C 75 % 12.93 C
2463 02-07-2016 13:10:00 17.7 C 73 % 12.8 C
2464 02-07-2016 13:15:00 17.9 C 70 % 12.35 C
2465 02-07-2016 13:20:00 18.1 C 70 % 12.55 C
2466 02-07-2016 13:25:00 18 C 71 % 12.67 C
2467 02-07-2016 13:30:00 17.9 C 69 % 12.14 C
2468 02-07-2016 13:35:00 17.9 C 71 % 12.57 C
2469 02-07-2016 13:40:00 18 C 71 % 12.67 C
2470 02-07-2016 13:45:00 18 C 73 % 13.09 C
2471 02-07-2016 13:50:00 18.1 C 73 % 13.19 C
2472 02-07-2016 13:55:00 18.3 C 71 % 12.95 C
2473 02-07-2016 14:00:00 18.4 C 69 % 12.61 C
2474 02-07-2016 14:05:00 18.4 C 70 % 12.83 C
2475 02-07-2016 14:10:00 18.5 C 73 % 13.57 C
Sensor: Nr:Datum:Temp:Feuchte:Taupunkt:
Aussen-T/F 2476 02-07-2016 14:15:00 18.6 C 70 % 13.02 C
2477 02-07-2016 14:20:00 18.6 C 73 % 13.67 C
2478 02-07-2016 14:25:00 18.6 C 71 % 13.24 C
2479 02-07-2016 14:30:00 18.6 C 72 % 13.46 C
2480 02-07-2016 14:35:00 18.6 C 73 % 13.67 C
2481 02-07-2016 14:40:00 18.8 C 70 % 13.22 C
2482 02-07-2016 14:45:00 18.8 C 68 % 12.77 C
2483 02-07-2016 14:50:00 18.9 C 68 % 12.87 C
2484 02-07-2016 14:55:00 19.1 C 65 % 12.37 C
2485 02-07-2016 15:00:00 19.2 C 69 % 13.38 C
2486 02-07-2016 15:05:00 19.1 C 68 % 13.06 C
2487 02-07-2016 15:10:00 19 C 66 % 12.51 C
2488 02-07-2016 15:15:00 19.1 C 67 % 12.83 C
2489 02-07-2016 15:20:00 19.4 C 68 % 13.34 C
2490 02-07-2016 15:25:00 19.7 C 65 % 12.94 C
2491 02-07-2016 15:30:00 19.9 C 63 % 12.65 C
2492 02-07-2016 15:35:00 20.4 C 60 % 12.38 C
2493 02-07-2016 15:40:00 21 C 57 % 12.16 C
2494 02-07-2016 15:45:00 21.4 C 54 % 11.71 C
2495 02-07-2016 15:50:00 21.7 C 53 % 11.71 C
2496 02-07-2016 15:55:00 22 C 45 % 9.53 C
2497 02-07-2016 16:00:00 22.3 C 45 % 9.8 C
2498 02-07-2016 16:05:00 22.5 C 44 % 9.65 C
2499 02-07-2016 16:10:00 22.1 C 42 % 8.6 C
2500 02-07-2016 16:15:00 21.7 C 45 % 9.26 C
Sensor: Nr:Datum:Temp:Feuchte:Taupunkt:
Aussen-T/F 2501 02-07-2016 16:20:00 21.6 C 46 % 9.49 C
2502 02-07-2016 16:25:00 21.3 C 47 % 9.54 C
2503 02-07-2016 16:30:00 21 C 44 % 8.29 C
2504 02-07-2016 16:35:00 20.7 C 46 % 8.67 C
2505 02-07-2016 16:40:00 20.3 C 48 % 8.94 C
2506 02-07-2016 16:45:00 20 C 49 % 8.97 C
2507 02-07-2016 16:50:00 19.8 C 49 % 8.79 C
2508 02-07-2016 16:55:00 19.7 C 52 % 9.58 C
2509 02-07-2016 17:00:00 19.4 C 51 % 9.01 C
2510 02-07-2016 17:05:00 19.3 C 56 % 10.31 C
2511 02-07-2016 17:10:00 19.4 C 57 % 10.67 C
2512 02-07-2016 17:15:00 19.3 C 58 % 10.84 C
2513 02-07-2016 17:20:00 19.3 C 59 % 11.09 C
2514 02-07-2016 17:25:00 19.4 C 56 % 10.4 C
2515 02-07-2016 17:30:00 19.2 C 59 % 11 C
2516 02-07-2016 17:35:00 19.2 C 56 % 10.22 C
2517 02-07-2016 17:40:00 19.1 C 58 % 10.65 C
2518 02-07-2016 17:45:00 19.1 C 59 % 10.91 C
2519 02-07-2016 17:50:00 19.3 C 60 % 11.35 C
2520 02-07-2016 17:55:00 19.7 C 56 % 10.68 C
2521 02-07-2016 18:00:00 19.7 C 57 % 10.95 C
2522 02-07-2016 18:05:00 20 C 54 % 10.42 C
2523 02-07-2016 18:10:00 20.2 C 52 % 10.04 C
2524 02-07-2016 18:15:00 19.9 C 55 % 10.6 C
2525 02-07-2016 18:20:00 19.4 C 56 % 10.4 C
Sensor: Nr:Datum:Temp:Feuchte:Taupunkt:
Aussen-T/F 2526 02-07-2016 18:25:00 19.1 C 54 % 9.58 C
2527 02-07-2016 18:30:00 18.8 C 57 % 10.11 C
2528 02-07-2016 18:35:00 18.4 C 56 % 9.47 C
2529 02-07-2016 18:40:00 18.2 C 58 % 9.81 C
2530 02-07-2016 18:45:00 18 C 60 % 10.13 C
2531 02-07-2016 18:50:00 17.8 C 60 % 9.94 C
2532 02-07-2016 18:55:00 17.6 C 63 % 10.48 C
2533 02-07-2016 19:00:00 17.4 C 63 % 10.29 C
2534 02-07-2016 19:05:00 17.3 C 62 % 9.96 C
2535 02-07-2016 19:10:00 17.3 C 62 % 9.96 C
2536 02-07-2016 19:15:00 17.4 C 64 % 10.53 C
2537 02-07-2016 19:20:00 18.1 C 62 % 10.71 C
2538 02-07-2016 19:25:00 18.5 C 60 % 10.6 C
2539 02-07-2016 19:30:00 18.4 C 63 % 11.23 C
2540 02-07-2016 19:35:00 18.4 C 62 % 10.99 C
2541 02-07-2016 19:40:00 18.3 C 64 % 11.38 C
2542 02-07-2016 19:45:00 17.9 C 65 % 11.23 C
2543 02-07-2016 19:50:00 17.7 C 67 % 11.5 C
2544 02-07-2016 19:55:00 17.3 C 69 % 11.56 C
2545 02-07-2016 20:00:00 17 C 69 % 11.28 C
2546 02-07-2016 20:05:00 16.8 C 66 % 10.42 C
2547 02-07-2016 20:10:00 16.8 C 66 % 10.42 C
2548 02-07-2016 20:15:00 16.8 C 67 % 10.64 C
2549 02-07-2016 20:20:00 16.7 C 68 % 10.77 C
2550 02-07-2016 20:25:00 16.6 C 69 % 10.89 C
Sensor: Nr:Datum:Temp:Feuchte:Taupunkt:
Aussen-T/F 2551 02-07-2016 20:30:00 16.5 C 69 % 10.8 C
2552 02-07-2016 20:35:00 16.4 C 73 % 11.55 C
2553 02-07-2016 20:40:00 16.4 C 74 % 11.76 C
2554 02-07-2016 20:45:00 16.4 C 74 % 11.76 C
2555 02-07-2016 20:50:00 16.6 C 76 % 12.36 C
2556 02-07-2016 20:55:00 16.6 C 76 % 12.36 C
2557 02-07-2016 21:00:00 16.5 C 76 % 12.26 C
2558 02-07-2016 21:05:00 16.3 C 76 % 12.07 C
2559 02-07-2016 21:10:00 16.1 C 78 % 12.27 C
2560 02-07-2016 21:15:00 15.8 C 77 % 11.78 C
2561 02-07-2016 21:20:00 15.5 C 79 % 11.88 C
2562 02-07-2016 21:25:00 15.2 C 79 % 11.59 C
2563 02-07-2016 21:30:00 14.9 C 80 % 11.48 C
2564 02-07-2016 21:35:00 14.7 C 81 % 11.48 C
2565 02-07-2016 21:40:00 14.4 C 81 % 11.18 C
2566 02-07-2016 21:45:00 14.2 C 82 % 11.17 C
2567 02-07-2016 21:50:00 14.1 C 82 % 11.08 C
2568 02-07-2016 21:55:00 13.8 C 82 % 10.78 C
2569 02-07-2016 22:00:00 13.7 C 83 % 10.87 C
2570 02-07-2016 22:05:00 13.6 C 83 % 10.77 C
2571 02-07-2016 22:10:00 13.4 C 84 % 10.75 C
2572 02-07-2016 22:15:00 13.3 C 84 % 10.66 C
2573 02-07-2016 22:20:00 13.2 C 84 % 10.56 C
2574 02-07-2016 22:25:00 13.2 C 84 % 10.56 C
2575 02-07-2016 22:30:00 13.1 C 85 % 10.64 C
Sensor: Nr:Datum:Temp:Feuchte:Taupunkt:
Aussen-T/F 2576 02-07-2016 22:35:00 13 C 85 % 10.54 C
2577 02-07-2016 22:40:00 12.9 C 85 % 10.44 C
2578 02-07-2016 22:45:00 13 C 87 % 10.89 C
2579 02-07-2016 22:50:00 13.1 C 87 % 10.99 C
2580 02-07-2016 22:55:00 13.1 C 87 % 10.99 C
2581 02-07-2016 23:00:00 13.2 C 87 % 11.09 C
2582 02-07-2016 23:05:00 13.2 C 86 % 10.91 C
2583 02-07-2016 23:10:00 13.1 C 86 % 10.81 C
2584 02-07-2016 23:15:00 13.1 C 86 % 10.81 C
2585 02-07-2016 23:20:00 13 C 86 % 10.72 C
2586 02-07-2016 23:25:00 12.9 C 87 % 10.79 C
2587 02-07-2016 23:30:00 12.8 C 87 % 10.69 C
2588 02-07-2016 23:35:00 12.8 C 87 % 10.69 C
2589 02-07-2016 23:40:00 12.7 C 88 % 10.77 C
2590 02-07-2016 23:45:00 12.7 C 88 % 10.77 C
2591 02-07-2016 23:50:00 12.7 C 88 % 10.77 C
2592 02-07-2016 23:55:00 12.7 C 88 % 10.77 C
2593 03-07-2016 00:00:00 12.7 C 89 % 10.94 C
2594 03-07-2016 00:05:00 12.7 C 89 % 10.94 C
2595 03-07-2016 00:10:00 12.7 C 89 % 10.94 C
2596 03-07-2016 00:15:00 12.6 C 89 % 10.84 C
2597 03-07-2016 00:20:00 12.6 C 88 % 10.67 C
2598 03-07-2016 00:25:00 12.5 C 88 % 10.57 C
2599 03-07-2016 00:30:00 12.4 C 88 % 10.47 C
2600 03-07-2016 00:35:00 12.4 C 89 % 10.64 C
Sensor: Nr:Datum:Temp:Feuchte:Taupunkt:
Aussen-T/F 2601 03-07-2016 00:40:00 12.3 C 89 % 10.54 C
2602 03-07-2016 00:45:00 12.3 C 89 % 10.54 C
2603 03-07-2016 00:50:00 12.2 C 89 % 10.44 C
2604 03-07-2016 00:55:00 12.2 C 89 % 10.44 C
2605 03-07-2016 01:00:00 11.6 C 91 % 10.18 C
2606 03-07-2016 01:05:00 11.6 C 91 % 10.18 C
2607 03-07-2016 01:10:00 11.6 C 91 % 10.18 C
2608 03-07-2016 01:15:00 11.6 C 92 % 10.35 C
2609 03-07-2016 01:20:00 11.7 C 92 % 10.44 C
2610 03-07-2016 01:25:00 11.8 C 92 % 10.54 C
2611 03-07-2016 01:30:00 11.8 C 91 % 10.38 C
2612 03-07-2016 01:35:00 11.8 C 91 % 10.38 C
2613 03-07-2016 01:40:00 11.8 C 91 % 10.38 C
2614 03-07-2016 01:45:00 11.9 C 91 % 10.48 C
2615 03-07-2016 01:50:00 11.9 C 90 % 10.31 C
2616 03-07-2016 01:55:00 12.1 C 90 % 10.51 C
2617 03-07-2016 02:00:00 12.2 C 89 % 10.44 C
2618 03-07-2016 02:05:00 12.2 C 89 % 10.44 C
2619 03-07-2016 02:10:00 12.2 C 89 % 10.44 C
2620 03-07-2016 02:15:00 12.3 C 89 % 10.54 C
2621 03-07-2016 02:20:00 12.3 C 88 % 10.37 C
2622 03-07-2016 02:25:00 12.3 C 88 % 10.37 C
2623 03-07-2016 02:30:00 12.3 C 88 % 10.37 C
2624 03-07-2016 02:35:00 12.3 C 88 % 10.37 C
2625 03-07-2016 02:40:00 12.3 C 88 % 10.37 C
Sensor: Nr:Datum:Temp:Feuchte:Taupunkt:
Aussen-T/F 2626 03-07-2016 02:45:00 12.2 C 88 % 10.27 C
2627 03-07-2016 02:50:00 12.2 C 88 % 10.27 C
2628 03-07-2016 02:55:00 12.1 C 88 % 10.17 C
2629 03-07-2016 03:00:00 12 C 89 % 10.25 C
2630 03-07-2016 03:05:00 11.9 C 89 % 10.15 C
2631 03-07-2016 03:10:00 11.9 C 89 % 10.15 C
2632 03-07-2016 03:15:00 11.9 C 89 % 10.15 C
2633 03-07-2016 03:20:00 11.9 C 89 % 10.15 C
2634 03-07-2016 03:25:00 11.9 C 89 % 10.15 C
2635 03-07-2016 03:30:00 11.9 C 89 % 10.15 C
2636 03-07-2016 03:35:00 11.9 C 89 % 10.15 C
2637 03-07-2016 03:40:00 11.9 C 90 % 10.31 C
2638 03-07-2016 04:25:00 11.9 C 90 % 10.31 C
2639 03-07-2016 04:30:00 11.9 C 90 % 10.31 C
2640 03-07-2016 04:35:00 11.9 C 90 % 10.31 C
2641 03-07-2016 04:40:00 11.9 C 90 % 10.31 C
2642 03-07-2016 04:45:00 11.9 C 90 % 10.31 C
2643 03-07-2016 04:50:00 11.9 C 89 % 10.15 C
2644 03-07-2016 04:55:00 11.9 C 90 % 10.31 C
2645 03-07-2016 05:00:00 11.9 C 90 % 10.31 C
2646 03-07-2016 05:05:00 11.8 C 90 % 10.21 C
2647 03-07-2016 05:10:00 11.8 C 91 % 10.38 C
2648 03-07-2016 05:15:00 11.8 C 91 % 10.38 C
2649 03-07-2016 05:20:00 11.8 C 91 % 10.38 C
2650 03-07-2016 05:25:00 11.7 C 91 % 10.28 C
Sensor: Nr:Datum:Temp:Feuchte:Taupunkt:
Aussen-T/F 2651 03-07-2016 05:30:00 11.7 C 91 % 10.28 C
2652 03-07-2016 05:35:00 11.7 C 91 % 10.28 C
2653 03-07-2016 05:40:00 11.6 C 91 % 10.18 C
2654 03-07-2016 05:45:00 11.6 C 91 % 10.18 C
2655 03-07-2016 05:50:00 11.6 C 91 % 10.18 C
2656 03-07-2016 05:55:00 11.6 C 91 % 10.18 C
2657 03-07-2016 06:00:00 11.6 C 92 % 10.35 C
2658 03-07-2016 06:05:00 11.6 C 92 % 10.35 C
2659 03-07-2016 06:10:00 11.6 C 92 % 10.35 C
2660 03-07-2016 06:15:00 11.6 C 92 % 10.35 C
2661 03-07-2016 06:20:00 11.7 C 92 % 10.44 C
2662 03-07-2016 06:25:00 11.7 C 92 % 10.44 C
2663 03-07-2016 06:30:00 11.8 C 92 % 10.54 C
2664 03-07-2016 06:35:00 11.8 C 92 % 10.54 C
2665 03-07-2016 06:40:00 11.8 C 92 % 10.54 C
2666 03-07-2016 06:45:00 11.9 C 92 % 10.64 C
2667 03-07-2016 06:50:00 11.9 C 92 % 10.64 C
2668 03-07-2016 06:55:00 12.1 C 92 % 10.84 C
2669 03-07-2016 07:00:00 12.1 C 92 % 10.84 C
2670 03-07-2016 07:05:00 12.2 C 91 % 10.78 C
2671 03-07-2016 07:10:00 12.3 C 92 % 11.04 C
2672 03-07-2016 07:15:00 12.4 C 92 % 11.14 C
2673 03-07-2016 07:20:00 12.5 C 91 % 11.07 C
2674 03-07-2016 07:25:00 12.6 C 91 % 11.17 C
2675 03-07-2016 07:30:00 12.7 C 90 % 11.1 C
Sensor: Nr:Datum:Temp:Feuchte:Taupunkt:
Aussen-T/F 2676 03-07-2016 07:35:00 12.7 C 90 % 11.1 C
2677 03-07-2016 07:40:00 12.8 C 90 % 11.2 C
2678 03-07-2016 07:45:00 12.9 C 89 % 11.13 C
2679 03-07-2016 07:50:00 12.9 C 89 % 11.13 C
2680 03-07-2016 07:55:00 13.1 C 88 % 11.16 C
2681 03-07-2016 08:00:00 13.1 C 88 % 11.16 C
2682 03-07-2016 08:05:00 13.2 C 88 % 11.26 C
2683 03-07-2016 08:10:00 13.3 C 88 % 11.36 C
2684 03-07-2016 08:15:00 13.4 C 87 % 11.28 C
2685 03-07-2016 08:20:00 13.5 C 87 % 11.38 C
2686 03-07-2016 08:25:00 13.7 C 87 % 11.58 C
2687 03-07-2016 08:30:00 13.8 C 86 % 11.5 C
2688 03-07-2016 08:35:00 13.8 C 86 % 11.5 C
2689 03-07-2016 08:40:00 13.9 C 86 % 11.6 C
2690 03-07-2016 08:45:00 14.1 C 86 % 11.8 C
2691 03-07-2016 08:50:00 14.3 C 85 % 11.81 C
2692 03-07-2016 08:55:00 14.5 C 84 % 11.83 C
2693 03-07-2016 09:00:00 14.6 C 83 % 11.75 C
2694 03-07-2016 09:05:00 14.5 C 83 % 11.65 C
2695 03-07-2016 09:10:00 14.6 C 84 % 11.93 C
2696 03-07-2016 09:25:00 14.7 C 84 % 12.03 C
2697 03-07-2016 09:30:00 14.8 C 85 % 12.3 C
2698 03-07-2016 09:35:00 18.1 C 74 % 13.4 C
2699 03-07-2016 09:40:00 18.2 C 74 % 13.49 C
2700 03-07-2016 09:45:00 18.1 C 71 % 12.76 C
Sensor: Nr:Datum:Temp:Feuchte:Taupunkt:
Aussen-T/F 2701 03-07-2016 09:50:00 17.9 C 69 % 12.14 C
2702 03-07-2016 09:55:00 17.8 C 73 % 12.9 C
2703 03-07-2016 10:00:00 17.7 C 72 % 12.59 C
2704 03-07-2016 10:05:00 17.7 C 72 % 12.59 C
2705 03-07-2016 10:10:00 17.8 C 73 % 12.9 C
2706 03-07-2016 10:15:00 17.8 C 73 % 12.9 C
2707 03-07-2016 10:20:00 17.8 C 74 % 13.11 C
2708 03-07-2016 10:25:00 17.6 C 71 % 12.28 C
2709 03-07-2016 10:30:00 17.4 C 72 % 12.3 C
2710 03-07-2016 10:35:00 17.2 C 77 % 13.14 C
2711 03-07-2016 10:40:00 17 C 78 % 13.14 C
2712 03-07-2016 10:45:00 16.8 C 81 % 13.52 C
2713 03-07-2016 12:05:00 16.7 C 81 % 13.43 C
2714 03-07-2016 12:10:00 16.4 C 83 % 13.51 C
2715 03-07-2016 12:15:00 16.2 C 85 % 13.68 C
2716 03-07-2016 12:20:00 16 C 86 % 13.66 C
2717 03-07-2016 12:25:00 15.8 C 87 % 13.64 C
2718 03-07-2016 12:30:00 15.6 C 88 % 13.62 C
2719 03-07-2016 12:35:00 15.5 C 89 % 13.7 C
2720 03-07-2016 12:40:00 15.4 C 90 % 13.77 C
2721 03-07-2016 12:45:00 15.5 C 91 % 14.04 C
2722 03-07-2016 12:50:00 15.4 C 89 % 13.6 C
2723 03-07-2016 12:55:00 15.4 C 89 % 13.6 C
2724 03-07-2016 13:00:00 15.4 C 88 % 13.42 C
2725 03-07-2016 13:05:00 15.7 C 89 % 13.89 C
Sensor: Nr:Datum:Temp:Feuchte:Taupunkt:
Aussen-T/F 2726 03-07-2016 13:10:00 15.9 C 89 % 14.09 C
2727 03-07-2016 13:15:00 16.2 C 84 % 13.5 C
2728 03-07-2016 13:20:00 16.4 C 84 % 13.69 C
2729 03-07-2016 13:25:00 16.7 C 84 % 13.98 C
2730 03-07-2016 13:30:00 17 C 79 % 13.33 C
2731 03-07-2016 13:35:00 17.2 C 79 % 13.53 C
2732 03-07-2016 13:40:00 17.2 C 80 % 13.72 C
2733 03-07-2016 13:45:00 17.3 C 81 % 14.01 C
2734 03-07-2016 13:50:00 17.4 C 79 % 13.72 C
2735 03-07-2016 13:55:00 17.6 C 77 % 13.52 C
2736 03-07-2016 14:00:00 17.7 C 76 % 13.42 C
2737 03-07-2016 14:05:00 17.5 C 75 % 13.02 C
2738 03-07-2016 14:10:00 17.1 C 69 % 11.37 C
2739 03-07-2016 14:15:00 16.2 C 71 % 10.94 C
2740 03-07-2016 14:20:00 15.4 C 79 % 11.78 C
2741 03-07-2016 14:25:00 14.8 C 82 % 11.76 C
2742 03-07-2016 14:30:00 14.3 C 85 % 11.81 C
2743 03-07-2016 14:35:00 14.1 C 87 % 11.97 C
2744 03-07-2016 14:40:00 14.1 C 89 % 12.32 C
2745 03-07-2016 14:45:00 14.1 C 90 % 12.49 C
2746 03-07-2016 14:50:00 14.2 C 91 % 12.75 C
2747 03-07-2016 14:55:00 14.6 C 92 % 13.32 C
2748 03-07-2016 15:00:00 14.8 C 92 % 13.51 C
2749 03-07-2016 15:05:00 14.9 C 91 % 13.44 C
2750 03-07-2016 15:10:00 15.2 C 91 % 13.74 C
Sensor: Nr:Datum:Temp:Feuchte:Taupunkt:
Aussen-T/F 2751 03-07-2016 15:15:00 15.4 C 91 % 13.94 C
2752 03-07-2016 15:20:00 15.6 C 90 % 13.97 C
2753 03-07-2016 15:25:00 15.8 C 91 % 14.33 C
2754 03-07-2016 15:30:00 16.2 C 92 % 14.9 C
2755 03-07-2016 15:35:00 16.5 C 90 % 14.85 C
2756 03-07-2016 15:40:00 16.9 C 90 % 15.25 C
2757 03-07-2016 15:45:00 17.2 C 88 % 15.2 C
2758 03-07-2016 15:50:00 17.8 C 84 % 15.06 C
2759 03-07-2016 15:55:00 18.4 C 82 % 15.27 C
2760 03-07-2016 16:00:00 18.9 C 82 % 15.76 C
2761 03-07-2016 16:05:00 19.3 C 80 % 15.76 C
2762 03-07-2016 16:10:00 19.7 C 75 % 15.15 C
2763 03-07-2016 16:15:00 19.9 C 74 % 15.13 C
2764 03-07-2016 16:20:00 19.9 C 74 % 15.13 C
2765 03-07-2016 16:25:00 20.2 C 74 % 15.42 C
2766 03-07-2016 16:30:00 20.4 C 71 % 14.97 C
2767 03-07-2016 16:35:00 20.7 C 70 % 15.03 C
2768 03-07-2016 16:40:00 20.7 C 70 % 15.03 C
2769 03-07-2016 16:45:00 20.7 C 70 % 15.03 C
2770 03-07-2016 16:50:00 21 C 71 % 15.54 C
2771 03-07-2016 16:55:00 21.2 C 68 % 15.06 C
2772 03-07-2016 17:00:00 21.3 C 64 % 14.22 C
2773 03-07-2016 17:05:00 21.4 C 64 % 14.31 C
2774 03-07-2016 17:10:00 21.2 C 60 % 13.13 C
2775 03-07-2016 17:15:00 20.2 C 63 % 12.94 C
Sensor: Nr:Datum:Temp:Feuchte:Taupunkt:
Aussen-T/F 2776 03-07-2016 17:20:00 19.2 C 66 % 12.7 C
2777 03-07-2016 17:25:00 18.6 C 71 % 13.24 C
2778 03-07-2016 17:30:00 18.2 C 76 % 13.9 C
2779 03-07-2016 17:35:00 18 C 77 % 13.91 C
2780 03-07-2016 17:40:00 17.9 C 78 % 14.01 C
2781 03-07-2016 17:45:00 18.2 C 72 % 13.07 C
2782 03-07-2016 17:50:00 18.7 C 70 % 13.12 C
2783 03-07-2016 17:55:00 18.9 C 68 % 12.87 C
2784 03-07-2016 18:00:00 18.9 C 71 % 13.53 C
2785 03-07-2016 18:05:00 18.9 C 73 % 13.96 C
2786 03-07-2016 18:10:00 18.9 C 69 % 13.09 C
2787 03-07-2016 18:15:00 19 C 74 % 14.26 C
2788 03-07-2016 18:20:00 18.9 C 70 % 13.31 C
2789 03-07-2016 18:25:00 18.8 C 74 % 14.07 C
2790 03-07-2016 18:30:00 18.7 C 76 % 14.39 C
2791 03-07-2016 18:35:00 18.6 C 77 % 14.49 C
2792 03-07-2016 18:40:00 18.8 C 77 % 14.68 C
2793 03-07-2016 18:45:00 19.4 C 73 % 14.44 C
2794 03-07-2016 18:50:00 20.1 C 67 % 13.78 C
2795 03-07-2016 18:55:00 20 C 65 % 13.22 C
2796 03-07-2016 19:00:00 19.8 C 67 % 13.5 C
2797 03-07-2016 19:05:00 20.1 C 67 % 13.78 C
2798 03-07-2016 19:10:00 20.1 C 66 % 13.55 C
2799 03-07-2016 19:15:00 19.9 C 68 % 13.82 C
2800 03-07-2016 19:20:00 19.7 C 72 % 14.51 C
Sensor: Nr:Datum:Temp:Feuchte:Taupunkt:
Aussen-T/F 2801 03-07-2016 19:25:00 19.4 C 73 % 14.44 C
2802 03-07-2016 19:30:00 19.1 C 75 % 14.57 C
2803 03-07-2016 19:35:00 18.8 C 78 % 14.88 C
2804 03-07-2016 19:40:00 18.4 C 79 % 14.69 C
2805 03-07-2016 19:45:00 18.1 C 79 % 14.4 C
2806 03-07-2016 19:50:00 17.8 C 78 % 13.91 C
2807 03-07-2016 19:55:00 17.7 C 79 % 14.01 C
2808 03-07-2016 20:00:00 17.8 C 79 % 14.11 C
2809 03-07-2016 20:05:00 18.1 C 81 % 14.79 C
2810 03-07-2016 20:10:00 18.2 C 80 % 14.69 C
2811 03-07-2016 20:15:00 18.1 C 80 % 14.6 C
2812 03-07-2016 20:20:00 17.8 C 80 % 14.31 C
2813 03-07-2016 20:25:00 17.5 C 80 % 14.01 C
2814 03-07-2016 20:30:00 17.3 C 80 % 13.82 C
2815 03-07-2016 20:35:00 17 C 81 % 13.72 C
2816 03-07-2016 20:40:00 16.8 C 81 % 13.52 C
2817 03-07-2016 20:45:00 16.7 C 81 % 13.43 C
2818 03-07-2016 20:50:00 16.6 C 81 % 13.33 C
2819 03-07-2016 20:55:00 16.4 C 82 % 13.32 C
2820 03-07-2016 21:00:00 16.3 C 82 % 13.22 C
2821 03-07-2016 21:05:00 16.2 C 82 % 13.13 C
2822 03-07-2016 21:10:00 16 C 82 % 12.93 C
2823 03-07-2016 21:15:00 15.8 C 81 % 12.55 C
2824 03-07-2016 21:20:00 15.7 C 81 % 12.45 C
2825 03-07-2016 21:25:00 15.7 C 82 % 12.64 C
Sensor: Nr:Datum:Temp:Feuchte:Taupunkt:
Aussen-T/F 2826 03-07-2016 21:30:00 15.7 C 82 % 12.64 C
2827 03-07-2016 21:35:00 15.6 C 81 % 12.35 C
2828 03-07-2016 21:40:00 15.6 C 82 % 12.54 C
2829 03-07-2016 21:45:00 15.5 C 83 % 12.63 C
2830 03-07-2016 21:50:00 15.5 C 83 % 12.63 C
2831 03-07-2016 21:55:00 15.4 C 83 % 12.53 C
2832 03-07-2016 22:00:00 15.4 C 83 % 12.53 C
2833 03-07-2016 22:05:00 15.3 C 83 % 12.43 C
2834 03-07-2016 22:10:00 15.3 C 83 % 12.43 C
2835 03-07-2016 22:15:00 15.2 C 83 % 12.33 C
2836 03-07-2016 22:20:00 15.2 C 85 % 12.7 C
2837 03-07-2016 22:25:00 15.2 C 85 % 12.7 C
2838 03-07-2016 22:30:00 15.1 C 85 % 12.6 C
2839 03-07-2016 22:35:00 15.1 C 86 % 12.78 C
2840 03-07-2016 22:40:00 15.1 C 86 % 12.78 C
2841 03-07-2016 22:45:00 15.1 C 86 % 12.78 C
2842 03-07-2016 22:50:00 15 C 87 % 12.86 C
2843 03-07-2016 22:55:00 15 C 87 % 12.86 C
2844 03-07-2016 23:00:00 15 C 87 % 12.86 C
2845 03-07-2016 23:05:00 15 C 88 % 13.03 C
2846 03-07-2016 23:10:00 14.9 C 88 % 12.93 C
2847 03-07-2016 23:15:00 14.8 C 87 % 12.66 C
2848 03-07-2016 23:20:00 14.6 C 87 % 12.46 C
2849 03-07-2016 23:25:00 14.5 C 87 % 12.36 C
2850 03-07-2016 23:30:00 14.4 C 88 % 12.44 C
Sensor: Nr:Datum:Temp:Feuchte:Taupunkt:
Aussen-T/F 2851 03-07-2016 23:35:00 14.3 C 88 % 12.34 C
2852 03-07-2016 23:40:00 14.2 C 87 % 12.07 C
2853 03-07-2016 23:45:00 14.1 C 87 % 11.97 C
2854 03-07-2016 23:50:00 13.9 C 88 % 11.95 C
2855 03-07-2016 23:55:00 13.9 C 88 % 11.95 C
2856 04-07-2016 00:00:00 13.8 C 88 % 11.85 C
2857 04-07-2016 00:05:00 13.7 C 88 % 11.75 C
2858 04-07-2016 00:10:00 13.6 C 88 % 11.65 C
2859 04-07-2016 00:15:00 13.4 C 88 % 11.45 C
2860 04-07-2016 00:20:00 13.3 C 89 % 11.53 C
2861 04-07-2016 00:25:00 13.1 C 89 % 11.33 C
2862 04-07-2016 00:30:00 13 C 89 % 11.23 C
2863 04-07-2016 00:35:00 12.8 C 90 % 11.2 C
2864 04-07-2016 00:40:00 12.7 C 90 % 11.1 C
2865 04-07-2016 00:45:00 12.6 C 90 % 11 C
2866 04-07-2016 00:50:00 12.5 C 90 % 10.91 C
2867 04-07-2016 00:55:00 12.3 C 91 % 10.87 C
2868 04-07-2016 01:00:00 12.2 C 91 % 10.78 C
2869 04-07-2016 01:05:00 12.2 C 91 % 10.78 C
2870 04-07-2016 01:10:00 12.1 C 91 % 10.68 C
2871 04-07-2016 01:15:00 12 C 92 % 10.74 C
2872 04-07-2016 01:20:00 11.9 C 92 % 10.64 C
2873 04-07-2016 01:25:00 11.8 C 92 % 10.54 C
2874 04-07-2016 01:30:00 11.8 C 92 % 10.54 C
2875 04-07-2016 01:35:00 11.7 C 92 % 10.44 C
Sensor: Nr:Datum:Temp:Feuchte:Taupunkt:
Aussen-T/F 2876 04-07-2016 01:40:00 11.7 C 93 % 10.61 C
2877 04-07-2016 01:45:00 11.6 C 93 % 10.51 C
2878 04-07-2016 01:50:00 11.6 C 93 % 10.51 C
2879 04-07-2016 01:55:00 11.6 C 93 % 10.51 C
2880 04-07-2016 02:00:00 11.6 C 93 % 10.51 C
2881 04-07-2016 02:05:00 11.6 C 93 % 10.51 C
2882 04-07-2016 02:10:00 11.5 C 93 % 10.41 C
2883 04-07-2016 02:15:00 11.4 C 93 % 10.31 C
2884 04-07-2016 02:20:00 11.5 C 94 % 10.57 C
2885 04-07-2016 02:25:00 11.6 C 94 % 10.67 C
2886 04-07-2016 02:30:00 11.7 C 94 % 10.77 C
2887 04-07-2016 02:35:00 11.8 C 94 % 10.87 C
2888 04-07-2016 02:40:00 11.8 C 94 % 10.87 C
2889 04-07-2016 02:45:00 11.9 C 94 % 10.97 C
2890 04-07-2016 02:50:00 12 C 94 % 11.07 C
2891 04-07-2016 02:55:00 12.1 C 94 % 11.16 C
2892 04-07-2016 03:00:00 12.1 C 94 % 11.16 C
2893 04-07-2016 03:05:00 12.2 C 93 % 11.1 C
2894 04-07-2016 03:10:00 12.2 C 93 % 11.1 C
2895 04-07-2016 03:15:00 12.2 C 93 % 11.1 C
2896 04-07-2016 03:20:00 12.2 C 93 % 11.1 C
2897 04-07-2016 03:25:00 12.2 C 93 % 11.1 C
2898 04-07-2016 03:30:00 12.2 C 93 % 11.1 C
2899 04-07-2016 03:35:00 12.2 C 93 % 11.1 C
2900 04-07-2016 03:40:00 12.2 C 93 % 11.1 C
Sensor: Nr:Datum:Temp:Feuchte:Taupunkt:
Aussen-T/F 2901 04-07-2016 03:45:00 12.2 C 93 % 11.1 C
2902 04-07-2016 03:50:00 12.2 C 93 % 11.1 C
2903 04-07-2016 03:55:00 12.2 C 93 % 11.1 C
2904 04-07-2016 04:00:00 12.1 C 93 % 11 C
2905 04-07-2016 04:05:00 12.1 C 93 % 11 C
2906 04-07-2016 04:10:00 12.1 C 93 % 11 C
2907 04-07-2016 04:15:00 12.1 C 93 % 11 C
2908 04-07-2016 04:20:00 12.1 C 93 % 11 C
2909 04-07-2016 04:25:00 12.1 C 93 % 11 C
2910 04-07-2016 04:30:00 12 C 94 % 11.07 C
2911 04-07-2016 04:35:00 12 C 94 % 11.07 C
2912 04-07-2016 04:40:00 12 C 94 % 11.07 C
2913 04-07-2016 04:45:00 12 C 94 % 11.07 C
2914 04-07-2016 04:50:00 12.1 C 94 % 11.16 C
2915 04-07-2016 04:55:00 12.1 C 94 % 11.16 C
2916 04-07-2016 05:00:00 12.1 C 94 % 11.16 C
2917 04-07-2016 05:05:00 12.1 C 94 % 11.16 C
2918 04-07-2016 05:10:00 12.2 C 94 % 11.26 C
2919 04-07-2016 05:15:00 12.2 C 94 % 11.26 C
2920 04-07-2016 05:20:00 12.2 C 94 % 11.26 C
2921 04-07-2016 05:25:00 12.2 C 94 % 11.26 C
2922 04-07-2016 05:30:00 12.2 C 94 % 11.26 C
2923 04-07-2016 05:35:00 12.2 C 94 % 11.26 C
2924 04-07-2016 05:40:00 12.3 C 94 % 11.36 C
2925 04-07-2016 05:45:00 12.3 C 94 % 11.36 C
Sensor: Nr:Datum:Temp:Feuchte:Taupunkt:
Aussen-T/F 2926 04-07-2016 05:50:00 12.3 C 94 % 11.36 C
2927 04-07-2016 05:55:00 12.3 C 94 % 11.36 C
2928 04-07-2016 06:00:00 12.3 C 94 % 11.36 C
2929 04-07-2016 06:05:00 12.3 C 94 % 11.36 C
2930 04-07-2016 06:10:00 12.4 C 94 % 11.46 C
2931 04-07-2016 06:15:00 12.4 C 94 % 11.46 C
2932 04-07-2016 06:20:00 12.4 C 94 % 11.46 C
2933 04-07-2016 06:25:00 12.5 C 94 % 11.56 C
2934 04-07-2016 06:30:00 12.5 C 94 % 11.56 C
2935 04-07-2016 06:35:00 12.6 C 94 % 11.66 C
2936 04-07-2016 06:40:00 12.6 C 94 % 11.66 C
2937 04-07-2016 06:45:00 12.6 C 94 % 11.66 C
2938 04-07-2016 06:50:00 12.7 C 94 % 11.76 C
2939 04-07-2016 06:55:00 12.7 C 94 % 11.76 C
2940 04-07-2016 07:00:00 12.8 C 93 % 11.7 C
2941 04-07-2016 07:05:00 12.9 C 93 % 11.8 C
2942 04-07-2016 07:10:00 13 C 93 % 11.9 C
2943 04-07-2016 07:15:00 13.1 C 93 % 11.99 C
2944 04-07-2016 07:20:00 13.2 C 93 % 12.09 C
2945 04-07-2016 07:25:00 13.3 C 93 % 12.19 C
2946 04-07-2016 07:30:00 13.4 C 92 % 12.13 C
2947 04-07-2016 07:35:00 13.6 C 93 % 12.49 C
2948 04-07-2016 07:40:00 13.7 C 92 % 12.42 C
2949 04-07-2016 07:45:00 13.8 C 92 % 12.52 C
2950 04-07-2016 07:50:00 13.8 C 91 % 12.36 C
Sensor: Nr:Datum:Temp:Feuchte:Taupunkt:
Aussen-T/F 2951 04-07-2016 07:55:00 13.9 C 91 % 12.46 C
2952 04-07-2016 08:00:00 14.1 C 91 % 12.65 C
2953 04-07-2016 08:05:00 14.2 C 90 % 12.58 C
2954 04-07-2016 08:10:00 14.3 C 90 % 12.68 C
2955 04-07-2016 08:15:00 14.4 C 89 % 12.61 C
2956 04-07-2016 08:20:00 14.6 C 90 % 12.98 C
2957 04-07-2016 08:25:00 14.7 C 90 % 13.08 C
2958 04-07-2016 08:30:00 14.8 C 89 % 13.01 C
2959 04-07-2016 08:35:00 14.9 C 89 % 13.1 C
2960 04-07-2016 08:40:00 15 C 89 % 13.2 C
2961 04-07-2016 08:45:00 15.2 C 88 % 13.23 C
2962 04-07-2016 08:50:00 15.3 C 88 % 13.33 C
2963 04-07-2016 08:55:00 15.4 C 88 % 13.42 C
2964 04-07-2016 09:00:00 15.4 C 88 % 13.42 C
2965 04-07-2016 09:05:00 15.5 C 88 % 13.52 C
2966 04-07-2016 09:10:00 15.7 C 88 % 13.72 C
2967 04-07-2016 09:15:00 15.8 C 88 % 13.82 C
2968 04-07-2016 09:20:00 16.1 C 87 % 13.94 C
2969 04-07-2016 09:25:00 16.3 C 87 % 14.13 C
2970 04-07-2016 09:30:00 16.6 C 87 % 14.43 C
2971 04-07-2016 09:35:00 16.9 C 86 % 14.54 C
2972 04-07-2016 09:40:00 17.1 C 83 % 14.19 C
2973 04-07-2016 09:45:00 17.3 C 81 % 14.01 C
2974 04-07-2016 09:50:00 17.5 C 80 % 14.01 C
2975 04-07-2016 09:55:00 17.7 C 81 % 14.4 C
Sensor: Nr:Datum:Temp:Feuchte:Taupunkt:
Aussen-T/F 2976 04-07-2016 10:00:00 17.8 C 79 % 14.11 C
2977 04-07-2016 10:05:00 17.9 C 78 % 14.01 C
2978 04-07-2016 10:10:00 17.9 C 77 % 13.81 C
2979 04-07-2016 10:15:00 18.1 C 80 % 14.6 C
2980 04-07-2016 10:20:00 18.2 C 78 % 14.3 C
2981 04-07-2016 10:25:00 18.3 C 78 % 14.4 C
2982 04-07-2016 10:30:00 18.4 C 76 % 14.1 C
2983 04-07-2016 10:35:00 18.5 C 78 % 14.59 C
2984 04-07-2016 10:40:00 18.6 C 77 % 14.49 C
2985 04-07-2016 10:45:00 18.7 C 76 % 14.39 C
2986 04-07-2016 10:50:00 18.8 C 76 % 14.48 C
2987 04-07-2016 10:55:00 18.9 C 76 % 14.58 C
2988 04-07-2016 11:00:00 18.9 C 79 % 15.18 C
2989 04-07-2016 11:05:00 18.9 C 76 % 14.58 C
2990 04-07-2016 11:10:00 18.9 C 77 % 14.78 C
2991 04-07-2016 11:15:00 18.9 C 77 % 14.78 C
2992 04-07-2016 11:20:00 19.1 C 77 % 14.97 C
2993 04-07-2016 11:25:00 19.3 C 78 % 15.37 C
2994 04-07-2016 11:30:00 19.3 C 75 % 14.76 C
2995 04-07-2016 11:35:00 19.3 C 76 % 14.97 C
2996 04-07-2016 11:40:00 19.3 C 74 % 14.55 C
2997 04-07-2016 11:45:00 19.2 C 79 % 15.47 C
2998 04-07-2016 11:50:00 19.1 C 81 % 15.76 C
2999 04-07-2016 11:55:00 19 C 80 % 15.47 C
3000 04-07-2016 12:00:00 18.8 C 79 % 15.08 C
Sensor: Nr:Datum:Temp:Feuchte:Taupunkt:
Aussen-T/F 3001 04-07-2016 12:05:00 18.6 C 81 % 15.28 C
3002 04-07-2016 12:10:00 18.3 C 82 % 15.17 C
3003 04-07-2016 12:15:00 18 C 84 % 15.26 C
3004 04-07-2016 12:20:00 17.8 C 86 % 15.43 C
3005 04-07-2016 12:25:00 17.8 C 87 % 15.61 C
3006 04-07-2016 12:30:00 17.9 C 85 % 15.34 C
3007 04-07-2016 12:35:00 18.1 C 85 % 15.54 C
3008 04-07-2016 12:40:00 18.2 C 86 % 15.82 C
3009 04-07-2016 12:45:00 18.4 C 84 % 15.65 C
3010 04-07-2016 12:50:00 18.7 C 84 % 15.94 C
3011 04-07-2016 12:55:00 18.8 C 82 % 15.66 C
3012 04-07-2016 13:00:00 18.9 C 82 % 15.76 C
3013 04-07-2016 13:05:00 18.9 C 82 % 15.76 C
3014 04-07-2016 13:10:00 18.9 C 82 % 15.76 C
3015 04-07-2016 13:15:00 18.9 C 81 % 15.57 C
3016 04-07-2016 13:20:00 19 C 85 % 16.42 C
3017 04-07-2016 13:25:00 19.1 C 83 % 16.15 C
3018 04-07-2016 13:30:00 19 C 81 % 15.67 C
3019 04-07-2016 13:35:00 19.1 C 80 % 15.57 C
3020 04-07-2016 13:40:00 19.1 C 80 % 15.57 C
3021 04-07-2016 13:45:00 19.1 C 81 % 15.76 C
3022 04-07-2016 13:50:00 19.2 C 82 % 16.05 C
3023 04-07-2016 13:55:00 19.4 C 80 % 15.86 C
3024 04-07-2016 14:00:00 19.5 C 78 % 15.56 C
3025 04-07-2016 14:05:00 19.7 C 79 % 15.96 C
Sensor: Nr:Datum:Temp:Feuchte:Taupunkt:
Aussen-T/F 3026 04-07-2016 14:10:00 19.9 C 78 % 15.95 C
3027 04-07-2016 14:15:00 20.1 C 76 % 15.74 C
3028 04-07-2016 14:20:00 20.1 C 76 % 15.74 C
3029 04-07-2016 14:25:00 20.1 C 79 % 16.34 C
3030 04-07-2016 14:30:00 20.2 C 76 % 15.83 C
3031 04-07-2016 14:35:00 20.3 C 78 % 16.34 C
3032 04-07-2016 14:40:00 20.3 C 76 % 15.93 C
3033 04-07-2016 14:45:00 20.2 C 75 % 15.63 C
3034 04-07-2016 14:50:00 20.1 C 77 % 15.94 C
3035 04-07-2016 14:55:00 20.1 C 78 % 16.14 C
3036 04-07-2016 15:00:00 20.2 C 77 % 16.04 C
3037 04-07-2016 15:05:00 20.3 C 76 % 15.93 C
3038 04-07-2016 15:10:00 20.5 C 76 % 16.12 C
3039 04-07-2016 15:15:00 20.8 C 77 % 16.62 C
3040 04-07-2016 15:20:00 20.9 C 75 % 16.3 C
3041 04-07-2016 15:25:00 20.9 C 74 % 16.09 C
3042 04-07-2016 15:30:00 21 C 75 % 16.4 C
3043 04-07-2016 15:35:00 21 C 74 % 16.19 C
3044 04-07-2016 15:40:00 21.1 C 74 % 16.29 C
3045 04-07-2016 15:45:00 21.1 C 73 % 16.07 C
3046 04-07-2016 15:50:00 21 C 74 % 16.19 C
3047 04-07-2016 15:55:00 20.9 C 74 % 16.09 C
3048 04-07-2016 16:00:00 20.8 C 75 % 16.21 C
3049 04-07-2016 16:05:00 20.7 C 77 % 16.52 C
3050 04-07-2016 16:10:00 20.8 C 76 % 16.41 C
Sensor: Nr:Datum:Temp:Feuchte:Taupunkt:
Aussen-T/F 3051 04-07-2016 16:15:00 20.9 C 74 % 16.09 C
3052 04-07-2016 16:20:00 20.9 C 75 % 16.3 C
3053 04-07-2016 16:25:00 21 C 76 % 16.61 C
3054 04-07-2016 16:30:00 21.1 C 77 % 16.91 C
3055 04-07-2016 16:35:00 21.2 C 78 % 17.21 C
3056 04-07-2016 16:40:00 21.4 C 76 % 16.99 C
3057 04-07-2016 16:45:00 21.7 C 76 % 17.28 C
3058 04-07-2016 16:50:00 22.1 C 73 % 17.03 C
3059 04-07-2016 16:55:00 22.4 C 73 % 17.32 C
3060 04-07-2016 17:00:00 22.3 C 73 % 17.23 C
3061 04-07-2016 17:05:00 22.4 C 73 % 17.32 C
3062 04-07-2016 17:10:00 22.8 C 71 % 17.27 C
3063 04-07-2016 17:15:00 22.9 C 69 % 16.91 C
3064 04-07-2016 17:20:00 23.1 C 67 % 16.64 C
3065 04-07-2016 17:25:00 23.3 C 69 % 17.29 C
3066 04-07-2016 17:30:00 23.5 C 69 % 17.48 C
3067 04-07-2016 17:35:00 23.6 C 63 % 16.14 C
3068 04-07-2016 17:40:00 23.6 C 65 % 16.64 C
3069 04-07-2016 17:45:00 23.7 C 67 % 17.21 C
3070 04-07-2016 17:50:00 23.8 C 64 % 16.58 C
3071 04-07-2016 17:55:00 24.1 C 63 % 16.62 C
3072 04-07-2016 18:00:00 24.4 C 63 % 16.9 C
3073 04-07-2016 18:05:00 24.6 C 62 % 16.84 C
3074 04-07-2016 18:10:00 24.5 C 62 % 16.74 C
3075 04-07-2016 18:15:00 24.6 C 62 % 16.84 C
Sensor: Nr:Datum:Temp:Feuchte:Taupunkt:
Aussen-T/F 3076 04-07-2016 18:20:00 24.6 C 62 % 16.84 C
3077 04-07-2016 18:25:00 24.7 C 64 % 17.43 C
3078 04-07-2016 18:30:00 24.5 C 63 % 16.99 C
3079 04-07-2016 18:35:00 24.4 C 64 % 17.15 C
3080 04-07-2016 18:40:00 24.8 C 64 % 17.53 C
3081 04-07-2016 18:45:00 25.1 C 62 % 17.31 C
3082 04-07-2016 18:50:00 25.2 C 63 % 17.65 C
3083 04-07-2016 18:55:00 25.4 C 62 % 17.59 C
3084 04-07-2016 19:00:00 25.3 C 62 % 17.5 C
3085 04-07-2016 19:05:00 24.9 C 63 % 17.37 C
3086 04-07-2016 19:10:00 24.5 C 65 % 17.49 C
3087 04-07-2016 19:15:00 24.2 C 66 % 17.45 C
3088 04-07-2016 19:20:00 23.9 C 65 % 16.92 C
3089 04-07-2016 19:25:00 23.8 C 68 % 17.54 C
3090 04-07-2016 19:30:00 23.7 C 66 % 16.97 C
3091 04-07-2016 19:35:00 23.5 C 68 % 17.25 C
3092 04-07-2016 19:40:00 23.4 C 68 % 17.16 C
3093 04-07-2016 19:45:00 23.3 C 69 % 17.29 C
3094 04-07-2016 19:50:00 23.1 C 67 % 16.64 C
3095 04-07-2016 19:55:00 22.9 C 69 % 16.91 C
3096 04-07-2016 20:00:00 22.8 C 71 % 17.27 C
3097 04-07-2016 20:05:00 22.7 C 74 % 17.83 C
3098 04-07-2016 20:10:00 22.7 C 72 % 17.39 C
3099 04-07-2016 20:15:00 22.7 C 73 % 17.61 C
3100 04-07-2016 20:20:00 22.8 C 73 % 17.71 C
Sensor: Nr:Datum:Temp:Feuchte:Taupunkt:
Aussen-T/F 3101 04-07-2016 20:25:00 22.8 C 74 % 17.92 C
3102 04-07-2016 20:30:00 22.7 C 74 % 17.83 C
3103 04-07-2016 20:35:00 22.5 C 74 % 17.63 C
3104 04-07-2016 20:40:00 22.2 C 75 % 17.56 C
3105 04-07-2016 20:45:00 21.9 C 76 % 17.48 C
3106 04-07-2016 20:50:00 21.7 C 76 % 17.28 C
3107 04-07-2016 20:55:00 21.4 C 77 % 17.2 C
3108 04-07-2016 21:00:00 21.1 C 77 % 16.91 C
3109 04-07-2016 21:05:00 20.8 C 78 % 16.82 C
3110 04-07-2016 21:10:00 20.6 C 78 % 16.63 C
3111 04-07-2016 21:15:00 20.4 C 79 % 16.64 C
3112 04-07-2016 21:20:00 20.3 C 80 % 16.74 C
3113 04-07-2016 21:25:00 20.2 C 80 % 16.64 C
3114 04-07-2016 21:30:00 20.1 C 81 % 16.74 C
3115 04-07-2016 21:35:00 19.9 C 81 % 16.54 C
3116 04-07-2016 21:40:00 19.8 C 82 % 16.64 C
3117 04-07-2016 21:45:00 19.6 C 82 % 16.44 C
3118 04-07-2016 21:50:00 19.4 C 83 % 16.44 C
3119 04-07-2016 21:55:00 19.2 C 84 % 16.43 C
3120 04-07-2016 22:00:00 19.1 C 84 % 16.33 C
3121 04-07-2016 22:05:00 19 C 85 % 16.42 C
3122 04-07-2016 22:10:00 18.9 C 85 % 16.32 C
3123 04-07-2016 22:15:00 18.8 C 85 % 16.23 C
3124 04-07-2016 22:20:00 18.8 C 86 % 16.41 C
3125 04-07-2016 22:25:00 18.7 C 86 % 16.31 C
Sensor: Nr:Datum:Temp:Feuchte:Taupunkt:
Aussen-T/F 3126 04-07-2016 22:30:00 18.7 C 86 % 16.31 C
3127 04-07-2016 22:35:00 18.6 C 87 % 16.39 C
3128 04-07-2016 22:40:00 18.5 C 87 % 16.3 C
3129 04-07-2016 22:45:00 18.4 C 87 % 16.2 C
3130 04-07-2016 22:50:00 18.4 C 88 % 16.38 C
3131 04-07-2016 22:55:00 18.4 C 88 % 16.38 C
3132 04-07-2016 23:00:00 18.3 C 88 % 16.28 C
3133 04-07-2016 23:05:00 18.3 C 88 % 16.28 C
3134 04-07-2016 23:10:00 18.3 C 88 % 16.28 C
3135 04-07-2016 23:15:00 18.3 C 88 % 16.28 C
3136 04-07-2016 23:20:00 18.3 C 88 % 16.28 C
3137 04-07-2016 23:25:00 18.3 C 88 % 16.28 C
3138 04-07-2016 23:30:00 18.3 C 88 % 16.28 C
3139 04-07-2016 23:35:00 18.2 C 88 % 16.18 C
3140 04-07-2016 23:40:00 18.2 C 89 % 16.36 C
3141 04-07-2016 23:45:00 18.1 C 89 % 16.26 C
3142 04-07-2016 23:50:00 18.1 C 89 % 16.26 C
3143 04-07-2016 23:55:00 18 C 89 % 16.16 C
3144 05-07-2016 00:00:00 18 C 89 % 16.16 C
3145 05-07-2016 00:05:00 17.9 C 90 % 16.24 C
3146 05-07-2016 00:10:00 17.9 C 90 % 16.24 C
3147 05-07-2016 00:15:00 17.9 C 90 % 16.24 C
3148 05-07-2016 00:20:00 17.9 C 90 % 16.24 C
3149 05-07-2016 00:25:00 17.8 C 90 % 16.14 C
3150 05-07-2016 00:30:00 17.8 C 90 % 16.14 C
Sensor: Nr:Datum:Temp:Feuchte:Taupunkt:
Aussen-T/F 3151 05-07-2016 00:35:00 17.8 C 90 % 16.14 C
3152 05-07-2016 00:40:00 17.8 C 90 % 16.14 C
3153 05-07-2016 00:45:00 17.8 C 90 % 16.14 C
3154 05-07-2016 00:50:00 17.8 C 90 % 16.14 C
3155 05-07-2016 00:55:00 17.8 C 90 % 16.14 C
3156 05-07-2016 01:00:00 17.7 C 90 % 16.04 C
3157 05-07-2016 01:05:00 17.7 C 90 % 16.04 C
3158 05-07-2016 01:10:00 17.7 C 91 % 16.21 C
3159 05-07-2016 01:15:00 17.7 C 91 % 16.21 C
3160 05-07-2016 01:20:00 17.7 C 91 % 16.21 C
3161 05-07-2016 01:25:00 17.7 C 91 % 16.21 C
3162 05-07-2016 01:30:00 17.6 C 91 % 16.11 C
3163 05-07-2016 01:35:00 17.6 C 91 % 16.11 C
3164 05-07-2016 01:40:00 17.6 C 91 % 16.11 C
3165 05-07-2016 01:45:00 17.6 C 91 % 16.11 C
3166 05-07-2016 01:50:00 17.6 C 91 % 16.11 C
3167 05-07-2016 01:55:00 17.6 C 91 % 16.11 C
3168 05-07-2016 02:00:00 17.6 C 91 % 16.11 C
3169 05-07-2016 02:05:00 17.6 C 91 % 16.11 C
3170 05-07-2016 02:10:00 17.6 C 91 % 16.11 C
3171 05-07-2016 02:15:00 17.6 C 91 % 16.11 C
3172 05-07-2016 02:20:00 17.6 C 91 % 16.11 C
3173 05-07-2016 02:25:00 17.6 C 91 % 16.11 C
3174 05-07-2016 02:30:00 17.6 C 91 % 16.11 C
3175 05-07-2016 02:35:00 17.6 C 91 % 16.11 C
Sensor: Nr:Datum:Temp:Feuchte:Taupunkt:
Aussen-T/F 3176 05-07-2016 02:40:00 17.6 C 91 % 16.11 C
3177 05-07-2016 02:45:00 17.6 C 91 % 16.11 C
3178 05-07-2016 02:50:00 17.5 C 91 % 16.01 C
3179 05-07-2016 02:55:00 17.5 C 91 % 16.01 C
3180 05-07-2016 03:00:00 17.4 C 91 % 15.92 C
3181 05-07-2016 03:05:00 17.4 C 91 % 15.92 C
3182 05-07-2016 03:10:00 17.4 C 91 % 15.92 C
3183 05-07-2016 03:15:00 17.4 C 91 % 15.92 C
3184 05-07-2016 03:20:00 17.3 C 91 % 15.82 C
3185 05-07-2016 03:25:00 17.3 C 91 % 15.82 C
3186 05-07-2016 03:30:00 17.3 C 91 % 15.82 C
3187 05-07-2016 03:35:00 17.3 C 91 % 15.82 C
3188 05-07-2016 03:40:00 17.3 C 91 % 15.82 C
3189 05-07-2016 03:45:00 17.3 C 91 % 15.82 C
3190 05-07-2016 03:50:00 17.3 C 91 % 15.82 C
3191 05-07-2016 03:55:00 17.3 C 91 % 15.82 C
3192 05-07-2016 04:00:00 17.3 C 91 % 15.82 C
3193 05-07-2016 04:05:00 17.3 C 91 % 15.82 C
3194 05-07-2016 04:10:00 17.3 C 91 % 15.82 C
3195 05-07-2016 04:15:00 17.3 C 91 % 15.82 C
3196 05-07-2016 04:20:00 17.3 C 91 % 15.82 C
3197 05-07-2016 04:25:00 17.3 C 91 % 15.82 C
3198 05-07-2016 04:30:00 17.3 C 91 % 15.82 C
3199 05-07-2016 04:35:00 17.3 C 91 % 15.82 C
3200 05-07-2016 04:40:00 17.3 C 91 % 15.82 C
Sensor: Nr:Datum:Temp:Feuchte:Taupunkt:
Aussen-T/F 3201 05-07-2016 04:45:00 17.3 C 91 % 15.82 C
3202 05-07-2016 04:50:00 17.2 C 91 % 15.72 C
3203 05-07-2016 04:55:00 17.2 C 91 % 15.72 C
3204 05-07-2016 05:00:00 17.1 C 91 % 15.62 C
3205 05-07-2016 05:05:00 17.1 C 91 % 15.62 C
3206 05-07-2016 05:10:00 17.1 C 91 % 15.62 C
3207 05-07-2016 05:15:00 17 C 91 % 15.52 C
3208 05-07-2016 05:20:00 16.9 C 91 % 15.42 C
3209 05-07-2016 05:25:00 16.9 C 92 % 15.59 C
3210 05-07-2016 05:30:00 16.9 C 92 % 15.59 C
3211 05-07-2016 05:35:00 16.8 C 92 % 15.49 C
3212 05-07-2016 05:40:00 16.8 C 92 % 15.49 C
3213 05-07-2016 05:45:00 16.8 C 92 % 15.49 C
3214 05-07-2016 05:50:00 16.8 C 92 % 15.49 C
3215 05-07-2016 05:55:00 16.8 C 92 % 15.49 C
3216 05-07-2016 06:00:00 16.8 C 92 % 15.49 C
3217 05-07-2016 06:05:00 16.8 C 92 % 15.49 C
3218 05-07-2016 06:10:00 16.8 C 92 % 15.49 C
3219 05-07-2016 06:15:00 16.8 C 92 % 15.49 C
3220 05-07-2016 06:20:00 16.8 C 93 % 15.66 C
3221 05-07-2016 06:25:00 16.9 C 93 % 15.76 C
3222 05-07-2016 06:30:00 16.9 C 93 % 15.76 C
3223 05-07-2016 06:35:00 16.9 C 93 % 15.76 C
3224 05-07-2016 06:40:00 17 C 93 % 15.86 C
3225 05-07-2016 06:45:00 17 C 93 % 15.86 C
Sensor: Nr:Datum:Temp:Feuchte:Taupunkt:
Aussen-T/F 3226 05-07-2016 06:50:00 17.1 C 93 % 15.96 C
3227 05-07-2016 06:55:00 17.1 C 92 % 15.79 C
3228 05-07-2016 07:00:00 17.1 C 92 % 15.79 C
3229 05-07-2016 07:05:00 17.2 C 92 % 15.89 C
3230 05-07-2016 07:10:00 17.3 C 92 % 15.99 C
3231 05-07-2016 07:15:00 17.3 C 92 % 15.99 C
3232 05-07-2016 07:20:00 17.4 C 92 % 16.09 C
3233 05-07-2016 07:25:00 17.5 C 92 % 16.19 C
3234 05-07-2016 07:30:00 17.6 C 91 % 16.11 C
3235 05-07-2016 07:35:00 17.7 C 91 % 16.21 C
3236 05-07-2016 07:40:00 17.8 C 90 % 16.14 C
3237 05-07-2016 07:45:00 17.9 C 90 % 16.24 C
3238 05-07-2016 07:50:00 17.9 C 90 % 16.24 C
3239 05-07-2016 07:55:00 18.1 C 89 % 16.26 C
3240 05-07-2016 08:00:00 18.2 C 89 % 16.36 C
3241 05-07-2016 08:05:00 18.3 C 88 % 16.28 C
3242 05-07-2016 08:10:00 18.3 C 88 % 16.28 C
3243 05-07-2016 08:15:00 18.4 C 87 % 16.2 C
3244 05-07-2016 08:20:00 18.4 C 86 % 16.02 C
3245 05-07-2016 08:25:00 18.4 C 86 % 16.02 C
3246 05-07-2016 08:30:00 18.5 C 87 % 16.3 C
3247 05-07-2016 08:35:00 18.6 C 86 % 16.21 C
3248 05-07-2016 08:40:00 18.6 C 86 % 16.21 C
3249 05-07-2016 08:45:00 18.7 C 87 % 16.49 C
3250 05-07-2016 08:50:00 18.8 C 85 % 16.23 C
Sensor: Nr:Datum:Temp:Feuchte:Taupunkt:
Aussen-T/F 3251 05-07-2016 08:55:00 18.8 C 85 % 16.23 C
3252 05-07-2016 09:00:00 18.9 C 83 % 15.95 C
3253 05-07-2016 09:05:00 19.1 C 84 % 16.33 C
3254 05-07-2016 09:10:00 19.2 C 83 % 16.24 C
3255 05-07-2016 09:15:00 19.3 C 83 % 16.34 C
3256 05-07-2016 09:20:00 19.4 C 82 % 16.25 C
3257 05-07-2016 09:25:00 19.5 C 82 % 16.35 C
3258 05-07-2016 09:30:00 19.6 C 81 % 16.25 C
3259 05-07-2016 09:35:00 19.6 C 80 % 16.06 C
3260 05-07-2016 09:40:00 19.7 C 81 % 16.35 C
3261 05-07-2016 09:45:00 19.7 C 80 % 16.15 C
3262 05-07-2016 09:50:00 19.7 C 80 % 16.15 C
3263 05-07-2016 09:55:00 19.7 C 81 % 16.35 C
3264 05-07-2016 10:00:00 19.7 C 82 % 16.54 C
3265 05-07-2016 10:05:00 19.8 C 81 % 16.45 C
3266 05-07-2016 10:10:00 19.9 C 79 % 16.15 C
3267 05-07-2016 10:15:00 20.2 C 75 % 15.63 C
3268 05-07-2016 10:20:00 20.4 C 77 % 16.23 C
3269 05-07-2016 10:25:00 20.7 C 73 % 15.69 C
3270 05-07-2016 10:30:00 20.8 C 72 % 15.57 C
3271 05-07-2016 10:35:00 20.8 C 71 % 15.35 C
3272 05-07-2016 10:40:00 20.9 C 75 % 16.3 C
3273 05-07-2016 10:45:00 20.9 C 74 % 16.09 C
3274 05-07-2016 10:50:00 20.9 C 71 % 15.45 C
3275 05-07-2016 10:55:00 20.8 C 70 % 15.13 C
Sensor: Nr:Datum:Temp:Feuchte:Taupunkt:
Aussen-T/F 3276 05-07-2016 11:00:00 20.8 C 69 % 14.91 C
3277 05-07-2016 11:05:00 20.8 C 68 % 14.68 C
3278 05-07-2016 11:10:00 20.7 C 70 % 15.03 C
3279 05-07-2016 11:15:00 20.7 C 70 % 15.03 C
3280 05-07-2016 11:20:00 20.7 C 67 % 14.36 C
3281 05-07-2016 11:25:00 20.8 C 70 % 15.13 C
3282 05-07-2016 11:30:00 20.8 C 71 % 15.35 C
3283 05-07-2016 11:35:00 20.7 C 69 % 14.81 C
3284 05-07-2016 11:40:00 20.7 C 69 % 14.81 C
3285 05-07-2016 11:45:00 20.6 C 70 % 14.94 C
3286 05-07-2016 11:50:00 20.6 C 71 % 15.16 C
3287 05-07-2016 11:55:00 20.6 C 68 % 14.49 C
3288 05-07-2016 12:00:00 20.8 C 68 % 14.68 C
3289 05-07-2016 12:05:00 20.9 C 67 % 14.55 C
3290 05-07-2016 12:10:00 21 C 69 % 15.1 C
3291 05-07-2016 12:15:00 20.9 C 66 % 14.31 C
3292 05-07-2016 12:20:00 20.8 C 67 % 14.45 C
3293 05-07-2016 12:25:00 20.7 C 70 % 15.03 C
3294 05-07-2016 12:30:00 20.7 C 71 % 15.25 C
3295 05-07-2016 12:35:00 20.9 C 72 % 15.66 C
3296 05-07-2016 12:40:00 20.9 C 70 % 15.23 C
3297 05-07-2016 12:45:00 21.1 C 73 % 16.07 C
3298 05-07-2016 12:50:00 21 C 71 % 15.54 C
3299 05-07-2016 12:55:00 20.9 C 70 % 15.23 C
3300 05-07-2016 13:00:00 20.8 C 72 % 15.57 C
Sensor: Nr:Datum:Temp:Feuchte:Taupunkt:
Aussen-T/F 3301 05-07-2016 13:05:00 20.8 C 72 % 15.57 C
3302 05-07-2016 13:10:00 21 C 72 % 15.76 C
3303 05-07-2016 13:15:00 21.1 C 70 % 15.42 C
3304 05-07-2016 13:20:00 20.9 C 73 % 15.88 C
3305 05-07-2016 13:25:00 20.9 C 72 % 15.66 C
3306 05-07-2016 13:30:00 21 C 72 % 15.76 C
3307 05-07-2016 13:35:00 21.2 C 73 % 16.17 C
3308 05-07-2016 13:40:00 21.4 C 71 % 15.93 C
3309 05-07-2016 13:45:00 21.5 C 71 % 16.02 C
3310 05-07-2016 13:50:00 21.6 C 70 % 15.89 C
3311 05-07-2016 13:55:00 21.6 C 71 % 16.12 C
3312 05-07-2016 14:00:00 21.7 C 71 % 16.21 C
3313 05-07-2016 14:05:00 21.7 C 71 % 16.21 C
3314 05-07-2016 14:10:00 21.5 C 72 % 16.24 C
3315 05-07-2016 14:15:00 21.3 C 72 % 16.05 C
3316 05-07-2016 14:20:00 21.1 C 72 % 15.86 C
3317 05-07-2016 14:25:00 20.9 C 73 % 15.88 C
3318 05-07-2016 14:30:00 20.8 C 73 % 15.78 C
3319 05-07-2016 14:35:00 20.8 C 75 % 16.21 C
3320 05-07-2016 14:40:00 20.9 C 73 % 15.88 C
3321 05-07-2016 14:45:00 20.9 C 73 % 15.88 C
3322 05-07-2016 14:50:00 21.2 C 71 % 15.73 C
3323 05-07-2016 14:55:00 21.3 C 70 % 15.61 C
3324 05-07-2016 15:00:00 21.6 C 71 % 16.12 C
3325 05-07-2016 15:05:00 21.8 C 72 % 16.53 C
Sensor: Nr:Datum:Temp:Feuchte:Taupunkt:
Aussen-T/F 3326 05-07-2016 15:10:00 22.1 C 69 % 16.15 C
3327 05-07-2016 15:15:00 22.3 C 69 % 16.34 C
3328 05-07-2016 15:20:00 22.6 C 69 % 16.62 C
3329 05-07-2016 15:25:00 22.8 C 68 % 16.59 C
3330 05-07-2016 15:30:00 22.9 C 65 % 15.97 C
3331 05-07-2016 15:35:00 22.9 C 67 % 16.45 C
3332 05-07-2016 15:40:00 22.9 C 66 % 16.21 C
3333 05-07-2016 15:45:00 22.8 C 65 % 15.88 C
3334 05-07-2016 15:50:00 22.4 C 68 % 16.2 C
3335 05-07-2016 15:55:00 22.2 C 71 % 16.69 C
3336 05-07-2016 16:00:00 22 C 70 % 16.28 C
3337 05-07-2016 16:05:00 21.9 C 73 % 16.84 C
3338 05-07-2016 16:10:00 21.8 C 72 % 16.53 C
3339 05-07-2016 16:15:00 21.6 C 73 % 16.55 C
3340 05-07-2016 16:20:00 21.5 C 74 % 16.67 C
3341 05-07-2016 16:25:00 21.4 C 74 % 16.57 C
3342 05-07-2016 16:30:00 21.4 C 79 % 17.61 C
3343 05-07-2016 16:35:00 21.7 C 76 % 17.28 C
3344 05-07-2016 16:40:00 22 C 74 % 17.15 C
3345 05-07-2016 16:45:00 22.2 C 76 % 17.77 C
3346 05-07-2016 16:50:00 22.1 C 72 % 16.82 C
3347 05-07-2016 16:55:00 22 C 72 % 16.72 C
3348 05-07-2016 17:00:00 22.1 C 70 % 16.37 C
3349 05-07-2016 17:05:00 22.2 C 72 % 16.91 C
3350 05-07-2016 17:10:00 22.2 C 73 % 17.13 C
Sensor: Nr:Datum:Temp:Feuchte:Taupunkt:
Aussen-T/F 3351 05-07-2016 17:15:00 22 C 68 % 15.82 C
3352 05-07-2016 17:20:00 21.9 C 69 % 15.96 C
3353 05-07-2016 17:25:00 21.9 C 65 % 15.02 C
3354 05-07-2016 17:30:00 22.1 C 63 % 14.73 C
3355 05-07-2016 17:35:00 22.1 C 63 % 14.73 C
3356 05-07-2016 17:40:00 22.1 C 63 % 14.73 C
3357 05-07-2016 17:45:00 22.2 C 65 % 15.31 C
3358 05-07-2016 17:50:00 22.1 C 64 % 14.97 C
3359 05-07-2016 17:55:00 22.1 C 64 % 14.97 C
3360 05-07-2016 18:00:00 22.1 C 65 % 15.21 C
3361 05-07-2016 18:05:00 22.1 C 64 % 14.97 C
3362 05-07-2016 18:10:00 22 C 64 % 14.88 C
3363 05-07-2016 18:15:00 21.6 C 67 % 15.21 C
3364 05-07-2016 18:20:00 21 C 69 % 15.1 C
3365 05-07-2016 18:25:00 20.7 C 71 % 15.25 C
3366 05-07-2016 18:30:00 20.5 C 70 % 14.84 C
3367 05-07-2016 18:35:00 20.4 C 69 % 14.52 C
3368 05-07-2016 18:40:00 20.3 C 69 % 14.43 C
3369 05-07-2016 18:45:00 20.3 C 69 % 14.43 C
3370 05-07-2016 18:50:00 20.6 C 69 % 14.71 C
3371 05-07-2016 18:55:00 21.1 C 67 % 14.74 C
3372 05-07-2016 19:00:00 21.1 C 67 % 14.74 C
3373 05-07-2016 19:05:00 21.1 C 68 % 14.97 C
3374 05-07-2016 19:10:00 21 C 69 % 15.1 C
3375 05-07-2016 19:15:00 21.3 C 70 % 15.61 C
Sensor: Nr:Datum:Temp:Feuchte:Taupunkt:
Aussen-T/F 3376 05-07-2016 19:20:00 22 C 64 % 14.88 C
3377 05-07-2016 19:25:00 22.5 C 63 % 15.11 C
3378 05-07-2016 19:30:00 22.6 C 62 % 14.95 C
3379 05-07-2016 19:35:00 22.6 C 61 % 14.7 C
3380 05-07-2016 19:40:00 22.6 C 63 % 15.2 C
3381 05-07-2016 19:45:00 22.6 C 63 % 15.2 C
3382 05-07-2016 19:50:00 22.6 C 62 % 14.95 C
3383 05-07-2016 19:55:00 22.6 C 61 % 14.7 C
3384 05-07-2016 20:00:00 22.6 C 59 % 14.18 C
3385 05-07-2016 20:05:00 22.6 C 58 % 13.92 C
3386 05-07-2016 20:10:00 22.6 C 57 % 13.65 C
3387 05-07-2016 20:15:00 22.2 C 56 % 13.01 C
3388 05-07-2016 20:20:00 21.6 C 58 % 12.99 C
3389 05-07-2016 20:25:00 21.2 C 59 % 12.87 C
3390 05-07-2016 20:30:00 20.8 C 62 % 13.26 C
3391 05-07-2016 20:35:00 20.6 C 63 % 13.31 C
3392 05-07-2016 20:40:00 20.4 C 62 % 12.88 C
3393 05-07-2016 20:45:00 20.3 C 63 % 13.03 C
3394 05-07-2016 20:50:00 20.4 C 63 % 13.12 C
3395 05-07-2016 20:55:00 20.3 C 62 % 12.79 C
3396 05-07-2016 21:00:00 20.3 C 64 % 13.27 C
3397 05-07-2016 21:05:00 20.2 C 63 % 12.94 C
3398 05-07-2016 21:10:00 20 C 64 % 12.99 C
3399 05-07-2016 21:15:00 19.9 C 64 % 12.89 C
3400 05-07-2016 21:20:00 19.8 C 65 % 13.03 C
Sensor: Nr:Datum:Temp:Feuchte:Taupunkt:
Aussen-T/F 3401 05-07-2016 21:25:00 19.7 C 70 % 14.08 C
3402 05-07-2016 21:30:00 19.6 C 70 % 13.98 C
3403 05-07-2016 21:35:00 19.3 C 71 % 13.91 C
3404 05-07-2016 21:40:00 19.1 C 74 % 14.36 C
3405 05-07-2016 21:45:00 18.9 C 72 % 13.74 C
3406 05-07-2016 21:50:00 18.8 C 71 % 13.43 C
3407 05-07-2016 21:55:00 18.7 C 72 % 13.55 C
3408 05-07-2016 22:00:00 18.4 C 72 % 13.26 C
3409 05-07-2016 22:05:00 18.2 C 73 % 13.28 C
3410 05-07-2016 22:10:00 17.9 C 74 % 13.2 C
3411 05-07-2016 22:15:00 17.8 C 74 % 13.11 C
3412 05-07-2016 22:20:00 17.7 C 75 % 13.22 C
3413 05-07-2016 22:25:00 17.6 C 75 % 13.12 C
3414 05-07-2016 22:30:00 17.5 C 75 % 13.02 C
3415 05-07-2016 22:35:00 17.4 C 75 % 12.93 C
3416 05-07-2016 22:40:00 17.4 C 76 % 13.13 C
3417 05-07-2016 22:45:00 17.3 C 76 % 13.03 C
3418 05-07-2016 22:50:00 17.2 C 76 % 12.94 C
3419 05-07-2016 22:55:00 17.1 C 76 % 12.84 C
3420 05-07-2016 23:00:00 17 C 77 % 12.94 C
3421 05-07-2016 23:05:00 16.9 C 77 % 12.84 C
3422 05-07-2016 23:10:00 16.8 C 77 % 12.75 C
3423 05-07-2016 23:15:00 16.7 C 78 % 12.85 C
3424 05-07-2016 23:20:00 16.7 C 78 % 12.85 C
3425 05-07-2016 23:25:00 16.6 C 78 % 12.75 C
Sensor: Nr:Datum:Temp:Feuchte:Taupunkt:
Aussen-T/F 3426 05-07-2016 23:30:00 16.4 C 78 % 12.56 C
3427 05-07-2016 23:35:00 16.3 C 78 % 12.46 C
3428 05-07-2016 23:40:00 16.3 C 78 % 12.46 C
3429 05-07-2016 23:45:00 16.2 C 78 % 12.36 C
3430 05-07-2016 23:50:00 16.1 C 78 % 12.27 C
3431 05-07-2016 23:55:00 15.9 C 78 % 12.07 C
3432 06-07-2016 00:00:00 15.9 C 78 % 12.07 C
3433 06-07-2016 00:05:00 15.8 C 78 % 11.97 C
3434 06-07-2016 00:10:00 15.7 C 78 % 11.88 C
3435 06-07-2016 00:15:00 15.6 C 78 % 11.78 C
3436 06-07-2016 00:20:00 15.5 C 78 % 11.68 C
3437 06-07-2016 00:25:00 15.4 C 79 % 11.78 C
3438 06-07-2016 00:30:00 15.3 C 79 % 11.68 C
3439 06-07-2016 00:35:00 15.3 C 79 % 11.68 C
3440 06-07-2016 00:40:00 15.2 C 79 % 11.59 C
3441 06-07-2016 00:45:00 15.2 C 79 % 11.59 C
3442 06-07-2016 00:50:00 15.2 C 80 % 11.78 C
3443 06-07-2016 00:55:00 15.1 C 80 % 11.68 C
3444 06-07-2016 01:00:00 14.9 C 81 % 11.67 C
3445 06-07-2016 01:05:00 14.7 C 81 % 11.48 C
3446 06-07-2016 01:10:00 14.4 C 82 % 11.37 C
3447 06-07-2016 01:15:00 14.3 C 83 % 11.45 C
3448 06-07-2016 01:20:00 14.1 C 84 % 11.44 C
3449 06-07-2016 01:25:00 13.9 C 84 % 11.24 C
3450 06-07-2016 01:30:00 13.8 C 85 % 11.32 C
Sensor: Nr:Datum:Temp:Feuchte:Taupunkt:
Aussen-T/F 3451 06-07-2016 01:35:00 13.6 C 85 % 11.13 C
3452 06-07-2016 01:40:00 13.4 C 86 % 11.11 C
3453 06-07-2016 01:45:00 13.3 C 86 % 11.01 C
3454 06-07-2016 01:50:00 13.2 C 87 % 11.09 C
3455 06-07-2016 01:55:00 13.2 C 87 % 11.09 C
3456 06-07-2016 02:00:00 13.1 C 87 % 10.99 C
3457 06-07-2016 02:05:00 13 C 87 % 10.89 C
3458 06-07-2016 02:10:00 12.9 C 87 % 10.79 C
3459 06-07-2016 02:15:00 12.9 C 87 % 10.79 C
3460 06-07-2016 02:20:00 12.9 C 87 % 10.79 C
3461 06-07-2016 02:25:00 12.9 C 87 % 10.79 C
3462 06-07-2016 02:30:00 12.8 C 87 % 10.69 C
3463 06-07-2016 02:35:00 12.8 C 87 % 10.69 C
3464 06-07-2016 02:40:00 12.8 C 87 % 10.69 C
3465 06-07-2016 02:45:00 12.7 C 87 % 10.59 C
3466 06-07-2016 02:50:00 12.7 C 87 % 10.59 C
3467 06-07-2016 02:55:00 12.7 C 87 % 10.59 C
3468 06-07-2016 03:00:00 12.6 C 88 % 10.67 C
3469 06-07-2016 03:05:00 12.5 C 88 % 10.57 C
3470 06-07-2016 03:10:00 12.4 C 88 % 10.47 C
3471 06-07-2016 03:15:00 12.3 C 88 % 10.37 C
3472 06-07-2016 03:20:00 12.3 C 89 % 10.54 C
3473 06-07-2016 03:25:00 12.2 C 89 % 10.44 C
3474 06-07-2016 03:30:00 12.1 C 89 % 10.34 C
3475 06-07-2016 03:35:00 11.9 C 89 % 10.15 C
Sensor: Nr:Datum:Temp:Feuchte:Taupunkt:
Aussen-T/F 3476 06-07-2016 03:40:00 11.8 C 89 % 10.05 C
3477 06-07-2016 03:45:00 11.7 C 90 % 10.12 C
3478 06-07-2016 03:50:00 11.6 C 90 % 10.02 C
3479 06-07-2016 03:55:00 11.5 C 90 % 9.92 C
3480 06-07-2016 04:00:00 11.4 C 90 % 9.82 C
3481 06-07-2016 04:05:00 11.3 C 91 % 9.89 C
3482 06-07-2016 04:10:00 11.3 C 91 % 9.89 C
3483 06-07-2016 04:15:00 11.2 C 91 % 9.79 C
3484 06-07-2016 04:20:00 11.1 C 91 % 9.69 C
3485 06-07-2016 04:25:00 11.1 C 91 % 9.69 C
3486 06-07-2016 04:30:00 11 C 91 % 9.59 C
3487 06-07-2016 04:35:00 11 C 91 % 9.59 C
3488 06-07-2016 04:40:00 10.9 C 91 % 9.49 C
3489 06-07-2016 04:45:00 10.9 C 91 % 9.49 C
3490 06-07-2016 04:50:00 10.8 C 92 % 9.55 C
3491 06-07-2016 04:55:00 10.8 C 92 % 9.55 C
3492 06-07-2016 05:00:00 10.8 C 92 % 9.55 C
3493 06-07-2016 05:05:00 10.8 C 92 % 9.55 C
3494 06-07-2016 05:10:00 10.7 C 92 % 9.45 C
3495 06-07-2016 05:15:00 10.7 C 92 % 9.45 C
3496 06-07-2016 05:20:00 10.7 C 92 % 9.45 C
3497 06-07-2016 05:25:00 10.7 C 92 % 9.45 C
3498 06-07-2016 05:30:00 10.7 C 92 % 9.45 C
3499 06-07-2016 05:35:00 10.6 C 92 % 9.36 C
3500 06-07-2016 05:40:00 10.6 C 92 % 9.36 C
Sensor: Nr:Datum:Temp:Feuchte:Taupunkt:
Aussen-T/F 3501 06-07-2016 05:45:00 10.6 C 92 % 9.36 C
3502 06-07-2016 05:50:00 10.6 C 92 % 9.36 C
3503 06-07-2016 05:55:00 10.6 C 92 % 9.36 C
3504 06-07-2016 06:00:00 10.6 C 92 % 9.36 C
3505 06-07-2016 06:05:00 10.6 C 92 % 9.36 C
3506 06-07-2016 06:10:00 10.6 C 92 % 9.36 C
3507 06-07-2016 06:15:00 10.6 C 92 % 9.36 C
3508 06-07-2016 06:20:00 10.6 C 92 % 9.36 C
3509 06-07-2016 06:25:00 10.6 C 92 % 9.36 C
3510 06-07-2016 06:30:00 10.6 C 92 % 9.36 C
3511 06-07-2016 06:35:00 10.6 C 93 % 9.52 C
3512 06-07-2016 06:40:00 10.6 C 92 % 9.36 C
3513 06-07-2016 06:45:00 10.6 C 92 % 9.36 C
3514 06-07-2016 06:50:00 10.6 C 92 % 9.36 C
3515 06-07-2016 06:55:00 10.7 C 93 % 9.62 C
3516 06-07-2016 07:00:00 10.7 C 93 % 9.62 C
3517 06-07-2016 07:05:00 10.7 C 93 % 9.62 C
3518 06-07-2016 07:10:00 10.8 C 93 % 9.71 C
3519 06-07-2016 07:15:00 10.8 C 93 % 9.71 C
3520 06-07-2016 07:20:00 10.9 C 93 % 9.81 C
3521 06-07-2016 07:25:00 11 C 93 % 9.91 C
3522 06-07-2016 07:30:00 11.1 C 93 % 10.01 C
3523 06-07-2016 07:35:00 11.3 C 93 % 10.21 C
3524 06-07-2016 07:40:00 11.4 C 93 % 10.31 C
3525 06-07-2016 07:45:00 11.4 C 92 % 10.15 C
Sensor: Nr:Datum:Temp:Feuchte:Taupunkt:
Aussen-T/F 3526 06-07-2016 07:50:00 11.5 C 92 % 10.25 C
3527 06-07-2016 07:55:00 11.7 C 92 % 10.44 C
3528 06-07-2016 08:00:00 11.9 C 91 % 10.48 C
3529 06-07-2016 08:05:00 12.2 C 91 % 10.78 C
3530 06-07-2016 08:10:00 12.3 C 90 % 10.71 C
3531 06-07-2016 08:15:00 12.4 C 90 % 10.81 C
3532 06-07-2016 08:20:00 12.6 C 89 % 10.84 C
3533 06-07-2016 08:25:00 12.9 C 87 % 10.79 C
3534 06-07-2016 08:30:00 13.2 C 85 % 10.74 C
3535 06-07-2016 08:35:00 13.5 C 85 % 11.03 C
3536 06-07-2016 08:40:00 13.7 C 85 % 11.23 C
3537 06-07-2016 08:45:00 13.8 C 83 % 10.97 C
3538 06-07-2016 08:50:00 14.1 C 85 % 11.62 C
3539 06-07-2016 08:55:00 14.3 C 83 % 11.45 C
3540 06-07-2016 09:00:00 14.4 C 81 % 11.18 C
3541 06-07-2016 09:05:00 14.6 C 81 % 11.38 C
3542 06-07-2016 09:10:00 14.8 C 82 % 11.76 C
3543 06-07-2016 09:15:00 14.9 C 82 % 11.86 C
3544 06-07-2016 09:20:00 15.1 C 80 % 11.68 C
3545 06-07-2016 09:25:00 15.1 C 78 % 11.3 C
3546 06-07-2016 09:30:00 15.2 C 77 % 11.2 C
3547 06-07-2016 09:35:00 15.2 C 77 % 11.2 C
3548 06-07-2016 09:40:00 15.3 C 77 % 11.3 C
3549 06-07-2016 09:45:00 15.4 C 78 % 11.59 C
3550 06-07-2016 09:50:00 15.5 C 76 % 11.29 C
Sensor: Nr:Datum:Temp:Feuchte:Taupunkt:
Aussen-T/F 3551 06-07-2016 09:55:00 15.7 C 77 % 11.68 C
3552 06-07-2016 10:00:00 16 C 78 % 12.17 C
3553 06-07-2016 10:05:00 16.2 C 75 % 11.77 C
3554 06-07-2016 10:10:00 16.4 C 78 % 12.56 C
3555 06-07-2016 10:15:00 16.6 C 76 % 12.36 C
3556 06-07-2016 10:20:00 16.8 C 74 % 12.14 C
3557 06-07-2016 10:25:00 17 C 74 % 12.34 C
3558 06-07-2016 10:30:00 17.3 C 73 % 12.42 C
3559 06-07-2016 10:35:00 17.5 C 73 % 12.61 C
3560 06-07-2016 10:40:00 17.8 C 70 % 12.26 C
3561 06-07-2016 10:45:00 17.9 C 70 % 12.35 C
3562 06-07-2016 10:50:00 17.9 C 70 % 12.35 C
3563 06-07-2016 10:55:00 17.9 C 69 % 12.14 C
3564 06-07-2016 11:00:00 17.9 C 73 % 12.99 C
3565 06-07-2016 11:05:00 17.9 C 72 % 12.78 C
3566 06-07-2016 11:10:00 17.8 C 76 % 13.52 C
3567 06-07-2016 11:15:00 17.7 C 72 % 12.59 C
3568 06-07-2016 11:20:00 17.5 C 71 % 12.19 C
3569 06-07-2016 11:25:00 17.4 C 72 % 12.3 C
3570 06-07-2016 11:30:00 17.4 C 72 % 12.3 C
3571 06-07-2016 11:35:00 17.6 C 71 % 12.28 C
3572 06-07-2016 11:40:00 17.6 C 72 % 12.5 C
3573 06-07-2016 11:45:00 17.7 C 74 % 13.01 C
3574 06-07-2016 11:50:00 17.7 C 75 % 13.22 C
3575 06-07-2016 11:55:00 17.8 C 77 % 13.72 C
Sensor: Nr:Datum:Temp:Feuchte:Taupunkt:
Aussen-T/F 3576 06-07-2016 12:00:00 17.7 C 77 % 13.62 C
3577 06-07-2016 12:05:00 17.6 C 74 % 12.91 C
3578 06-07-2016 12:10:00 17.6 C 72 % 12.5 C
3579 06-07-2016 12:15:00 17.8 C 72 % 12.69 C
3580 06-07-2016 12:20:00 18 C 71 % 12.67 C
3581 06-07-2016 12:25:00 18.3 C 71 % 12.95 C
3582 06-07-2016 12:30:00 18.4 C 68 % 12.39 C
3583 06-07-2016 12:35:00 18.6 C 71 % 13.24 C
3584 06-07-2016 12:40:00 18.8 C 72 % 13.65 C
3585 06-07-2016 12:45:00 18.8 C 69 % 13 C
3586 06-07-2016 12:50:00 18.9 C 68 % 12.87 C
3587 06-07-2016 12:55:00 18.9 C 69 % 13.09 C
3588 06-07-2016 13:00:00 18.9 C 68 % 12.87 C
3589 06-07-2016 13:05:00 18.8 C 68 % 12.77 C
3590 06-07-2016 13:10:00 18.8 C 72 % 13.65 C
3591 06-07-2016 13:15:00 18.9 C 72 % 13.74 C
3592 06-07-2016 13:20:00 19 C 69 % 13.19 C
3593 06-07-2016 13:25:00 19.1 C 67 % 12.83 C
3594 06-07-2016 13:30:00 19.3 C 67 % 13.02 C
3595 06-07-2016 13:35:00 19.7 C 67 % 13.4 C
3596 06-07-2016 13:40:00 19.9 C 67 % 13.59 C
3597 06-07-2016 13:45:00 19.9 C 63 % 12.65 C
3598 06-07-2016 13:50:00 19.9 C 65 % 13.13 C
3599 06-07-2016 13:55:00 19.9 C 67 % 13.59 C
3600 06-07-2016 14:00:00 19.8 C 65 % 13.03 C
Sensor: Nr:Datum:Temp:Feuchte:Taupunkt:
Aussen-T/F 3601 06-07-2016 14:05:00 19.8 C 66 % 13.27 C
3602 06-07-2016 14:10:00 19.7 C 65 % 12.94 C
3603 06-07-2016 14:15:00 19.6 C 65 % 12.84 C
3604 06-07-2016 14:20:00 19.6 C 66 % 13.08 C
3605 06-07-2016 14:25:00 19.6 C 72 % 14.42 C
3606 06-07-2016 14:30:00 19.7 C 65 % 12.94 C
3607 06-07-2016 14:35:00 19.8 C 65 % 13.03 C
3608 06-07-2016 14:40:00 19.9 C 64 % 12.89 C
3609 06-07-2016 14:45:00 20 C 68 % 13.92 C
3610 06-07-2016 14:50:00 20 C 66 % 13.46 C
3611 06-07-2016 14:55:00 20.1 C 70 % 14.46 C
3612 06-07-2016 15:00:00 20.2 C 67 % 13.88 C
3613 06-07-2016 15:05:00 20.4 C 65 % 13.6 C
3614 06-07-2016 15:10:00 20.6 C 64 % 13.55 C
3615 06-07-2016 15:15:00 20.6 C 63 % 13.31 C
3616 06-07-2016 15:20:00 20.7 C 62 % 13.16 C
3617 06-07-2016 15:25:00 20.8 C 61 % 13.01 C
3618 06-07-2016 15:30:00 21.1 C 58 % 12.52 C
3619 06-07-2016 15:35:00 21.1 C 62 % 13.54 C
3620 06-07-2016 15:40:00 20.9 C 64 % 13.84 C
3621 06-07-2016 15:45:00 20.9 C 61 % 13.1 C
3622 06-07-2016 15:50:00 21.2 C 59 % 12.87 C
3623 06-07-2016 15:55:00 21.3 C 57 % 12.44 C
3624 06-07-2016 16:00:00 21.3 C 55 % 11.9 C
3625 06-07-2016 16:05:00 21.4 C 56 % 12.27 C
Sensor: Nr:Datum:Temp:Feuchte:Taupunkt:
Aussen-T/F 3626 06-07-2016 16:10:00 21.6 C 59 % 13.25 C
3627 06-07-2016 16:15:00 21.8 C 57 % 12.91 C
3628 06-07-2016 16:20:00 22.3 C 52 % 11.97 C
3629 06-07-2016 16:25:00 22.6 C 49 % 11.35 C
3630 06-07-2016 16:30:00 22.3 C 49 % 11.08 C
3631 06-07-2016 16:35:00 22.2 C 50 % 11.29 C
3632 06-07-2016 16:40:00 22.4 C 50 % 11.47 C
3633 06-07-2016 16:45:00 22.7 C 51 % 12.05 C
3634 06-07-2016 16:50:00 22.9 C 49 % 11.63 C
3635 06-07-2016 16:55:00 22.9 C 49 % 11.63 C
3636 06-07-2016 17:00:00 22.7 C 46 % 10.49 C
3637 06-07-2016 17:05:00 22.3 C 47 % 10.45 C
3638 06-07-2016 17:10:00 22.2 C 50 % 11.29 C
3639 06-07-2016 17:15:00 22.4 C 47 % 10.54 C
3640 06-07-2016 17:20:00 22.6 C 48 % 11.04 C
3641 06-07-2016 17:25:00 22.9 C 46 % 10.67 C
3642 06-07-2016 17:30:00 23.5 C 44 % 10.55 C
3643 06-07-2016 17:35:00 23.7 C 45 % 11.07 C
3644 06-07-2016 17:40:00 23.6 C 43 % 10.3 C
3645 06-07-2016 17:45:00 23.2 C 48 % 11.59 C
3646 06-07-2016 17:50:00 23.3 C 46 % 11.04 C
3647 06-07-2016 17:55:00 23.3 C 48 % 11.68 C
3648 06-07-2016 18:00:00 23.3 C 46 % 11.04 C
3649 06-07-2016 18:05:00 23.2 C 47 % 11.27 C
3650 06-07-2016 18:10:00 22.8 C 49 % 11.53 C
Sensor: Nr:Datum:Temp:Feuchte:Taupunkt:
Aussen-T/F 3651 06-07-2016 18:15:00 22.7 C 48 % 11.13 C
3652 06-07-2016 18:20:00 22.8 C 48 % 11.22 C
3653 06-07-2016 18:25:00 22.8 C 50 % 11.84 C
3654 06-07-2016 18:30:00 23 C 48 % 11.41 C
3655 06-07-2016 18:35:00 23.1 C 48 % 11.5 C
3656 06-07-2016 18:40:00 23.2 C 47 % 11.27 C
3657 06-07-2016 18:45:00 23.2 C 48 % 11.59 C
3658 06-07-2016 18:50:00 23.2 C 49 % 11.9 C
3659 06-07-2016 18:55:00 23.1 C 49 % 11.81 C
3660 06-07-2016 19:00:00 23 C 49 % 11.72 C
3661 06-07-2016 19:05:00 22.8 C 50 % 11.84 C
3662 06-07-2016 19:10:00 22.7 C 51 % 12.05 C
3663 06-07-2016 19:15:00 22.7 C 51 % 12.05 C
3664 06-07-2016 19:20:00 22.6 C 52 % 12.25 C
3665 06-07-2016 19:25:00 22.3 C 53 % 12.26 C
3666 06-07-2016 19:30:00 22.2 C 53 % 12.17 C
3667 06-07-2016 19:35:00 22.1 C 52 % 11.79 C
3668 06-07-2016 19:40:00 21.9 C 53 % 11.89 C
3669 06-07-2016 19:45:00 21.7 C 55 % 12.27 C
3670 06-07-2016 19:50:00 21.5 C 55 % 12.08 C
3671 06-07-2016 19:55:00 21.3 C 55 % 11.9 C
3672 06-07-2016 20:00:00 21.1 C 56 % 11.99 C
3673 06-07-2016 20:05:00 20.9 C 57 % 12.07 C
3674 06-07-2016 20:10:00 20.8 C 58 % 12.24 C
3675 06-07-2016 20:15:00 20.8 C 58 % 12.24 C
Sensor: Nr:Datum:Temp:Feuchte:Taupunkt:
Aussen-T/F 3676 06-07-2016 20:20:00 20.8 C 58 % 12.24 C
3677 06-07-2016 20:25:00 20.9 C 57 % 12.07 C
3678 06-07-2016 20:30:00 20.8 C 57 % 11.97 C
3679 06-07-2016 20:35:00 20.7 C 58 % 12.15 C
3680 06-07-2016 20:40:00 20.6 C 60 % 12.57 C
3681 06-07-2016 20:45:00 20.4 C 60 % 12.38 C
3682 06-07-2016 20:50:00 20.3 C 63 % 13.03 C
3683 06-07-2016 20:55:00 20.2 C 65 % 13.41 C
3684 06-07-2016 21:00:00 19.8 C 62 % 12.31 C
3685 06-07-2016 21:05:00 19.6 C 63 % 12.37 C
3686 06-07-2016 21:10:00 19.3 C 65 % 12.56 C
3687 06-07-2016 21:15:00 18.9 C 67 % 12.64 C
3688 06-07-2016 21:20:00 18.7 C 70 % 13.12 C
3689 06-07-2016 21:25:00 18.2 C 70 % 12.64 C
3690 06-07-2016 21:30:00 17.8 C 73 % 12.9 C
3691 06-07-2016 21:35:00 17.4 C 74 % 12.72 C
3692 06-07-2016 21:40:00 17.1 C 76 % 12.84 C
3693 06-07-2016 21:45:00 16.8 C 76 % 12.55 C
3694 06-07-2016 21:50:00 16.6 C 77 % 12.55 C
3695 06-07-2016 21:55:00 16.4 C 78 % 12.56 C
3696 06-07-2016 22:00:00 16.3 C 77 % 12.26 C
3697 06-07-2016 22:05:00 16.2 C 78 % 12.36 C
3698 06-07-2016 22:10:00 16.1 C 78 % 12.27 C
3699 06-07-2016 22:15:00 16 C 78 % 12.17 C
3700 06-07-2016 22:20:00 15.9 C 79 % 12.27 C
Sensor: Nr:Datum:Temp:Feuchte:Taupunkt:
Aussen-T/F 3701 06-07-2016 22:25:00 15.8 C 78 % 11.97 C
3702 06-07-2016 22:30:00 15.7 C 78 % 11.88 C
3703 06-07-2016 22:35:00 15.7 C 79 % 12.07 C
3704 06-07-2016 22:40:00 15.6 C 79 % 11.97 C
3705 06-07-2016 22:45:00 15.5 C 80 % 12.07 C
3706 06-07-2016 22:50:00 15.4 C 80 % 11.97 C
3707 06-07-2016 22:55:00 15.3 C 80 % 11.87 C
3708 06-07-2016 23:00:00 15.3 C 79 % 11.68 C
3709 06-07-2016 23:05:00 15.3 C 80 % 11.87 C
3710 06-07-2016 23:10:00 15.2 C 81 % 11.96 C
3711 06-07-2016 23:15:00 15.2 C 81 % 11.96 C
3712 06-07-2016 23:20:00 15 C 82 % 11.95 C
3713 06-07-2016 23:25:00 14.9 C 82 % 11.86 C
3714 06-07-2016 23:30:00 14.8 C 83 % 11.94 C
3715 06-07-2016 23:35:00 14.6 C 83 % 11.75 C
3716 06-07-2016 23:40:00 14.4 C 83 % 11.55 C
3717 06-07-2016 23:45:00 14.3 C 84 % 11.64 C
3718 06-07-2016 23:50:00 14.2 C 84 % 11.54 C
3719 06-07-2016 23:55:00 14 C 85 % 11.52 C
3720 07-07-2016 00:00:00 13.8 C 85 % 11.32 C
3721 07-07-2016 00:05:00 13.7 C 85 % 11.23 C
3722 07-07-2016 00:10:00 13.6 C 85 % 11.13 C
3723 07-07-2016 00:15:00 13.5 C 86 % 11.21 C
3724 07-07-2016 00:20:00 13.4 C 86 % 11.11 C
3725 07-07-2016 00:25:00 13.3 C 86 % 11.01 C
Sensor: Nr:Datum:Temp:Feuchte:Taupunkt:
Aussen-T/F 3726 07-07-2016 00:30:00 13.2 C 87 % 11.09 C
3727 07-07-2016 00:35:00 13.1 C 87 % 10.99 C
3728 07-07-2016 00:40:00 13.1 C 87 % 10.99 C
3729 07-07-2016 00:45:00 13 C 87 % 10.89 C
3730 07-07-2016 00:50:00 13 C 88 % 11.06 C
3731 07-07-2016 00:55:00 12.9 C 88 % 10.96 C
3732 07-07-2016 01:00:00 12.9 C 88 % 10.96 C
3733 07-07-2016 01:05:00 12.8 C 88 % 10.86 C
3734 07-07-2016 01:10:00 12.8 C 89 % 11.03 C
3735 07-07-2016 01:15:00 12.7 C 89 % 10.94 C
3736 07-07-2016 01:20:00 12.7 C 89 % 10.94 C
3737 07-07-2016 01:25:00 12.6 C 89 % 10.84 C
3738 07-07-2016 01:30:00 12.5 C 89 % 10.74 C
3739 07-07-2016 01:35:00 12.4 C 90 % 10.81 C
3740 07-07-2016 01:40:00 12.4 C 90 % 10.81 C
3741 07-07-2016 01:45:00 12.4 C 90 % 10.81 C
3742 07-07-2016 01:50:00 12.3 C 90 % 10.71 C
3743 07-07-2016 01:55:00 12.3 C 90 % 10.71 C
3744 07-07-2016 02:00:00 12.3 C 91 % 10.87 C
3745 07-07-2016 02:05:00 12.2 C 91 % 10.78 C
3746 07-07-2016 02:10:00 12.2 C 91 % 10.78 C
3747 07-07-2016 02:15:00 12.2 C 91 % 10.78 C
3748 07-07-2016 02:20:00 12.2 C 91 % 10.78 C
3749 07-07-2016 02:25:00 12.1 C 91 % 10.68 C
3750 07-07-2016 02:30:00 12.1 C 92 % 10.84 C
Sensor: Nr:Datum:Temp:Feuchte:Taupunkt:
Aussen-T/F 3751 07-07-2016 02:35:00 12.1 C 92 % 10.84 C
3752 07-07-2016 02:40:00 11.9 C 92 % 10.64 C
3753 07-07-2016 02:45:00 11.9 C 92 % 10.64 C
3754 07-07-2016 02:50:00 11.8 C 91 % 10.38 C
3755 07-07-2016 02:55:00 11.8 C 92 % 10.54 C
3756 07-07-2016 03:00:00 11.7 C 92 % 10.44 C
3757 07-07-2016 03:05:00 11.7 C 92 % 10.44 C
3758 07-07-2016 03:10:00 11.6 C 92 % 10.35 C
3759 07-07-2016 03:15:00 11.5 C 92 % 10.25 C
3760 07-07-2016 03:20:00 11.4 C 92 % 10.15 C
3761 07-07-2016 03:25:00 11.4 C 92 % 10.15 C
3762 07-07-2016 03:30:00 11.3 C 93 % 10.21 C
3763 07-07-2016 03:35:00 11.3 C 93 % 10.21 C
3764 07-07-2016 03:40:00 11.3 C 93 % 10.21 C
3765 07-07-2016 03:45:00 11.3 C 93 % 10.21 C
3766 07-07-2016 03:50:00 11.3 C 93 % 10.21 C
3767 07-07-2016 03:55:00 11.3 C 93 % 10.21 C
3768 07-07-2016 04:00:00 11.3 C 93 % 10.21 C
3769 07-07-2016 04:05:00 11.2 C 93 % 10.11 C
3770 07-07-2016 04:10:00 11.2 C 93 % 10.11 C
3771 07-07-2016 04:15:00 11.2 C 93 % 10.11 C
3772 07-07-2016 04:20:00 11.2 C 93 % 10.11 C
3773 07-07-2016 04:25:00 11.1 C 93 % 10.01 C
3774 07-07-2016 04:30:00 11.1 C 93 % 10.01 C
3775 07-07-2016 04:35:00 11 C 93 % 9.91 C
Sensor: Nr:Datum:Temp:Feuchte:Taupunkt:
Aussen-T/F 3776 07-07-2016 04:40:00 11.1 C 94 % 10.17 C
3777 07-07-2016 04:45:00 11.1 C 94 % 10.17 C
3778 07-07-2016 04:50:00 11.1 C 94 % 10.17 C
3779 07-07-2016 04:55:00 11 C 94 % 10.07 C
3780 07-07-2016 05:00:00 10.9 C 94 % 9.97 C
3781 07-07-2016 05:05:00 10.9 C 94 % 9.97 C
3782 07-07-2016 05:10:00 10.9 C 94 % 9.97 C
3783 07-07-2016 05:15:00 10.9 C 94 % 9.97 C
3784 07-07-2016 05:20:00 10.8 C 94 % 9.87 C
3785 07-07-2016 05:25:00 10.8 C 94 % 9.87 C
3786 07-07-2016 05:30:00 10.8 C 94 % 9.87 C
3787 07-07-2016 05:35:00 10.7 C 94 % 9.77 C
3788 07-07-2016 05:40:00 10.7 C 94 % 9.77 C
3789 07-07-2016 05:45:00 10.7 C 94 % 9.77 C
3790 07-07-2016 05:50:00 10.6 C 94 % 9.68 C
3791 07-07-2016 05:55:00 10.6 C 94 % 9.68 C
3792 07-07-2016 06:00:00 10.6 C 94 % 9.68 C
3793 07-07-2016 06:05:00 10.6 C 94 % 9.68 C
3794 07-07-2016 06:10:00 10.7 C 95 % 9.93 C
3795 07-07-2016 06:15:00 10.7 C 94 % 9.77 C
3796 07-07-2016 06:20:00 10.7 C 94 % 9.77 C
3797 07-07-2016 06:25:00 10.7 C 94 % 9.77 C
3798 07-07-2016 06:30:00 10.7 C 95 % 9.93 C
3799 07-07-2016 06:35:00 10.8 C 95 % 10.03 C
3800 07-07-2016 06:40:00 10.8 C 95 % 10.03 C
Sensor: Nr:Datum:Temp:Feuchte:Taupunkt:
Aussen-T/F 3801 07-07-2016 06:45:00 10.9 C 95 % 10.13 C
3802 07-07-2016 06:50:00 10.9 C 95 % 10.13 C
3803 07-07-2016 06:55:00 10.9 C 94 % 9.97 C
3804 07-07-2016 07:00:00 10.9 C 94 % 9.97 C
3805 07-07-2016 07:05:00 10.9 C 94 % 9.97 C
3806 07-07-2016 07:10:00 10.9 C 94 % 9.97 C
3807 07-07-2016 07:15:00 10.9 C 95 % 10.13 C
3808 07-07-2016 07:20:00 10.9 C 95 % 10.13 C
3809 07-07-2016 07:25:00 11 C 95 % 10.23 C
3810 07-07-2016 07:30:00 11.1 C 95 % 10.33 C
3811 07-07-2016 07:35:00 11.1 C 95 % 10.33 C
3812 07-07-2016 07:40:00 11.2 C 95 % 10.43 C
3813 07-07-2016 07:45:00 11.2 C 95 % 10.43 C
3814 07-07-2016 07:50:00 11.3 C 95 % 10.53 C
3815 07-07-2016 07:55:00 11.3 C 95 % 10.53 C
3816 07-07-2016 08:00:00 11.4 C 95 % 10.63 C
3817 07-07-2016 08:05:00 11.6 C 95 % 10.83 C
3818 07-07-2016 08:10:00 11.7 C 95 % 10.93 C
3819 07-07-2016 08:15:00 11.8 C 95 % 11.03 C
3820 07-07-2016 08:20:00 11.9 C 95 % 11.13 C
3821 07-07-2016 08:25:00 12 C 95 % 11.22 C
3822 07-07-2016 08:30:00 12.1 C 95 % 11.32 C
3823 07-07-2016 08:35:00 12.2 C 95 % 11.42 C
3824 07-07-2016 08:40:00 12.3 C 95 % 11.52 C
3825 07-07-2016 08:45:00 12.4 C 95 % 11.62 C
Sensor: Nr:Datum:Temp:Feuchte:Taupunkt:
Aussen-T/F 3826 07-07-2016 08:50:00 12.6 C 95 % 11.82 C
3827 07-07-2016 08:55:00 12.7 C 95 % 11.92 C
3828 07-07-2016 09:00:00 12.8 C 95 % 12.02 C
3829 07-07-2016 09:05:00 12.9 C 95 % 12.12 C
3830 07-07-2016 09:10:00 13.1 C 94 % 12.16 C
3831 07-07-2016 09:15:00 13.2 C 95 % 12.42 C
3832 07-07-2016 09:20:00 13.3 C 94 % 12.36 C
3833 07-07-2016 09:25:00 13.4 C 94 % 12.45 C
3834 07-07-2016 09:30:00 13.6 C 94 % 12.65 C
3835 07-07-2016 09:35:00 13.6 C 93 % 12.49 C
3836 07-07-2016 09:40:00 13.8 C 93 % 12.69 C
3837 07-07-2016 09:45:00 13.9 C 92 % 12.62 C
3838 07-07-2016 09:50:00 14.1 C 92 % 12.82 C
3839 07-07-2016 09:55:00 14.3 C 92 % 13.02 C
3840 07-07-2016 10:00:00 14.4 C 91 % 12.95 C
3841 07-07-2016 10:05:00 14.6 C 90 % 12.98 C
3842 07-07-2016 10:10:00 14.8 C 90 % 13.18 C
3843 07-07-2016 10:15:00 15.1 C 89 % 13.3 C
3844 07-07-2016 10:20:00 15.4 C 88 % 13.42 C
3845 07-07-2016 10:25:00 15.8 C 86 % 13.46 C
3846 07-07-2016 10:30:00 16.3 C 85 % 13.77 C
3847 07-07-2016 10:35:00 16.8 C 85 % 14.26 C
3848 07-07-2016 10:40:00 17.2 C 84 % 14.47 C
3849 07-07-2016 10:45:00 17.6 C 78 % 13.72 C
3850 07-07-2016 10:50:00 18 C 80 % 14.5 C
Sensor: Nr:Datum:Temp:Feuchte:Taupunkt:
Aussen-T/F 3851 07-07-2016 10:55:00 18.3 C 79 % 14.6 C
3852 07-07-2016 11:00:00 18.4 C 77 % 14.3 C
3853 07-07-2016 11:05:00 18.6 C 76 % 14.29 C
3854 07-07-2016 11:10:00 18.7 C 80 % 15.18 C
3855 07-07-2016 11:15:00 18.6 C 79 % 14.89 C
3856 07-07-2016 11:20:00 18.4 C 77 % 14.3 C
3857 07-07-2016 11:25:00 18.3 C 76 % 14 C
3858 07-07-2016 11:30:00 18.2 C 74 % 13.49 C
3859 07-07-2016 11:35:00 18.2 C 72 % 13.07 C
3860 07-07-2016 11:40:00 18.3 C 75 % 13.79 C
3861 07-07-2016 11:45:00 18.6 C 71 % 13.24 C
3862 07-07-2016 11:50:00 18.8 C 67 % 12.55 C
3863 07-07-2016 11:55:00 18.9 C 67 % 12.64 C
3864 07-07-2016 12:00:00 19.2 C 68 % 13.15 C
3865 07-07-2016 12:05:00 19.3 C 65 % 12.56 C
3866 07-07-2016 12:10:00 19.4 C 65 % 12.66 C
3867 07-07-2016 12:15:00 19.4 C 65 % 12.66 C
3868 07-07-2016 12:20:00 19.4 C 64 % 12.42 C
3869 07-07-2016 12:25:00 19.4 C 67 % 13.12 C
3870 07-07-2016 12:30:00 19.6 C 66 % 13.08 C
3871 07-07-2016 12:35:00 19.6 C 58 % 11.12 C
3872 07-07-2016 12:40:00 19.7 C 60 % 11.72 C
3873 07-07-2016 12:45:00 19.8 C 61 % 12.07 C
3874 07-07-2016 12:50:00 19.9 C 65 % 13.13 C
3875 07-07-2016 12:55:00 19.9 C 61 % 12.16 C
Sensor: Nr:Datum:Temp:Feuchte:Taupunkt:
Aussen-T/F 3876 07-07-2016 13:00:00 20 C 6